﻿<?xml version="1.0" encoding="utf-8"?><gpx creator="Garmin Desktop App" version="1.1" xsi:schemaLocation="http://www.topografix.com/GPX/1/1 http://www.topografix.com/GPX/1/1/gpx.xsd http://www.garmin.com/xmlschemas/WaypointExtension/v1 http://www8.garmin.com/xmlschemas/WaypointExtensionv1.xsd http://www.garmin.com/xmlschemas/TrackPointExtension/v1 http://www.garmin.com/xmlschemas/TrackPointExtensionv1.xsd http://www.garmin.com/xmlschemas/GpxExtensions/v3 http://www8.garmin.com/xmlschemas/GpxExtensionsv3.xsd http://www.garmin.com/xmlschemas/ActivityExtension/v1 http://www8.garmin.com/xmlschemas/ActivityExtensionv1.xsd http://www.garmin.com/xmlschemas/AdventuresExtensions/v1 http://www8.garmin.com/xmlschemas/AdventuresExtensionv1.xsd http://www.garmin.com/xmlschemas/PressureExtension/v1 http://www.garmin.com/xmlschemas/PressureExtensionv1.xsd http://www.garmin.com/xmlschemas/TripExtensions/v1 http://www.garmin.com/xmlschemas/TripExtensionsv1.xsd http://www.garmin.com/xmlschemas/TripMetaDataExtensions/v1 http://www.garmin.com/xmlschemas/TripMetaDataExtensionsv1.xsd http://www.garmin.com/xmlschemas/ViaPointTransportationModeExtensions/v1 http://www.garmin.com/xmlschemas/ViaPointTransportationModeExtensionsv1.xsd http://www.garmin.com/xmlschemas/CreationTimeExtension/v1 http://www.garmin.com/xmlschemas/CreationTimeExtensionsv1.xsd http://www.garmin.com/xmlschemas/AccelerationExtension/v1 http://www.garmin.com/xmlschemas/AccelerationExtensionv1.xsd http://www.garmin.com/xmlschemas/PowerExtension/v1 http://www.garmin.com/xmlschemas/PowerExtensionv1.xsd http://www.garmin.com/xmlschemas/VideoExtension/v1 http://www.garmin.com/xmlschemas/VideoExtensionv1.xsd" xmlns="http://www.topografix.com/GPX/1/1" xmlns:xsi="http://www.w3.org/2001/XMLSchema-instance" xmlns:wptx1="http://www.garmin.com/xmlschemas/WaypointExtension/v1" xmlns:gpxtrx="http://www.garmin.com/xmlschemas/GpxExtensions/v3" xmlns:gpxtpx="http://www.garmin.com/xmlschemas/TrackPointExtension/v1" xmlns:gpxx="http://www.garmin.com/xmlschemas/GpxExtensions/v3" xmlns:trp="http://www.garmin.com/xmlschemas/TripExtensions/v1" xmlns:adv="http://www.garmin.com/xmlschemas/AdventuresExtensions/v1" xmlns:prs="http://www.garmin.com/xmlschemas/PressureExtension/v1" xmlns:tmd="http://www.garmin.com/xmlschemas/TripMetaDataExtensions/v1" xmlns:vptm="http://www.garmin.com/xmlschemas/ViaPointTransportationModeExtensions/v1" xmlns:ctx="http://www.garmin.com/xmlschemas/CreationTimeExtension/v1" xmlns:gpxacc="http://www.garmin.com/xmlschemas/AccelerationExtension/v1" xmlns:gpxpx="http://www.garmin.com/xmlschemas/PowerExtension/v1" xmlns:vidx1="http://www.garmin.com/xmlschemas/VideoExtension/v1">

  <metadata>
    <link href="http://www.garmin.com">
      <text>Garmin International</text>
    </link>
    <time>2021-05-31T05:06:36Z</time>
    <bounds maxlat="45.686309058219194" maxlon="8.062934288755059" minlat="45.663085989654064" minlon="8.016507178544998" />
  </metadata>

  <trk>
    <name>giro del bonom2021-05-30</name>
    <extensions>
      <gpxx:TrackExtension>
        <gpxx:DisplayColor>Yellow</gpxx:DisplayColor>
      </gpxx:TrackExtension>
      <gpxtrkx:TrackStatsExtension xmlns:gpxtrkx="http://www.garmin.com/xmlschemas/TrackStatsExtension/v1">
        <gpxtrkx:Distance>12784</gpxtrkx:Distance>
        <gpxtrkx:TotalElapsedTime>27124</gpxtrkx:TotalElapsedTime>
        <gpxtrkx:MovingTime>16775</gpxtrkx:MovingTime>
        <gpxtrkx:StoppedTime>10338</gpxtrkx:StoppedTime>
        <gpxtrkx:MovingSpeed>0.762</gpxtrkx:MovingSpeed>
        <gpxtrkx:MaxSpeed>3.779</gpxtrkx:MaxSpeed>
        <gpxtrkx:MaxElevation>1883.034</gpxtrkx:MaxElevation>
        <gpxtrkx:MinElevation>1369.46</gpxtrkx:MinElevation>
        <gpxtrkx:Ascent>809</gpxtrkx:Ascent>
        <gpxtrkx:Descent>819.244</gpxtrkx:Descent>
        <gpxtrkx:AvgAscentRate>0.064</gpxtrkx:AvgAscentRate>
        <gpxtrkx:MaxAscentRate>1.112</gpxtrkx:MaxAscentRate>
        <gpxtrkx:AvgDescentRate>0.062</gpxtrkx:AvgDescentRate>
        <gpxtrkx:MaxDescentRate>-0.367</gpxtrkx:MaxDescentRate>
      </gpxtrkx:TrackStatsExtension>
    </extensions>
    <trkseg>
      <trkpt lat="45.66383482888341" lon="8.062796574085951">
        <ele>1392.1300000000001</ele>
        <time>2021-05-30T06:55:52Z</time>
      </trkpt>
      <trkpt lat="45.663835164159536" lon="8.062794478610158">
        <ele>1392.1300000000001</ele>
        <time>2021-05-30T06:55:53Z</time>
      </trkpt>
      <trkpt lat="45.663832984864712" lon="8.062791293486953">
        <ele>1379.45</ele>
        <time>2021-05-30T06:55:56Z</time>
      </trkpt>
      <trkpt lat="45.663834325969219" lon="8.062788778916001">
        <ele>1379.45</ele>
        <time>2021-05-30T06:55:57Z</time>
      </trkpt>
      <trkpt lat="45.663840612396598" lon="8.062824569642544">
        <ele>1379.28</ele>
        <time>2021-05-30T06:56:23Z</time>
      </trkpt>
      <trkpt lat="45.663854023441672" lon="8.062816020101309">
        <ele>1379.01</ele>
        <time>2021-05-30T06:56:46Z</time>
      </trkpt>
      <trkpt lat="45.663851173594594" lon="8.062824150547385">
        <ele>1378.73</ele>
        <time>2021-05-30T06:57:04Z</time>
      </trkpt>
      <trkpt lat="45.663857292383909" lon="8.062830017879605">
        <ele>1378.9000000000001</ele>
        <time>2021-05-30T06:57:26Z</time>
      </trkpt>
      <trkpt lat="45.663851927965879" lon="8.062828509137034">
        <ele>1379.1900000000001</ele>
        <time>2021-05-30T06:57:52Z</time>
      </trkpt>
      <trkpt lat="45.663854191079736" lon="8.062829095870256">
        <ele>1379.1099999999999</ele>
        <time>2021-05-30T06:58:14Z</time>
      </trkpt>
      <trkpt lat="45.663856454193592" lon="8.062824318185449">
        <ele>1379.1099999999999</ele>
        <time>2021-05-30T06:58:32Z</time>
      </trkpt>
      <trkpt lat="45.663855448365211" lon="8.062830017879605">
        <ele>1378.8699999999999</ele>
        <time>2021-05-30T06:59:01Z</time>
      </trkpt>
      <trkpt lat="45.663850586861372" lon="8.062827419489622">
        <ele>1378.73</ele>
        <time>2021-05-30T06:59:26Z</time>
      </trkpt>
      <trkpt lat="45.663849245756865" lon="8.062834376469255">
        <ele>1378.6400000000001</ele>
        <time>2021-05-30T06:59:59Z</time>
      </trkpt>
      <trkpt lat="45.663835247978568" lon="8.062809146940708">
        <ele>1378.5999999999999</ele>
        <time>2021-05-30T07:00:13Z</time>
      </trkpt>
      <trkpt lat="45.663819741457701" lon="8.062806380912662">
        <ele>1377.48</ele>
        <time>2021-05-30T07:00:22Z</time>
      </trkpt>
      <trkpt lat="45.663823932409286" lon="8.062801603227854">
        <ele>1378.52</ele>
        <time>2021-05-30T07:00:46Z</time>
      </trkpt>
      <trkpt lat="45.663828458636999" lon="8.06279213167727">
        <ele>1378.53</ele>
        <time>2021-05-30T07:01:04Z</time>
      </trkpt>
      <trkpt lat="45.663860226050019" lon="8.062801351770759">
        <ele>1378.3299999999999</ele>
        <time>2021-05-30T07:01:15Z</time>
      </trkpt>
      <trkpt lat="45.663910182192922" lon="8.06276916526258">
        <ele>1378.04</ele>
        <time>2021-05-30T07:01:31Z</time>
      </trkpt>
      <trkpt lat="45.663898782804608" lon="8.062762459740043">
        <ele>1377.8699999999999</ele>
        <time>2021-05-30T07:02:01Z</time>
      </trkpt>
      <trkpt lat="45.663884785026312" lon="8.062728680670261">
        <ele>1377.8399999999999</ele>
        <time>2021-05-30T07:02:25Z</time>
      </trkpt>
      <trkpt lat="45.663876654580235" lon="8.062718454748392">
        <ele>1377.96</ele>
        <time>2021-05-30T07:02:46Z</time>
      </trkpt>
      <trkpt lat="45.663878666236997" lon="8.06271837092936">
        <ele>1377.45</ele>
        <time>2021-05-30T07:03:13Z</time>
      </trkpt>
      <trkpt lat="45.663878498598933" lon="8.062717448920012">
        <ele>1377.55</ele>
        <time>2021-05-30T07:03:38Z</time>
      </trkpt>
      <trkpt lat="45.663870200514793" lon="8.062735637649894">
        <ele>1377.49</ele>
        <time>2021-05-30T07:04:03Z</time>
      </trkpt>
      <trkpt lat="45.663868859410286" lon="8.062704792246223">
        <ele>1377.48</ele>
        <time>2021-05-30T07:04:18Z</time>
      </trkpt>
      <trkpt lat="45.663860896602273" lon="8.062684005126357">
        <ele>1377.8399999999999</ele>
        <time>2021-05-30T07:04:36Z</time>
      </trkpt>
      <trkpt lat="45.66385293379426" lon="8.062678892165422">
        <ele>1377.9200000000001</ele>
        <time>2021-05-30T07:05:02Z</time>
      </trkpt>
      <trkpt lat="45.663868105039001" lon="8.062720717862248">
        <ele>1377.8699999999999</ele>
        <time>2021-05-30T07:05:20Z</time>
      </trkpt>
      <trkpt lat="45.663946978747845" lon="8.062761034816504">
        <ele>1377.6300000000001</ele>
        <time>2021-05-30T07:05:38Z</time>
      </trkpt>
      <trkpt lat="45.664046723395586" lon="8.06278383359313">
        <ele>1377.5899999999999</ele>
        <time>2021-05-30T07:05:49Z</time>
      </trkpt>
      <trkpt lat="45.664085699245334" lon="8.062800765037537">
        <ele>1377.76</ele>
        <time>2021-05-30T07:05:54Z</time>
      </trkpt>
      <trkpt lat="45.664236238226295" lon="8.062876788899303">
        <ele>1377.8199999999999</ele>
        <time>2021-05-30T07:06:10Z</time>
      </trkpt>
      <trkpt lat="45.664292564615607" lon="8.062934288755059">
        <ele>1378.1900000000001</ele>
        <time>2021-05-30T07:06:26Z</time>
      </trkpt>
      <trkpt lat="45.664291894063354" lon="8.062846949324012">
        <ele>1378.1800000000001</ele>
        <time>2021-05-30T07:06:43Z</time>
      </trkpt>
      <trkpt lat="45.66430589184165" lon="8.062819121405482">
        <ele>1378.23</ele>
        <time>2021-05-30T07:07:11Z</time>
      </trkpt>
      <trkpt lat="45.664268676191568" lon="8.06284292601049">
        <ele>1377.95</ele>
        <time>2021-05-30T07:07:32Z</time>
      </trkpt>
      <trkpt lat="45.664232382550836" lon="8.062824569642544">
        <ele>1377.6900000000001</ele>
        <time>2021-05-30T07:07:47Z</time>
      </trkpt>
      <trkpt lat="45.664197513833642" lon="8.062866982072592">
        <ele>1377.5999999999999</ele>
        <time>2021-05-30T07:08:07Z</time>
      </trkpt>
      <trkpt lat="45.664182091131806" lon="8.062813505530357">
        <ele>1376.73</ele>
        <time>2021-05-30T07:08:32Z</time>
      </trkpt>
      <trkpt lat="45.664176559075713" lon="8.06273496709764">
        <ele>1377.6500000000001</ele>
        <time>2021-05-30T07:08:47Z</time>
      </trkpt>
      <trkpt lat="45.664169015362859" lon="8.062704624608159">
        <ele>1377.99</ele>
        <time>2021-05-30T07:09:15Z</time>
      </trkpt>
      <trkpt lat="45.664180917665362" lon="8.062698757275939">
        <ele>1378.3099999999999</ele>
        <time>2021-05-30T07:09:41Z</time>
      </trkpt>
      <trkpt lat="45.664244620129466" lon="8.062648382037878">
        <ele>1378.8900000000001</ele>
        <time>2021-05-30T07:10:04Z</time>
      </trkpt>
      <trkpt lat="45.664260713383555" lon="8.062581494450569">
        <ele>1383.1500000000001</ele>
        <time>2021-05-30T07:10:18Z</time>
      </trkpt>
      <trkpt lat="45.664259791374207" lon="8.062576465308666">
        <ele>1383.1500000000001</ele>
        <time>2021-05-30T07:10:19Z</time>
      </trkpt>
      <trkpt lat="45.664227856323123" lon="8.062513014301658">
        <ele>1384.6500000000001</ele>
        <time>2021-05-30T07:10:37Z</time>
      </trkpt>
      <trkpt lat="45.664208829402924" lon="8.062485856935382">
        <ele>1385.99</ele>
        <time>2021-05-30T07:10:46Z</time>
      </trkpt>
      <trkpt lat="45.664162142202258" lon="8.062356440350413">
        <ele>1385.96</ele>
        <time>2021-05-30T07:11:09Z</time>
      </trkpt>
      <trkpt lat="45.664166919887066" lon="8.062283769249916">
        <ele>1392.1700000000001</ele>
        <time>2021-05-30T07:11:16Z</time>
      </trkpt>
      <trkpt lat="45.664168512448668" lon="8.062274213880301">
        <ele>1392.3099999999999</ele>
        <time>2021-05-30T07:11:17Z</time>
      </trkpt>
      <trkpt lat="45.664208829402924" lon="8.062158962711692">
        <ele>1394.75</ele>
        <time>2021-05-30T07:11:34Z</time>
      </trkpt>
      <trkpt lat="45.664209583774209" lon="8.062009597197175">
        <ele>1395.72</ele>
        <time>2021-05-30T07:11:57Z</time>
      </trkpt>
      <trkpt lat="45.664205476641655" lon="8.061996521428227">
        <ele>1398.28</ele>
        <time>2021-05-30T07:11:59Z</time>
      </trkpt>
      <trkpt lat="45.664214445278049" lon="8.061933405697346">
        <ele>1400.22</ele>
        <time>2021-05-30T07:12:11Z</time>
      </trkpt>
      <trkpt lat="45.664232466369867" lon="8.061768282204866">
        <ele>1402.04</ele>
        <time>2021-05-30T07:12:32Z</time>
      </trkpt>
      <trkpt lat="45.664245877414942" lon="8.061638195067644">
        <ele>1402.04</ele>
        <time>2021-05-30T07:12:51Z</time>
      </trkpt>
      <trkpt lat="45.664272699505091" lon="8.061495702713728">
        <ele>1402.0699999999999</ele>
        <time>2021-05-30T07:13:12Z</time>
      </trkpt>
      <trkpt lat="45.664294492453337" lon="8.061349103227258">
        <ele>1402.1500000000001</ele>
        <time>2021-05-30T07:13:33Z</time>
      </trkpt>
      <trkpt lat="45.664328271523118" lon="8.061280036345124">
        <ele>1412.8699999999999</ele>
        <time>2021-05-30T07:13:47Z</time>
      </trkpt>
      <trkpt lat="45.664328020066023" lon="8.061271319165826">
        <ele>1412.8800000000001</ele>
        <time>2021-05-30T07:13:48Z</time>
      </trkpt>
      <trkpt lat="45.664306897670031" lon="8.061147099360824">
        <ele>1412.9000000000001</ele>
        <time>2021-05-30T07:14:05Z</time>
      </trkpt>
      <trkpt lat="45.664302119985223" lon="8.061045007780194">
        <ele>1419.8199999999999</ele>
        <time>2021-05-30T07:14:22Z</time>
      </trkpt>
      <trkpt lat="45.664301868528128" lon="8.061038050800562">
        <ele>1419.9300000000001</ele>
        <time>2021-05-30T07:14:23Z</time>
      </trkpt>
      <trkpt lat="45.664293905720115" lon="8.060938389971852">
        <ele>1422.96</ele>
        <time>2021-05-30T07:14:38Z</time>
      </trkpt>
      <trkpt lat="45.664302622899413" lon="8.060837304219604">
        <ele>1425.9300000000001</ele>
        <time>2021-05-30T07:14:56Z</time>
      </trkpt>
      <trkpt lat="45.664353165775537" lon="8.06071056984365">
        <ele>1427.9300000000001</ele>
        <time>2021-05-30T07:15:12Z</time>
      </trkpt>
      <trkpt lat="45.664366409182549" lon="8.060664553195238">
        <ele>1428.3499999999999</ele>
        <time>2021-05-30T07:15:26Z</time>
      </trkpt>
      <trkpt lat="45.66437479108572" lon="8.060388956218958">
        <ele>1428.0599999999999</ele>
        <time>2021-05-30T07:15:44Z</time>
      </trkpt>
      <trkpt lat="45.664365906268358" lon="8.060146132484078">
        <ele>1429.45</ele>
        <time>2021-05-30T07:16:04Z</time>
      </trkpt>
      <trkpt lat="45.664376132190228" lon="8.059957707300782">
        <ele>1429.3199999999999</ele>
        <time>2021-05-30T07:16:20Z</time>
      </trkpt>
      <trkpt lat="45.664350232109427" lon="8.059762408956885">
        <ele>1429.3800000000001</ele>
        <time>2021-05-30T07:16:38Z</time>
      </trkpt>
      <trkpt lat="45.664290972054005" lon="8.059590328484774">
        <ele>1429.3800000000001</ele>
        <time>2021-05-30T07:16:56Z</time>
      </trkpt>
      <trkpt lat="45.664278818294406" lon="8.059376003220677">
        <ele>1429.0699999999999</ele>
        <time>2021-05-30T07:17:14Z</time>
      </trkpt>
      <trkpt lat="45.664265491068363" lon="8.059392096474767">
        <ele>1428.77</ele>
        <time>2021-05-30T07:17:17Z</time>
      </trkpt>
      <trkpt lat="45.664253756403923" lon="8.059408105909824">
        <ele>1428.76</ele>
        <time>2021-05-30T07:17:32Z</time>
      </trkpt>
      <trkpt lat="45.664264149963856" lon="8.059325208887458">
        <ele>1428.6700000000001</ele>
        <time>2021-05-30T07:17:51Z</time>
      </trkpt>
      <trkpt lat="45.66426046192646" lon="8.059313558042049">
        <ele>1428.6800000000001</ele>
        <time>2021-05-30T07:17:52Z</time>
      </trkpt>
      <trkpt lat="45.664241770282388" lon="8.059250442311168">
        <ele>1429.26</ele>
        <time>2021-05-30T07:17:57Z</time>
      </trkpt>
      <trkpt lat="45.664205392822623" lon="8.059073500335217">
        <ele>1431.0799999999999</ele>
        <time>2021-05-30T07:18:10Z</time>
      </trkpt>
      <trkpt lat="45.664181923493743" lon="8.058939557522535">
        <ele>1434.3699999999999</ele>
        <time>2021-05-30T07:18:25Z</time>
      </trkpt>
      <trkpt lat="45.664177648723125" lon="8.058814918622375">
        <ele>1437.28</ele>
        <time>2021-05-30T07:18:43Z</time>
      </trkpt>
      <trkpt lat="45.664179073646665" lon="8.058696901425719">
        <ele>1439.95</ele>
        <time>2021-05-30T07:19:03Z</time>
      </trkpt>
      <trkpt lat="45.664172535762191" lon="8.058605706319213">
        <ele>1442.29</ele>
        <time>2021-05-30T07:19:21Z</time>
      </trkpt>
      <trkpt lat="45.664172200486064" lon="8.058534543961287">
        <ele>1444.1500000000001</ele>
        <time>2021-05-30T07:19:35Z</time>
      </trkpt>
      <trkpt lat="45.664158957079053" lon="8.058432620018721">
        <ele>1446.9100000000001</ele>
        <time>2021-05-30T07:19:54Z</time>
      </trkpt>
      <trkpt lat="45.664179660379887" lon="8.058378137648106">
        <ele>1448.4400000000001</ele>
        <time>2021-05-30T07:20:10Z</time>
      </trkpt>
      <trkpt lat="45.664180917665362" lon="8.058315273374319">
        <ele>1450.0799999999999</ele>
        <time>2021-05-30T07:20:28Z</time>
      </trkpt>
      <trkpt lat="45.664192903786898" lon="8.05824444629252">
        <ele>1452.6600000000001</ele>
        <time>2021-05-30T07:20:43Z</time>
      </trkpt>
      <trkpt lat="45.664219306781888" lon="8.058214355260134">
        <ele>1454.1900000000001</ele>
        <time>2021-05-30T07:21:02Z</time>
      </trkpt>
      <trkpt lat="45.664210505783558" lon="8.058163141831756">
        <ele>1456</ele>
        <time>2021-05-30T07:21:17Z</time>
      </trkpt>
      <trkpt lat="45.664180833846331" lon="8.058114694431424">
        <ele>1458.77</ele>
        <time>2021-05-30T07:21:32Z</time>
      </trkpt>
      <trkpt lat="45.664161639288068" lon="8.058060966432095">
        <ele>1461.75</ele>
        <time>2021-05-30T07:21:48Z</time>
      </trkpt>
      <trkpt lat="45.664152838289738" lon="8.058006400242448">
        <ele>1463.45</ele>
        <time>2021-05-30T07:22:04Z</time>
      </trkpt>
      <trkpt lat="45.664118556305766" lon="8.057967005297542">
        <ele>1466.2</ele>
        <time>2021-05-30T07:22:20Z</time>
      </trkpt>
      <trkpt lat="45.664126016199589" lon="8.05796205997467">
        <ele>1465.29</ele>
        <time>2021-05-30T07:22:36Z</time>
      </trkpt>
      <trkpt lat="45.664126686751842" lon="8.05796205997467">
        <ele>1465.9000000000001</ele>
        <time>2021-05-30T07:23:08Z</time>
      </trkpt>
      <trkpt lat="45.664127273485065" lon="8.057967005297542">
        <ele>1466.0899999999999</ele>
        <time>2021-05-30T07:23:28Z</time>
      </trkpt>
      <trkpt lat="45.664126267656684" lon="8.057989133521915">
        <ele>1466.4300000000001</ele>
        <time>2021-05-30T07:23:45Z</time>
      </trkpt>
      <trkpt lat="45.664115622639656" lon="8.057983266189694">
        <ele>1466.71</ele>
        <time>2021-05-30T07:24:17Z</time>
      </trkpt>
      <trkpt lat="45.664101960137486" lon="8.057986702769995">
        <ele>1466.1300000000001</ele>
        <time>2021-05-30T07:24:36Z</time>
      </trkpt>
      <trkpt lat="45.664102463051677" lon="8.057995587587357">
        <ele>1467.2</ele>
        <time>2021-05-30T07:24:51Z</time>
      </trkpt>
      <trkpt lat="45.664080753922462" lon="8.057938339188695">
        <ele>1467.8900000000001</ele>
        <time>2021-05-30T07:25:09Z</time>
      </trkpt>
      <trkpt lat="45.664060637354851" lon="8.0579121876508">
        <ele>1469.47</ele>
        <time>2021-05-30T07:25:12Z</time>
      </trkpt>
      <trkpt lat="45.664032809436321" lon="8.057777909561992">
        <ele>1473.05</ele>
        <time>2021-05-30T07:25:26Z</time>
      </trkpt>
      <trkpt lat="45.66402786411345" lon="8.057665508240461">
        <ele>1476.1900000000001</ele>
        <time>2021-05-30T07:25:41Z</time>
      </trkpt>
      <trkpt lat="45.664028283208609" lon="8.057569786906242">
        <ele>1479.05</ele>
        <time>2021-05-30T07:25:57Z</time>
      </trkpt>
      <trkpt lat="45.664023254066706" lon="8.05754472501576">
        <ele>1480</ele>
        <time>2021-05-30T07:26:18Z</time>
      </trkpt>
      <trkpt lat="45.664039179682732" lon="8.057496696710587">
        <ele>1481.6099999999999</ele>
        <time>2021-05-30T07:26:45Z</time>
      </trkpt>
      <trkpt lat="45.664011938497424" lon="8.05740206502378">
        <ele>1484.6400000000001</ele>
        <time>2021-05-30T07:27:00Z</time>
      </trkpt>
      <trkpt lat="45.663981009274721" lon="8.057298548519611">
        <ele>1487.75</ele>
        <time>2021-05-30T07:27:18Z</time>
      </trkpt>
      <trkpt lat="45.663957707583904" lon="8.057236270979047">
        <ele>1489.9100000000001</ele>
        <time>2021-05-30T07:27:36Z</time>
      </trkpt>
      <trkpt lat="45.663932310417295" lon="8.057185392826796">
        <ele>1491.3399999999999</ele>
        <time>2021-05-30T07:27:52Z</time>
      </trkpt>
      <trkpt lat="45.663930047303438" lon="8.057139292359352">
        <ele>1493.4000000000001</ele>
        <time>2021-05-30T07:28:09Z</time>
      </trkpt>
      <trkpt lat="45.663969861343503" lon="8.057084726169705">
        <ele>1495.7</ele>
        <time>2021-05-30T07:28:29Z</time>
      </trkpt>
      <trkpt lat="45.663965921849012" lon="8.057025047019124">
        <ele>1498.9000000000001</ele>
        <time>2021-05-30T07:28:45Z</time>
      </trkpt>
      <trkpt lat="45.663986038416624" lon="8.056978862732649">
        <ele>1501.1199999999999</ele>
        <time>2021-05-30T07:29:00Z</time>
      </trkpt>
      <trkpt lat="45.664012944325805" lon="8.056922033429146">
        <ele>1502.97</ele>
        <time>2021-05-30T07:29:19Z</time>
      </trkpt>
      <trkpt lat="45.664066672325134" lon="8.056856570765376">
        <ele>1505.1199999999999</ele>
        <time>2021-05-30T07:29:33Z</time>
      </trkpt>
      <trkpt lat="45.664061475545168" lon="8.056783815845847">
        <ele>1507.3399999999999</ele>
        <time>2021-05-30T07:29:48Z</time>
      </trkpt>
      <trkpt lat="45.664023673161864" lon="8.056739894673228">
        <ele>1508.78</ele>
        <time>2021-05-30T07:30:06Z</time>
      </trkpt>
      <trkpt lat="45.663987882435322" lon="8.056703684851527">
        <ele>1510.6400000000001</ele>
        <time>2021-05-30T07:30:21Z</time>
      </trkpt>
      <trkpt lat="45.663945805281401" lon="8.05666470900178">
        <ele>1512.97</ele>
        <time>2021-05-30T07:30:38Z</time>
      </trkpt>
      <trkpt lat="45.663920072838664" lon="8.056624224409461">
        <ele>1514.7</ele>
        <time>2021-05-30T07:30:54Z</time>
      </trkpt>
      <trkpt lat="45.663922252133489" lon="8.056577453389764">
        <ele>1516.6400000000001</ele>
        <time>2021-05-30T07:31:11Z</time>
      </trkpt>
      <trkpt lat="45.66394136287272" lon="8.056556833907962">
        <ele>1517.9100000000001</ele>
        <time>2021-05-30T07:31:27Z</time>
      </trkpt>
      <trkpt lat="45.663931975141168" lon="8.05650738067925">
        <ele>1519.75</ele>
        <time>2021-05-30T07:31:42Z</time>
      </trkpt>
      <trkpt lat="45.663954773917794" lon="8.056467147544026">
        <ele>1521.6500000000001</ele>
        <time>2021-05-30T07:31:59Z</time>
      </trkpt>
      <trkpt lat="45.663982015103102" lon="8.056420376524329">
        <ele>1523.55</ele>
        <time>2021-05-30T07:32:18Z</time>
      </trkpt>
      <trkpt lat="45.663978243246675" lon="8.056386765092611">
        <ele>1525.3699999999999</ele>
        <time>2021-05-30T07:32:35Z</time>
      </trkpt>
      <trkpt lat="45.66396969370544" lon="8.056347286328673">
        <ele>1527.9300000000001</ele>
        <time>2021-05-30T07:32:55Z</time>
      </trkpt>
      <trkpt lat="45.663974639028311" lon="8.056281488388777">
        <ele>1530.98</ele>
        <time>2021-05-30T07:33:11Z</time>
      </trkpt>
      <trkpt lat="45.663997437804937" lon="8.056236058473587">
        <ele>1533.23</ele>
        <time>2021-05-30T07:33:27Z</time>
      </trkpt>
      <trkpt lat="45.664030965417624" lon="8.056210493668914">
        <ele>1535.26</ele>
        <time>2021-05-30T07:33:41Z</time>
      </trkpt>
      <trkpt lat="45.664064912125468" lon="8.05618685670197">
        <ele>1536.4300000000001</ele>
        <time>2021-05-30T07:33:58Z</time>
      </trkpt>
      <trkpt lat="45.66405083052814" lon="8.056135978549719">
        <ele>1538.8900000000001</ele>
        <time>2021-05-30T07:34:16Z</time>
      </trkpt>
      <trkpt lat="45.664010010659695" lon="8.056079735979438">
        <ele>1541.6400000000001</ele>
        <time>2021-05-30T07:34:35Z</time>
      </trkpt>
      <trkpt lat="45.663999952375889" lon="8.05601972155273">
        <ele>1543.6700000000001</ele>
        <time>2021-05-30T07:34:50Z</time>
      </trkpt>
      <trkpt lat="45.66402493044734" lon="8.055988624691963">
        <ele>1545.1900000000001</ele>
        <time>2021-05-30T07:35:04Z</time>
      </trkpt>
      <trkpt lat="45.664063319563866" lon="8.055959036573768">
        <ele>1547.1400000000001</ele>
        <time>2021-05-30T07:35:20Z</time>
      </trkpt>
      <trkpt lat="45.664067342877388" lon="8.055880330502987">
        <ele>1549.6500000000001</ele>
        <time>2021-05-30T07:35:40Z</time>
      </trkpt>
      <trkpt lat="45.664067091420293" lon="8.055812688544393">
        <ele>1552.5799999999999</ele>
        <time>2021-05-30T07:36:00Z</time>
      </trkpt>
      <trkpt lat="45.664112269878387" lon="8.055788213387132">
        <ele>1554.4400000000001</ele>
        <time>2021-05-30T07:36:16Z</time>
      </trkpt>
      <trkpt lat="45.66418175585568" lon="8.055786872282624">
        <ele>1555.8599999999999</ele>
        <time>2021-05-30T07:36:31Z</time>
      </trkpt>
      <trkpt lat="45.664243111386895" lon="8.055761056020856">
        <ele>1556.6199999999999</ele>
        <time>2021-05-30T07:36:47Z</time>
      </trkpt>
      <trkpt lat="45.664271609857678" lon="8.055707328021526">
        <ele>1558.05</ele>
        <time>2021-05-30T07:37:04Z</time>
      </trkpt>
      <trkpt lat="45.664279153570533" lon="8.055629711598158">
        <ele>1560.27</ele>
        <time>2021-05-30T07:37:25Z</time>
      </trkpt>
      <trkpt lat="45.664276387542486" lon="8.05557020008564">
        <ele>1562.5699999999999</ele>
        <time>2021-05-30T07:37:41Z</time>
      </trkpt>
      <trkpt lat="45.664291139692068" lon="8.055563243106008">
        <ele>1563.4200000000001</ele>
        <time>2021-05-30T07:37:57Z</time>
      </trkpt>
      <trkpt lat="45.664274711161852" lon="8.055572798475623">
        <ele>1563.1199999999999</ele>
        <time>2021-05-30T07:38:41Z</time>
      </trkpt>
      <trkpt lat="45.664240261539817" lon="8.055506497621536">
        <ele>1566.1300000000001</ele>
        <time>2021-05-30T07:38:51Z</time>
      </trkpt>
      <trkpt lat="45.664219474419951" lon="8.055430222302675">
        <ele>1569.1800000000001</ele>
        <time>2021-05-30T07:39:02Z</time>
      </trkpt>
      <trkpt lat="45.664227521046996" lon="8.055344056338072">
        <ele>1572.24</ele>
        <time>2021-05-30T07:39:15Z</time>
      </trkpt>
      <trkpt lat="45.664233723655343" lon="8.055252023041248">
        <ele>1574.8800000000001</ele>
        <time>2021-05-30T07:39:31Z</time>
      </trkpt>
      <trkpt lat="45.664240177720785" lon="8.055204832926393">
        <ele>1576.05</ele>
        <time>2021-05-30T07:39:46Z</time>
      </trkpt>
      <trkpt lat="45.664181252941489" lon="8.055187566205859">
        <ele>1578.4200000000001</ele>
        <time>2021-05-30T07:40:03Z</time>
      </trkpt>
      <trkpt lat="45.664159962907434" lon="8.055155295878649">
        <ele>1579.9200000000001</ele>
        <time>2021-05-30T07:40:19Z</time>
      </trkpt>
      <trkpt lat="45.6641392596066" lon="8.055083462968469">
        <ele>1583.04</ele>
        <time>2021-05-30T07:40:37Z</time>
      </trkpt>
      <trkpt lat="45.664092740043998" lon="8.055053371936083">
        <ele>1584.8</ele>
        <time>2021-05-30T07:40:54Z</time>
      </trkpt>
      <trkpt lat="45.66408846527338" lon="8.055052030831575">
        <ele>1585.0799999999999</ele>
        <time>2021-05-30T07:41:13Z</time>
      </trkpt>
      <trkpt lat="45.664066337049007" lon="8.05495698004961">
        <ele>1587.25</ele>
        <time>2021-05-30T07:41:30Z</time>
      </trkpt>
      <trkpt lat="45.664022332057357" lon="8.054817337542772">
        <ele>1586.6199999999999</ele>
        <time>2021-05-30T07:41:47Z</time>
      </trkpt>
      <trkpt lat="45.664000371471047" lon="8.05476444773376">
        <ele>1587.29</ele>
        <time>2021-05-30T07:42:11Z</time>
      </trkpt>
      <trkpt lat="45.663979835808277" lon="8.054679622873664">
        <ele>1589.4400000000001</ele>
        <time>2021-05-30T07:42:27Z</time>
      </trkpt>
      <trkpt lat="45.663935160264373" lon="8.054668055847287">
        <ele>1590.77</ele>
        <time>2021-05-30T07:42:46Z</time>
      </trkpt>
      <trkpt lat="45.663900375366211" lon="8.054629834368825">
        <ele>1592.1099999999999</ele>
        <time>2021-05-30T07:43:05Z</time>
      </trkpt>
      <trkpt lat="45.663872798904777" lon="8.054557833820581">
        <ele>1594.6600000000001</ele>
        <time>2021-05-30T07:43:22Z</time>
      </trkpt>
      <trkpt lat="45.663837678730488" lon="8.054463788866997">
        <ele>1596.9200000000001</ele>
        <time>2021-05-30T07:43:40Z</time>
      </trkpt>
      <trkpt lat="45.663785375654697" lon="8.054459262639284">
        <ele>1599.3199999999999</ele>
        <time>2021-05-30T07:43:57Z</time>
      </trkpt>
      <trkpt lat="45.66374933347106" lon="8.054458172991872">
        <ele>1600.3</ele>
        <time>2021-05-30T07:44:14Z</time>
      </trkpt>
      <trkpt lat="45.663717985153198" lon="8.054439900442958">
        <ele>1601.99</ele>
        <time>2021-05-30T07:44:27Z</time>
      </trkpt>
      <trkpt lat="45.663696611300111" lon="8.054415006190538">
        <ele>1603.4200000000001</ele>
        <time>2021-05-30T07:44:44Z</time>
      </trkpt>
      <trkpt lat="45.663669956848025" lon="8.054384160786867">
        <ele>1605.3199999999999</ele>
        <time>2021-05-30T07:45:01Z</time>
      </trkpt>
      <trkpt lat="45.663650259375572" lon="8.054345268756151">
        <ele>1606.95</ele>
        <time>2021-05-30T07:45:20Z</time>
      </trkpt>
      <trkpt lat="45.663621257990599" lon="8.054328169673681">
        <ele>1608.95</ele>
        <time>2021-05-30T07:45:38Z</time>
      </trkpt>
      <trkpt lat="45.663607092574239" lon="8.05430905893445">
        <ele>1610.3800000000001</ele>
        <time>2021-05-30T07:45:54Z</time>
      </trkpt>
      <trkpt lat="45.663593010976911" lon="8.054276118054986">
        <ele>1612.29</ele>
        <time>2021-05-30T07:46:10Z</time>
      </trkpt>
      <trkpt lat="45.663565266877413" lon="8.054249295964837">
        <ele>1613.8599999999999</ele>
        <time>2021-05-30T07:46:27Z</time>
      </trkpt>
      <trkpt lat="45.663554621860385" lon="8.054146617650986">
        <ele>1615.73</ele>
        <time>2021-05-30T07:46:44Z</time>
      </trkpt>
      <trkpt lat="45.663512879982591" lon="8.05413706228137">
        <ele>1617.1500000000001</ele>
        <time>2021-05-30T07:46:59Z</time>
      </trkpt>
      <trkpt lat="45.66348840482533" lon="8.054072856903076">
        <ele>1619.28</ele>
        <time>2021-05-30T07:47:17Z</time>
      </trkpt>
      <trkpt lat="45.663466695696115" lon="8.0540163628757">
        <ele>1620.53</ele>
        <time>2021-05-30T07:47:33Z</time>
      </trkpt>
      <trkpt lat="45.663442388176918" lon="8.053973782807589">
        <ele>1620.25</ele>
        <time>2021-05-30T07:47:47Z</time>
      </trkpt>
      <trkpt lat="45.663442388176918" lon="8.053972190245986">
        <ele>1620.23</ele>
        <time>2021-05-30T07:48:29Z</time>
      </trkpt>
      <trkpt lat="45.663447668775916" lon="8.053970765322447">
        <ele>1621.8199999999999</ele>
        <time>2021-05-30T07:49:12Z</time>
      </trkpt>
      <trkpt lat="45.663443645462394" lon="8.053962383419275">
        <ele>1619.79</ele>
        <time>2021-05-30T07:49:27Z</time>
      </trkpt>
      <trkpt lat="45.663444651290774" lon="8.05396162904799">
        <ele>1619.6700000000001</ele>
        <time>2021-05-30T07:50:17Z</time>
      </trkpt>
      <trkpt lat="45.663453787565231" lon="8.05395525880158">
        <ele>1620.6800000000001</ele>
        <time>2021-05-30T07:50:33Z</time>
      </trkpt>
      <trkpt lat="45.663459235802293" lon="8.053964730352163">
        <ele>1620.71</ele>
        <time>2021-05-30T07:50:54Z</time>
      </trkpt>
      <trkpt lat="45.663453619927168" lon="8.053951235488057">
        <ele>1620.5599999999999</ele>
        <time>2021-05-30T07:51:14Z</time>
      </trkpt>
      <trkpt lat="45.663449512794614" lon="8.053942937403917">
        <ele>1621.29</ele>
        <time>2021-05-30T07:51:33Z</time>
      </trkpt>
      <trkpt lat="45.663447501137853" lon="8.053938746452332">
        <ele>1621.03</ele>
        <time>2021-05-30T07:51:51Z</time>
      </trkpt>
      <trkpt lat="45.663450434803963" lon="8.053938494995236">
        <ele>1620.9400000000001</ele>
        <time>2021-05-30T07:52:07Z</time>
      </trkpt>
      <trkpt lat="45.663445657119155" lon="8.053880073130131">
        <ele>1620.05</ele>
        <time>2021-05-30T07:52:14Z</time>
      </trkpt>
      <trkpt lat="45.663364520296454" lon="8.053779657930136">
        <ele>1622.0699999999999</ele>
        <time>2021-05-30T07:52:34Z</time>
      </trkpt>
      <trkpt lat="45.663350438699126" lon="8.053698353469372">
        <ele>1624.1400000000001</ele>
        <time>2021-05-30T07:52:51Z</time>
      </trkpt>
      <trkpt lat="45.663314228877425" lon="8.053640266880393">
        <ele>1626.51</ele>
        <time>2021-05-30T07:53:07Z</time>
      </trkpt>
      <trkpt lat="45.663271900266409" lon="8.053568685427308">
        <ele>1628.9400000000001</ele>
        <time>2021-05-30T07:53:24Z</time>
      </trkpt>
      <trkpt lat="45.663241809234023" lon="8.053409093990922">
        <ele>1629.8</ele>
        <time>2021-05-30T07:53:40Z</time>
      </trkpt>
      <trkpt lat="45.663195205852389" lon="8.053281605243683">
        <ele>1628.0799999999999</ele>
        <time>2021-05-30T07:53:54Z</time>
      </trkpt>
      <trkpt lat="45.663108201697469" lon="8.053028807044029">
        <ele>1627.2</ele>
        <time>2021-05-30T07:54:14Z</time>
      </trkpt>
      <trkpt lat="45.663095628842711" lon="8.052930906414986">
        <ele>1627.24</ele>
        <time>2021-05-30T07:54:22Z</time>
      </trkpt>
      <trkpt lat="45.663103507831693" lon="8.05270291864872">
        <ele>1623.8399999999999</ele>
        <time>2021-05-30T07:54:39Z</time>
      </trkpt>
      <trkpt lat="45.663085989654064" lon="8.052555564790964">
        <ele>1622.79</ele>
        <time>2021-05-30T07:54:56Z</time>
      </trkpt>
      <trkpt lat="45.663121193647385" lon="8.052465291693807">
        <ele>1623.04</ele>
        <time>2021-05-30T07:55:05Z</time>
      </trkpt>
      <trkpt lat="45.66312194801867" lon="8.052358841523528">
        <ele>1622.6099999999999</ele>
        <time>2021-05-30T07:55:19Z</time>
      </trkpt>
      <trkpt lat="45.663144243881106" lon="8.052255995571613">
        <ele>1622.0699999999999</ele>
        <time>2021-05-30T07:55:30Z</time>
      </trkpt>
      <trkpt lat="45.663160337135196" lon="8.052206542342901">
        <ele>1622.3499999999999</ele>
        <time>2021-05-30T07:55:42Z</time>
      </trkpt>
      <trkpt lat="45.663162851706147" lon="8.052186006680131">
        <ele>1622.3299999999999</ele>
        <time>2021-05-30T07:55:52Z</time>
      </trkpt>
      <trkpt lat="45.663182716816664" lon="8.052071006968617">
        <ele>1622.03</ele>
        <time>2021-05-30T07:56:02Z</time>
      </trkpt>
      <trkpt lat="45.663193529471755" lon="8.051886018365622">
        <ele>1624.98</ele>
        <time>2021-05-30T07:56:17Z</time>
      </trkpt>
      <trkpt lat="45.663203839212656" lon="8.051773952320218">
        <ele>1628.04</ele>
        <time>2021-05-30T07:56:31Z</time>
      </trkpt>
      <trkpt lat="45.663203001022339" lon="8.051700694486499">
        <ele>1629.6300000000001</ele>
        <time>2021-05-30T07:56:46Z</time>
      </trkpt>
      <trkpt lat="45.663223452866077" lon="8.051619222387672">
        <ele>1632.5799999999999</ele>
        <time>2021-05-30T07:57:03Z</time>
      </trkpt>
      <trkpt lat="45.663206605240703" lon="8.051518304273486">
        <ele>1634.98</ele>
        <time>2021-05-30T07:57:21Z</time>
      </trkpt>
      <trkpt lat="45.663213981315494" lon="8.051443789154291">
        <ele>1637.2</ele>
        <time>2021-05-30T07:57:38Z</time>
      </trkpt>
      <trkpt lat="45.663216328248382" lon="8.051391569897533">
        <ele>1638.3599999999999</ele>
        <time>2021-05-30T07:57:53Z</time>
      </trkpt>
      <trkpt lat="45.663234684616327" lon="8.051331220194697">
        <ele>1638.9200000000001</ele>
        <time>2021-05-30T07:58:09Z</time>
      </trkpt>
      <trkpt lat="45.66323870792985" lon="8.051286544650793">
        <ele>1641.6300000000001</ele>
        <time>2021-05-30T07:58:25Z</time>
      </trkpt>
      <trkpt lat="45.663253040984273" lon="8.051195684820414">
        <ele>1644.8800000000001</ele>
        <time>2021-05-30T07:58:36Z</time>
      </trkpt>
      <trkpt lat="45.663255304098129" lon="8.051094179973006">
        <ele>1647.3900000000001</ele>
        <time>2021-05-30T07:58:53Z</time>
      </trkpt>
      <trkpt lat="45.663275420665741" lon="8.051020754501224">
        <ele>1649.76</ele>
        <time>2021-05-30T07:59:12Z</time>
      </trkpt>
      <trkpt lat="45.663300566375256" lon="8.050981191918254">
        <ele>1650.77</ele>
        <time>2021-05-30T07:59:28Z</time>
      </trkpt>
      <trkpt lat="45.663287993520498" lon="8.050877843052149">
        <ele>1653.3900000000001</ele>
        <time>2021-05-30T07:59:45Z</time>
      </trkpt>
      <trkpt lat="45.66329880617559" lon="8.050809865817428">
        <ele>1655.4200000000001</ele>
        <time>2021-05-30T08:00:02Z</time>
      </trkpt>
      <trkpt lat="45.663325544446707" lon="8.050761250779033">
        <ele>1657.78</ele>
        <time>2021-05-30T08:00:18Z</time>
      </trkpt>
      <trkpt lat="45.663326382637024" lon="8.050711546093226">
        <ele>1659.6700000000001</ele>
        <time>2021-05-30T08:00:35Z</time>
      </trkpt>
      <trkpt lat="45.663337195292115" lon="8.050692938268185">
        <ele>1661.0699999999999</ele>
        <time>2021-05-30T08:00:48Z</time>
      </trkpt>
      <trkpt lat="45.663350773975253" lon="8.050639713183045">
        <ele>1663.22</ele>
        <time>2021-05-30T08:01:05Z</time>
      </trkpt>
      <trkpt lat="45.66339947283268" lon="8.050566120073199">
        <ele>1665.75</ele>
        <time>2021-05-30T08:01:23Z</time>
      </trkpt>
      <trkpt lat="45.663376422598958" lon="8.050512308254838">
        <ele>1667.96</ele>
        <time>2021-05-30T08:01:39Z</time>
      </trkpt>
      <trkpt lat="45.663361083716154" lon="8.050444833934307">
        <ele>1671.2</ele>
        <time>2021-05-30T08:01:54Z</time>
      </trkpt>
      <trkpt lat="45.663388576358557" lon="8.050366630777717">
        <ele>1673.02</ele>
        <time>2021-05-30T08:02:10Z</time>
      </trkpt>
      <trkpt lat="45.663396874442697" lon="8.050291696563363">
        <ele>1674.5999999999999</ele>
        <time>2021-05-30T08:02:24Z</time>
      </trkpt>
      <trkpt lat="45.663422606885433" lon="8.05013470351696">
        <ele>1674.8699999999999</ele>
        <time>2021-05-30T08:02:40Z</time>
      </trkpt>
      <trkpt lat="45.663441801443696" lon="8.049991121515632">
        <ele>1674.8699999999999</ele>
        <time>2021-05-30T08:02:53Z</time>
      </trkpt>
      <trkpt lat="45.663456050679088" lon="8.049736563116312">
        <ele>1677.3</ele>
        <time>2021-05-30T08:03:13Z</time>
      </trkpt>
      <trkpt lat="45.663436520844698" lon="8.049570014700294">
        <ele>1678.0699999999999</ele>
        <time>2021-05-30T08:03:31Z</time>
      </trkpt>
      <trkpt lat="45.663421768695116" lon="8.049435149878264">
        <ele>1678.8199999999999</ele>
        <time>2021-05-30T08:03:47Z</time>
      </trkpt>
      <trkpt lat="45.66341120749712" lon="8.049232643097639">
        <ele>1680.3099999999999</ele>
        <time>2021-05-30T08:04:05Z</time>
      </trkpt>
      <trkpt lat="45.663403999060392" lon="8.049180675297976">
        <ele>1681.22</ele>
        <time>2021-05-30T08:04:21Z</time>
      </trkpt>
      <trkpt lat="45.663396036252379" lon="8.049084199592471">
        <ele>1682.4300000000001</ele>
        <time>2021-05-30T08:04:51Z</time>
      </trkpt>
      <trkpt lat="45.663376757875085" lon="8.048948999494314">
        <ele>1685.75</ele>
        <time>2021-05-30T08:05:09Z</time>
      </trkpt>
      <trkpt lat="45.663404669612646" lon="8.048804411664605">
        <ele>1687.6099999999999</ele>
        <time>2021-05-30T08:05:28Z</time>
      </trkpt>
      <trkpt lat="45.663426127284765" lon="8.048712126910687">
        <ele>1688.6900000000001</ele>
        <time>2021-05-30T08:05:44Z</time>
      </trkpt>
      <trkpt lat="45.663417158648372" lon="8.048662254586816">
        <ele>1690.0599999999999</ele>
        <time>2021-05-30T08:06:00Z</time>
      </trkpt>
      <trkpt lat="45.663421601057053" lon="8.048589499667287">
        <ele>1691.52</ele>
        <time>2021-05-30T08:06:15Z</time>
      </trkpt>
      <trkpt lat="45.663422774523497" lon="8.048580950126052">
        <ele>1691.4200000000001</ele>
        <time>2021-05-30T08:06:31Z</time>
      </trkpt>
      <trkpt lat="45.663420092314482" lon="8.048531245440245">
        <ele>1692.71</ele>
        <time>2021-05-30T08:06:54Z</time>
      </trkpt>
      <trkpt lat="45.663430234417319" lon="8.048452455550432">
        <ele>1695.1300000000001</ele>
        <time>2021-05-30T08:07:03Z</time>
      </trkpt>
      <trkpt lat="45.663411291316152" lon="8.048364026471973">
        <ele>1698.0599999999999</ele>
        <time>2021-05-30T08:07:16Z</time>
      </trkpt>
      <trkpt lat="45.66339653916657" lon="8.048370983451605">
        <ele>1698.54</ele>
        <time>2021-05-30T08:07:31Z</time>
      </trkpt>
      <trkpt lat="45.663419673219323" lon="8.048266125842929">
        <ele>1699.3800000000001</ele>
        <time>2021-05-30T08:07:47Z</time>
      </trkpt>
      <trkpt lat="45.663424534723163" lon="8.048242069780827">
        <ele>1700.23</ele>
        <time>2021-05-30T08:07:49Z</time>
      </trkpt>
      <trkpt lat="45.663456721231341" lon="8.048225222155452">
        <ele>1700.6300000000001</ele>
        <time>2021-05-30T08:08:01Z</time>
      </trkpt>
      <trkpt lat="45.663463762030005" lon="8.04823980666697">
        <ele>1700.5599999999999</ele>
        <time>2021-05-30T08:08:25Z</time>
      </trkpt>
      <trkpt lat="45.663464851677418" lon="8.048244751989842">
        <ele>1700.3699999999999</ele>
        <time>2021-05-30T08:08:51Z</time>
      </trkpt>
      <trkpt lat="45.66346937790513" lon="8.048250116407871">
        <ele>1700.45</ele>
        <time>2021-05-30T08:09:10Z</time>
      </trkpt>
      <trkpt lat="45.663495445623994" lon="8.048269310966134">
        <ele>1700</ele>
        <time>2021-05-30T08:09:23Z</time>
      </trkpt>
      <trkpt lat="45.663489662110806" lon="8.048246596008539">
        <ele>1699.6900000000001</ele>
        <time>2021-05-30T08:09:48Z</time>
      </trkpt>
      <trkpt lat="45.663488237187266" lon="8.048270735889673">
        <ele>1699.5</ele>
        <time>2021-05-30T08:10:09Z</time>
      </trkpt>
      <trkpt lat="45.663491506129503" lon="8.0482745077461">
        <ele>1699.3900000000001</ele>
        <time>2021-05-30T08:10:39Z</time>
      </trkpt>
      <trkpt lat="45.663486896082759" lon="8.048282386735082">
        <ele>1699.5799999999999</ele>
        <time>2021-05-30T08:11:18Z</time>
      </trkpt>
      <trkpt lat="45.663484800606966" lon="8.048289511352778">
        <ele>1699.5699999999999</ele>
        <time>2021-05-30T08:11:53Z</time>
      </trkpt>
      <trkpt lat="45.663482286036015" lon="8.048283979296684">
        <ele>1699.9100000000001</ele>
        <time>2021-05-30T08:12:02Z</time>
      </trkpt>
      <trkpt lat="45.66349184140563" lon="8.048276770859957">
        <ele>1699.5799999999999</ele>
        <time>2021-05-30T08:12:04Z</time>
      </trkpt>
      <trkpt lat="45.663470383733511" lon="8.048305688425899">
        <ele>1699.8399999999999</ele>
        <time>2021-05-30T08:12:11Z</time>
      </trkpt>
      <trkpt lat="45.663445238023996" lon="8.048200160264969">
        <ele>1699.8</ele>
        <time>2021-05-30T08:12:25Z</time>
      </trkpt>
      <trkpt lat="45.663483627140522" lon="8.048073090612888">
        <ele>1699.6400000000001</ele>
        <time>2021-05-30T08:12:41Z</time>
      </trkpt>
      <trkpt lat="45.663509862497449" lon="8.047971921041608">
        <ele>1698.5699999999999</ele>
        <time>2021-05-30T08:12:57Z</time>
      </trkpt>
      <trkpt lat="45.663521345704794" lon="8.04794367402792">
        <ele>1698.6500000000001</ele>
        <time>2021-05-30T08:13:09Z</time>
      </trkpt>
      <trkpt lat="45.663568368181586" lon="8.047786597162485">
        <ele>1700.1099999999999</ele>
        <time>2021-05-30T08:13:27Z</time>
      </trkpt>
      <trkpt lat="45.663629556074739" lon="8.047668160870671">
        <ele>1701.8499999999999</ele>
        <time>2021-05-30T08:13:43Z</time>
      </trkpt>
      <trkpt lat="45.663674399256706" lon="8.047633292153478">
        <ele>1701.71</ele>
        <time>2021-05-30T08:13:57Z</time>
      </trkpt>
      <trkpt lat="45.663750423118472" lon="8.047573864459992">
        <ele>1701.1800000000001</ele>
        <time>2021-05-30T08:14:13Z</time>
      </trkpt>
      <trkpt lat="45.66382359713316" lon="8.047455847263336">
        <ele>1701.3299999999999</ele>
        <time>2021-05-30T08:14:32Z</time>
      </trkpt>
      <trkpt lat="45.663846312090755" lon="8.047452662140131">
        <ele>1700.47</ele>
        <time>2021-05-30T08:14:49Z</time>
      </trkpt>
      <trkpt lat="45.663885120302439" lon="8.047423828393221">
        <ele>1699.76</ele>
        <time>2021-05-30T08:15:03Z</time>
      </trkpt>
      <trkpt lat="45.66392820328474" lon="8.047391306608915">
        <ele>1698.1900000000001</ele>
        <time>2021-05-30T08:15:19Z</time>
      </trkpt>
      <trkpt lat="45.663981679826975" lon="8.047376638278365">
        <ele>1696.24</ele>
        <time>2021-05-30T08:15:36Z</time>
      </trkpt>
      <trkpt lat="45.664058709517121" lon="8.047367837280035">
        <ele>1693.9000000000001</ele>
        <time>2021-05-30T08:15:52Z</time>
      </trkpt>
      <trkpt lat="45.664121489971876" lon="8.047324251383543">
        <ele>1690.8599999999999</ele>
        <time>2021-05-30T08:16:11Z</time>
      </trkpt>
      <trkpt lat="45.664181001484394" lon="8.047344870865345">
        <ele>1688.9300000000001</ele>
        <time>2021-05-30T08:16:26Z</time>
      </trkpt>
      <trkpt lat="45.664233220741153" lon="8.047279408201575">
        <ele>1686.7</ele>
        <time>2021-05-30T08:16:43Z</time>
      </trkpt>
      <trkpt lat="45.664297258481383" lon="8.047211011871696">
        <ele>1683.74</ele>
        <time>2021-05-30T08:16:59Z</time>
      </trkpt>
      <trkpt lat="45.664358614012599" lon="8.047167677432299">
        <ele>1682.5899999999999</ele>
        <time>2021-05-30T08:17:09Z</time>
      </trkpt>
      <trkpt lat="45.664503537118435" lon="8.047042703256011">
        <ele>1682.23</ele>
        <time>2021-05-30T08:17:30Z</time>
      </trkpt>
      <trkpt lat="45.664563216269016" lon="8.04690389893949">
        <ele>1683.52</ele>
        <time>2021-05-30T08:17:50Z</time>
      </trkpt>
      <trkpt lat="45.664584171026945" lon="8.046827623620629">
        <ele>1682.03</ele>
        <time>2021-05-30T08:18:06Z</time>
      </trkpt>
      <trkpt lat="45.664632199332118" lon="8.046764424070716">
        <ele>1679.48</ele>
        <time>2021-05-30T08:18:20Z</time>
      </trkpt>
      <trkpt lat="45.664723059162498" lon="8.046651016920805">
        <ele>1678.8299999999999</ele>
        <time>2021-05-30T08:18:36Z</time>
      </trkpt>
      <trkpt lat="45.664766561239958" lon="8.046575831249356">
        <ele>1680.0999999999999</ele>
        <time>2021-05-30T08:18:45Z</time>
      </trkpt>
      <trkpt lat="45.664881393313408" lon="8.046433255076408">
        <ele>1679.3</ele>
        <time>2021-05-30T08:19:02Z</time>
      </trkpt>
      <trkpt lat="45.664943838492036" lon="8.046400230377913">
        <ele>1678.2</ele>
        <time>2021-05-30T08:19:17Z</time>
      </trkpt>
      <trkpt lat="45.665041739121079" lon="8.046357901766896">
        <ele>1676.3</ele>
        <time>2021-05-30T08:19:33Z</time>
      </trkpt>
      <trkpt lat="45.66513754427433" lon="8.046258743852377">
        <ele>1674.27</ele>
        <time>2021-05-30T08:19:50Z</time>
      </trkpt>
      <trkpt lat="45.665257573127747" lon="8.046124717220664">
        <ele>1672.9100000000001</ele>
        <time>2021-05-30T08:20:08Z</time>
      </trkpt>
      <trkpt lat="45.665376679971814" lon="8.046030169352889">
        <ele>1669.73</ele>
        <time>2021-05-30T08:20:28Z</time>
      </trkpt>
      <trkpt lat="45.66547617316246" lon="8.045959174633026">
        <ele>1667.1199999999999</ele>
        <time>2021-05-30T08:20:47Z</time>
      </trkpt>
      <trkpt lat="45.66556946374476" lon="8.045880552381277">
        <ele>1664.96</ele>
        <time>2021-05-30T08:21:04Z</time>
      </trkpt>
      <trkpt lat="45.665662754327059" lon="8.045790866017342">
        <ele>1664.3099999999999</ele>
        <time>2021-05-30T08:21:21Z</time>
      </trkpt>
      <trkpt lat="45.665726289153099" lon="8.045753231272101">
        <ele>1663.8199999999999</ele>
        <time>2021-05-30T08:21:36Z</time>
      </trkpt>
      <trkpt lat="45.665780184790492" lon="8.045686678960919">
        <ele>1661.28</ele>
        <time>2021-05-30T08:21:51Z</time>
      </trkpt>
      <trkpt lat="45.665822261944413" lon="8.045599088072777">
        <ele>1658.8800000000001</ele>
        <time>2021-05-30T08:22:07Z</time>
      </trkpt>
      <trkpt lat="45.66585729829967" lon="8.045496074482799">
        <ele>1657.3399999999999</ele>
        <time>2021-05-30T08:22:23Z</time>
      </trkpt>
      <trkpt lat="45.665904572233558" lon="8.04542331956327">
        <ele>1655.9100000000001</ele>
        <time>2021-05-30T08:22:37Z</time>
      </trkpt>
      <trkpt lat="45.665944050997496" lon="8.045336231589317">
        <ele>1654.1199999999999</ele>
        <time>2021-05-30T08:22:51Z</time>
      </trkpt>
      <trkpt lat="45.665981266647577" lon="8.045206563547254">
        <ele>1651.4000000000001</ele>
        <time>2021-05-30T08:23:07Z</time>
      </trkpt>
      <trkpt lat="45.666007837280631" lon="8.045083684846759">
        <ele>1649.5699999999999</ele>
        <time>2021-05-30T08:23:19Z</time>
      </trkpt>
      <trkpt lat="45.666044633835554" lon="8.044956028461456">
        <ele>1650.21</ele>
        <time>2021-05-30T08:23:34Z</time>
      </trkpt>
      <trkpt lat="45.666070785373449" lon="8.044909089803696">
        <ele>1650.4200000000001</ele>
        <time>2021-05-30T08:23:39Z</time>
      </trkpt>
      <trkpt lat="45.666135158389807" lon="8.044700967147946">
        <ele>1648.9000000000001</ele>
        <time>2021-05-30T08:23:57Z</time>
      </trkpt>
      <trkpt lat="45.66615435294807" lon="8.044660231098533">
        <ele>1648.78</ele>
        <time>2021-05-30T08:24:02Z</time>
      </trkpt>
      <trkpt lat="45.666218642145395" lon="8.044515307992697">
        <ele>1647.48</ele>
        <time>2021-05-30T08:24:17Z</time>
      </trkpt>
      <trkpt lat="45.666308328509331" lon="8.044388573616743">
        <ele>1646.5999999999999</ele>
        <time>2021-05-30T08:24:34Z</time>
      </trkpt>
      <trkpt lat="45.666338000446558" lon="8.044345825910568">
        <ele>1646.29</ele>
        <time>2021-05-30T08:24:39Z</time>
      </trkpt>
      <trkpt lat="45.666442019864917" lon="8.044222360476852">
        <ele>1645.3800000000001</ele>
        <time>2021-05-30T08:24:57Z</time>
      </trkpt>
      <trkpt lat="45.666485354304314" lon="8.044132674112916">
        <ele>1644.8399999999999</ele>
        <time>2021-05-30T08:25:07Z</time>
      </trkpt>
      <trkpt lat="45.666550481691957" lon="8.043981045484543">
        <ele>1643.96</ele>
        <time>2021-05-30T08:25:23Z</time>
      </trkpt>
      <trkpt lat="45.666607562452555" lon="8.043825393542647">
        <ele>1645.5999999999999</ele>
        <time>2021-05-30T08:25:40Z</time>
      </trkpt>
      <trkpt lat="45.666659697890282" lon="8.043764708563685">
        <ele>1647.25</ele>
        <time>2021-05-30T08:25:56Z</time>
      </trkpt>
      <trkpt lat="45.666676796972752" lon="8.043725648894906">
        <ele>1646.3</ele>
        <time>2021-05-30T08:26:05Z</time>
      </trkpt>
      <trkpt lat="45.666701523587108" lon="8.043707376345992">
        <ele>1645.6900000000001</ele>
        <time>2021-05-30T08:26:08Z</time>
      </trkpt>
      <trkpt lat="45.66680277697742" lon="8.043527752161026">
        <ele>1646.49</ele>
        <time>2021-05-30T08:26:26Z</time>
      </trkpt>
      <trkpt lat="45.666842088103294" lon="8.043443514034152">
        <ele>1646.5899999999999</ele>
        <time>2021-05-30T08:26:37Z</time>
      </trkpt>
      <trkpt lat="45.666914507746696" lon="8.043314768001437">
        <ele>1645.1099999999999</ele>
        <time>2021-05-30T08:26:53Z</time>
      </trkpt>
      <trkpt lat="45.666971588507295" lon="8.043195828795433">
        <ele>1644.3699999999999</ele>
        <time>2021-05-30T08:27:09Z</time>
      </trkpt>
      <trkpt lat="45.667020790278912" lon="8.043106058612466">
        <ele>1642.7</ele>
        <time>2021-05-30T08:27:22Z</time>
      </trkpt>
      <trkpt lat="45.667131850495934" lon="8.04294059984386">
        <ele>1640.8</ele>
        <time>2021-05-30T08:27:39Z</time>
      </trkpt>
      <trkpt lat="45.667212568223476" lon="8.042836664244533">
        <ele>1639.24</ele>
        <time>2021-05-30T08:27:56Z</time>
      </trkpt>
      <trkpt lat="45.667223632335663" lon="8.042820319533348">
        <ele>1638.96</ele>
        <time>2021-05-30T08:27:58Z</time>
      </trkpt>
      <trkpt lat="45.66734466701746" lon="8.042686125263572">
        <ele>1637.48</ele>
        <time>2021-05-30T08:28:17Z</time>
      </trkpt>
      <trkpt lat="45.667410464957356" lon="8.042529551312327">
        <ele>1636.28</ele>
        <time>2021-05-30T08:28:34Z</time>
      </trkpt>
      <trkpt lat="45.667419265955687" lon="8.04251060821116">
        <ele>1635.6800000000001</ele>
        <time>2021-05-30T08:28:48Z</time>
      </trkpt>
      <trkpt lat="45.667473413050175" lon="8.042459059506655">
        <ele>1636.4400000000001</ele>
        <time>2021-05-30T08:29:02Z</time>
      </trkpt>
      <trkpt lat="45.667507275938988" lon="8.042449336498976">
        <ele>1634.6099999999999</ele>
        <time>2021-05-30T08:29:21Z</time>
      </trkpt>
      <trkpt lat="45.667506940662861" lon="8.042452689260244">
        <ele>1635.3199999999999</ele>
        <time>2021-05-30T08:29:35Z</time>
      </trkpt>
      <trkpt lat="45.667459247633815" lon="8.042341880500317">
        <ele>1636.6300000000001</ele>
        <time>2021-05-30T08:29:49Z</time>
      </trkpt>
      <trkpt lat="45.667452290654182" lon="8.042350094765425">
        <ele>1636.74</ele>
        <time>2021-05-30T08:30:07Z</time>
      </trkpt>
      <trkpt lat="45.66747173666954" lon="8.042296115309">
        <ele>1636.52</ele>
        <time>2021-05-30T08:30:14Z</time>
      </trkpt>
      <trkpt lat="45.667556561529636" lon="8.042042395099998">
        <ele>1634.21</ele>
        <time>2021-05-30T08:30:34Z</time>
      </trkpt>
      <trkpt lat="45.667572738602757" lon="8.042023368179798">
        <ele>1634.47</ele>
        <time>2021-05-30T08:30:37Z</time>
      </trkpt>
      <trkpt lat="45.667598135769367" lon="8.041968299075961">
        <ele>1633.5999999999999</ele>
        <time>2021-05-30T08:30:42Z</time>
      </trkpt>
      <trkpt lat="45.667616743594408" lon="8.04186025634408">
        <ele>1632.6800000000001</ele>
        <time>2021-05-30T08:30:50Z</time>
      </trkpt>
      <trkpt lat="45.667645996436477" lon="8.041654229164124">
        <ele>1631.5699999999999</ele>
        <time>2021-05-30T08:31:07Z</time>
      </trkpt>
      <trkpt lat="45.667659323662519" lon="8.04155976511538">
        <ele>1631.0799999999999</ele>
        <time>2021-05-30T08:31:17Z</time>
      </trkpt>
      <trkpt lat="45.66766619682312" lon="8.041410148143768">
        <ele>1630.49</ele>
        <time>2021-05-30T08:31:33Z</time>
      </trkpt>
      <trkpt lat="45.667696036398411" lon="8.04128467105329">
        <ele>1631.49</ele>
        <time>2021-05-30T08:31:48Z</time>
      </trkpt>
      <trkpt lat="45.667727971449494" lon="8.041115524247289">
        <ele>1631.3900000000001</ele>
        <time>2021-05-30T08:32:05Z</time>
      </trkpt>
      <trkpt lat="45.667731827124953" lon="8.041077386587858">
        <ele>1631.0599999999999</ele>
        <time>2021-05-30T08:32:08Z</time>
      </trkpt>
      <trkpt lat="45.66776686348021" lon="8.040787624195218">
        <ele>1629.9200000000001</ele>
        <time>2021-05-30T08:32:29Z</time>
      </trkpt>
      <trkpt lat="45.667815646156669" lon="8.040631972253323">
        <ele>1630.73</ele>
        <time>2021-05-30T08:32:46Z</time>
      </trkpt>
      <trkpt lat="45.667829811573029" lon="8.040436925366521">
        <ele>1631.52</ele>
        <time>2021-05-30T08:33:03Z</time>
      </trkpt>
      <trkpt lat="45.667843222618103" lon="8.040312035009265">
        <ele>1634.3299999999999</ele>
        <time>2021-05-30T08:33:19Z</time>
      </trkpt>
      <trkpt lat="45.667868116870522" lon="8.040217319503427">
        <ele>1637.23</ele>
        <time>2021-05-30T08:33:34Z</time>
      </trkpt>
      <trkpt lat="45.667875660583377" lon="8.040128806605935">
        <ele>1639.1600000000001</ele>
        <time>2021-05-30T08:33:48Z</time>
      </trkpt>
      <trkpt lat="45.667893597856164" lon="8.039983548223972">
        <ele>1641.0599999999999</ele>
        <time>2021-05-30T08:34:05Z</time>
      </trkpt>
      <trkpt lat="45.667899884283543" lon="8.039961587637663">
        <ele>1641.1800000000001</ele>
        <time>2021-05-30T08:34:28Z</time>
      </trkpt>
      <trkpt lat="45.667925532907248" lon="8.039861842989922">
        <ele>1642.1099999999999</ele>
        <time>2021-05-30T08:34:45Z</time>
      </trkpt>
      <trkpt lat="45.667943386361003" lon="8.039803588762879">
        <ele>1643.5899999999999</ele>
        <time>2021-05-30T08:34:52Z</time>
      </trkpt>
      <trkpt lat="45.667926790192723" lon="8.039672914892435">
        <ele>1646.97</ele>
        <time>2021-05-30T08:35:06Z</time>
      </trkpt>
      <trkpt lat="45.667930981144309" lon="8.039610553532839">
        <ele>1648.4200000000001</ele>
        <time>2021-05-30T08:35:20Z</time>
      </trkpt>
      <trkpt lat="45.667939446866512" lon="8.039592783898115">
        <ele>1649.03</ele>
        <time>2021-05-30T08:35:33Z</time>
      </trkpt>
      <trkpt lat="45.667972303926945" lon="8.039554646238685">
        <ele>1649.1199999999999</ele>
        <time>2021-05-30T08:35:52Z</time>
      </trkpt>
      <trkpt lat="45.667984709143639" lon="8.039517682045698">
        <ele>1648.8</ele>
        <time>2021-05-30T08:35:55Z</time>
      </trkpt>
      <trkpt lat="45.668048327788711" lon="8.039344679564238">
        <ele>1649.49</ele>
        <time>2021-05-30T08:36:13Z</time>
      </trkpt>
      <trkpt lat="45.668054781854153" lon="8.039259184151888">
        <ele>1650.8499999999999</ele>
        <time>2021-05-30T08:36:22Z</time>
      </trkpt>
      <trkpt lat="45.668072802945971" lon="8.039049385115504">
        <ele>1652.0999999999999</ele>
        <time>2021-05-30T08:36:41Z</time>
      </trkpt>
      <trkpt lat="45.668085208162665" lon="8.0389753729105">
        <ele>1653.1500000000001</ele>
        <time>2021-05-30T08:37:01Z</time>
      </trkpt>
      <trkpt lat="45.668121669441462" lon="8.038889626041055">
        <ele>1653.9200000000001</ele>
        <time>2021-05-30T08:37:16Z</time>
      </trkpt>
      <trkpt lat="45.668147569522262" lon="8.038764065131545">
        <ele>1656.97</ele>
        <time>2021-05-30T08:37:33Z</time>
      </trkpt>
      <trkpt lat="45.6681904848665" lon="8.038661302998662">
        <ele>1660.2</ele>
        <time>2021-05-30T08:37:50Z</time>
      </trkpt>
      <trkpt lat="45.668212529271841" lon="8.038557199761272">
        <ele>1663.3299999999999</ele>
        <time>2021-05-30T08:38:06Z</time>
      </trkpt>
      <trkpt lat="45.668230969458818" lon="8.03846231661737">
        <ele>1665.45</ele>
        <time>2021-05-30T08:38:23Z</time>
      </trkpt>
      <trkpt lat="45.668269777670503" lon="8.038334157317877">
        <ele>1667.9000000000001</ele>
        <time>2021-05-30T08:38:40Z</time>
      </trkpt>
      <trkpt lat="45.668280757963657" lon="8.038237011060119">
        <ele>1669.9200000000001</ele>
        <time>2021-05-30T08:38:54Z</time>
      </trkpt>
      <trkpt lat="45.668320320546627" lon="8.038131901994348">
        <ele>1672.01</ele>
        <time>2021-05-30T08:39:11Z</time>
      </trkpt>
      <trkpt lat="45.66837664693594" lon="8.038017153739929">
        <ele>1674.4400000000001</ele>
        <time>2021-05-30T08:39:28Z</time>
      </trkpt>
      <trkpt lat="45.668437499552965" lon="8.037852365523577">
        <ele>1675.3099999999999</ele>
        <time>2021-05-30T08:39:48Z</time>
      </trkpt>
      <trkpt lat="45.668492903932929" lon="8.037740550935268">
        <ele>1678.1400000000001</ele>
        <time>2021-05-30T08:40:07Z</time>
      </trkpt>
      <trkpt lat="45.668551241979003" lon="8.037642650306225">
        <ele>1680.47</ele>
        <time>2021-05-30T08:40:25Z</time>
      </trkpt>
      <trkpt lat="45.668605891987681" lon="8.037535697221756">
        <ele>1682.1900000000001</ele>
        <time>2021-05-30T08:40:42Z</time>
      </trkpt>
      <trkpt lat="45.668628355488181" lon="8.037429247051477">
        <ele>1680.1500000000001</ele>
        <time>2021-05-30T08:40:59Z</time>
      </trkpt>
      <trkpt lat="45.668643694370985" lon="8.037388594821096">
        <ele>1679.1099999999999</ele>
        <time>2021-05-30T08:41:04Z</time>
      </trkpt>
      <trkpt lat="45.668699601665139" lon="8.037216430529952">
        <ele>1678.74</ele>
        <time>2021-05-30T08:41:21Z</time>
      </trkpt>
      <trkpt lat="45.668747127056122" lon="8.03706387989223">
        <ele>1679.0699999999999</ele>
        <time>2021-05-30T08:41:37Z</time>
      </trkpt>
      <trkpt lat="45.668776798993349" lon="8.036964470520616">
        <ele>1681.03</ele>
        <time>2021-05-30T08:41:51Z</time>
      </trkpt>
      <trkpt lat="45.668831197544932" lon="8.036887105554342">
        <ele>1682.1900000000001</ele>
        <time>2021-05-30T08:42:06Z</time>
      </trkpt>
      <trkpt lat="45.668825497850776" lon="8.03685374557972">
        <ele>1682.77</ele>
        <time>2021-05-30T08:42:21Z</time>
      </trkpt>
      <trkpt lat="45.668830191716552" lon="8.036836059764028">
        <ele>1683.1500000000001</ele>
        <time>2021-05-30T08:42:36Z</time>
      </trkpt>
      <trkpt lat="45.66883941181004" lon="8.036812674254179">
        <ele>1682.9400000000001</ele>
        <time>2021-05-30T08:42:49Z</time>
      </trkpt>
      <trkpt lat="45.668845782056451" lon="8.036791048943996">
        <ele>1682.46</ele>
        <time>2021-05-30T08:42:51Z</time>
      </trkpt>
      <trkpt lat="45.668944856151938" lon="8.036647969856858">
        <ele>1679.9000000000001</ele>
        <time>2021-05-30T08:43:11Z</time>
      </trkpt>
      <trkpt lat="45.668959859758615" lon="8.036640929058194">
        <ele>1679.97</ele>
        <time>2021-05-30T08:43:30Z</time>
      </trkpt>
      <trkpt lat="45.66895910538733" lon="8.036621147766709">
        <ele>1679.28</ele>
        <time>2021-05-30T08:44:00Z</time>
      </trkpt>
      <trkpt lat="45.669008726254106" lon="8.036477314308286">
        <ele>1677.26</ele>
        <time>2021-05-30T08:44:13Z</time>
      </trkpt>
      <trkpt lat="45.669085001572967" lon="8.036338677629829">
        <ele>1674.27</ele>
        <time>2021-05-30T08:44:29Z</time>
      </trkpt>
      <trkpt lat="45.669130347669125" lon="8.036200040951371">
        <ele>1671.9000000000001</ele>
        <time>2021-05-30T08:44:43Z</time>
      </trkpt>
      <trkpt lat="45.669178711250424" lon="8.036158382892609">
        <ele>1670.8099999999999</ele>
        <time>2021-05-30T08:44:56Z</time>
      </trkpt>
      <trkpt lat="45.669257501140237" lon="8.036015806719661">
        <ele>1667.51</ele>
        <time>2021-05-30T08:45:14Z</time>
      </trkpt>
      <trkpt lat="45.669260518625379" lon="8.035991666838527">
        <ele>1666.98</ele>
        <time>2021-05-30T08:45:16Z</time>
      </trkpt>
      <trkpt lat="45.669356994330883" lon="8.035825872793794">
        <ele>1664.5799999999999</ele>
        <time>2021-05-30T08:45:33Z</time>
      </trkpt>
      <trkpt lat="45.669410135596991" lon="8.03577147424221">
        <ele>1663.0899999999999</ele>
        <time>2021-05-30T08:45:42Z</time>
      </trkpt>
      <trkpt lat="45.669484734535217" lon="8.035685224458575">
        <ele>1659.77</ele>
        <time>2021-05-30T08:45:57Z</time>
      </trkpt>
      <trkpt lat="45.669522369280457" lon="8.035614565014839">
        <ele>1658.79</ele>
        <time>2021-05-30T08:46:09Z</time>
      </trkpt>
      <trkpt lat="45.669640218839049" lon="8.03535221144557">
        <ele>1656.8699999999999</ele>
        <time>2021-05-30T08:46:28Z</time>
      </trkpt>
      <trkpt lat="45.669646337628365" lon="8.035338716581464">
        <ele>1656.77</ele>
        <time>2021-05-30T08:46:29Z</time>
      </trkpt>
      <trkpt lat="45.66972722299397" lon="8.03521734662354">
        <ele>1656.46</ele>
        <time>2021-05-30T08:46:44Z</time>
      </trkpt>
      <trkpt lat="45.669728312641382" lon="8.035207875072956">
        <ele>1657.01</ele>
        <time>2021-05-30T08:47:01Z</time>
      </trkpt>
      <trkpt lat="45.669738203287125" lon="8.035204103216529">
        <ele>1656.8399999999999</ele>
        <time>2021-05-30T08:47:20Z</time>
      </trkpt>
      <trkpt lat="45.66974532790482" lon="8.035210222005844">
        <ele>1657.0599999999999</ele>
        <time>2021-05-30T08:47:41Z</time>
      </trkpt>
      <trkpt lat="45.669748429208994" lon="8.0352090485394">
        <ele>1655.98</ele>
        <time>2021-05-30T08:48:01Z</time>
      </trkpt>
      <trkpt lat="45.669751279056072" lon="8.035207120701671">
        <ele>1657.74</ele>
        <time>2021-05-30T08:48:18Z</time>
      </trkpt>
      <trkpt lat="45.669751362875104" lon="8.035207036882639">
        <ele>1656.97</ele>
        <time>2021-05-30T08:48:20Z</time>
      </trkpt>
      <trkpt lat="45.66975069232285" lon="8.035205192863941">
        <ele>1657.0799999999999</ele>
        <time>2021-05-30T08:48:47Z</time>
      </trkpt>
      <trkpt lat="45.66975018940866" lon="8.035203432664275">
        <ele>1657.0799999999999</ele>
        <time>2021-05-30T08:49:07Z</time>
      </trkpt>
      <trkpt lat="45.66975655965507" lon="8.035205444321036">
        <ele>1657.05</ele>
        <time>2021-05-30T08:49:32Z</time>
      </trkpt>
      <trkpt lat="45.669797547161579" lon="8.035185914486647">
        <ele>1657.02</ele>
        <time>2021-05-30T08:49:51Z</time>
      </trkpt>
      <trkpt lat="45.669834343716502" lon="8.035121290013194">
        <ele>1657.28</ele>
        <time>2021-05-30T08:50:04Z</time>
      </trkpt>
      <trkpt lat="45.669867368414998" lon="8.035068903118372">
        <ele>1657.49</ele>
        <time>2021-05-30T08:50:10Z</time>
      </trkpt>
      <trkpt lat="45.669944733381271" lon="8.034906378015876">
        <ele>1658.5999999999999</ele>
        <time>2021-05-30T08:50:28Z</time>
      </trkpt>
      <trkpt lat="45.670038526877761" lon="8.034796910360456">
        <ele>1659.1700000000001</ele>
        <time>2021-05-30T08:50:45Z</time>
      </trkpt>
      <trkpt lat="45.67008638754487" lon="8.034716360270977">
        <ele>1658.5</ele>
        <time>2021-05-30T08:51:01Z</time>
      </trkpt>
      <trkpt lat="45.670114299282432" lon="8.034642348065972">
        <ele>1658.8299999999999</ele>
        <time>2021-05-30T08:51:19Z</time>
      </trkpt>
      <trkpt lat="45.670190071687102" lon="8.034553416073322">
        <ele>1659.3499999999999</ele>
        <time>2021-05-30T08:51:34Z</time>
      </trkpt>
      <trkpt lat="45.670293839648366" lon="8.03444679826498">
        <ele>1659.0799999999999</ele>
        <time>2021-05-30T08:51:51Z</time>
      </trkpt>
      <trkpt lat="45.670332899317145" lon="8.034401703625917">
        <ele>1659.3399999999999</ele>
        <time>2021-05-30T08:52:04Z</time>
      </trkpt>
      <trkpt lat="45.670383861288428" lon="8.034411258995533">
        <ele>1659.25</ele>
        <time>2021-05-30T08:52:19Z</time>
      </trkpt>
      <trkpt lat="45.670439433306456" lon="8.034386783838272">
        <ele>1658.47</ele>
        <time>2021-05-30T08:52:34Z</time>
      </trkpt>
      <trkpt lat="45.670435996726155" lon="8.034362895414233">
        <ele>1658.6900000000001</ele>
        <time>2021-05-30T08:52:48Z</time>
      </trkpt>
      <trkpt lat="45.670461477711797" lon="8.034268012270331">
        <ele>1658.0699999999999</ele>
        <time>2021-05-30T08:53:01Z</time>
      </trkpt>
      <trkpt lat="45.670567508786917" lon="8.034118060022593">
        <ele>1658.27</ele>
        <time>2021-05-30T08:53:20Z</time>
      </trkpt>
      <trkpt lat="45.670584356412292" lon="8.034083107486367">
        <ele>1659.48</ele>
        <time>2021-05-30T08:53:35Z</time>
      </trkpt>
      <trkpt lat="45.670579746365547" lon="8.034109510481358">
        <ele>1659.23</ele>
        <time>2021-05-30T08:53:46Z</time>
      </trkpt>
      <trkpt lat="45.670531801879406" lon="8.034168016165495">
        <ele>1658.3599999999999</ele>
        <time>2021-05-30T08:54:01Z</time>
      </trkpt>
      <trkpt lat="45.670530879870057" lon="8.034160556271672">
        <ele>1658.27</ele>
        <time>2021-05-30T08:54:23Z</time>
      </trkpt>
      <trkpt lat="45.670535992830992" lon="8.034156197682023">
        <ele>1658.1199999999999</ele>
        <time>2021-05-30T08:54:42Z</time>
      </trkpt>
      <trkpt lat="45.670534232631326" lon="8.034155778586865">
        <ele>1657.9200000000001</ele>
        <time>2021-05-30T08:55:01Z</time>
      </trkpt>
      <trkpt lat="45.670559126883745" lon="8.034126693382859">
        <ele>1658.1400000000001</ele>
        <time>2021-05-30T08:55:20Z</time>
      </trkpt>
      <trkpt lat="45.670601790770888" lon="8.034069361165166">
        <ele>1659.29</ele>
        <time>2021-05-30T08:55:34Z</time>
      </trkpt>
      <trkpt lat="45.670676222071052" lon="8.033994846045971">
        <ele>1659.53</ele>
        <time>2021-05-30T08:55:50Z</time>
      </trkpt>
      <trkpt lat="45.67069424316287" lon="8.033958720043302">
        <ele>1659.3900000000001</ele>
        <time>2021-05-30T08:56:06Z</time>
      </trkpt>
      <trkpt lat="45.670704049989581" lon="8.033935585990548">
        <ele>1659.47</ele>
        <time>2021-05-30T08:56:23Z</time>
      </trkpt>
      <trkpt lat="45.670709917321801" lon="8.033944386988878">
        <ele>1658.9000000000001</ele>
        <time>2021-05-30T08:56:55Z</time>
      </trkpt>
      <trkpt lat="45.670739756897092" lon="8.033922594040632">
        <ele>1658.05</ele>
        <time>2021-05-30T08:57:09Z</time>
      </trkpt>
      <trkpt lat="45.670744953677058" lon="8.033921923488379">
        <ele>1657.7</ele>
        <time>2021-05-30T08:57:30Z</time>
      </trkpt>
      <trkpt lat="45.670783761888742" lon="8.033868279308081">
        <ele>1656.98</ele>
        <time>2021-05-30T08:57:48Z</time>
      </trkpt>
      <trkpt lat="45.670803124085069" lon="8.033848246559501">
        <ele>1655.8299999999999</ele>
        <time>2021-05-30T08:57:56Z</time>
      </trkpt>
      <trkpt lat="45.670819552615285" lon="8.033812120556831">
        <ele>1655.1800000000001</ele>
        <time>2021-05-30T08:57:59Z</time>
      </trkpt>
      <trkpt lat="45.670890798792243" lon="8.033688403666019">
        <ele>1653.3</ele>
        <time>2021-05-30T08:58:14Z</time>
      </trkpt>
      <trkpt lat="45.670922314748168" lon="8.033577259629965">
        <ele>1651.5599999999999</ele>
        <time>2021-05-30T08:58:26Z</time>
      </trkpt>
      <trkpt lat="45.670966152101755" lon="8.033553371205926">
        <ele>1650.76</ele>
        <time>2021-05-30T08:58:38Z</time>
      </trkpt>
      <trkpt lat="45.670979982241988" lon="8.033540714532137">
        <ele>1650.4300000000001</ele>
        <time>2021-05-30T08:58:54Z</time>
      </trkpt>
      <trkpt lat="45.670974450185895" lon="8.033533254638314">
        <ele>1650.46</ele>
        <time>2021-05-30T08:59:25Z</time>
      </trkpt>
      <trkpt lat="45.670973109081388" lon="8.033538032323122">
        <ele>1650.4000000000001</ele>
        <time>2021-05-30T08:59:48Z</time>
      </trkpt>
      <trkpt lat="45.670970175415277" lon="8.033546078950167">
        <ele>1650.1900000000001</ele>
        <time>2021-05-30T09:00:12Z</time>
      </trkpt>
      <trkpt lat="45.670966487377882" lon="8.033552868291736">
        <ele>1650.3499999999999</ele>
        <time>2021-05-30T09:00:38Z</time>
      </trkpt>
      <trkpt lat="45.670965062454343" lon="8.03355454467237">
        <ele>1650.47</ele>
        <time>2021-05-30T09:00:46Z</time>
      </trkpt>
      <trkpt lat="45.670955674722791" lon="8.033553119748831">
        <ele>1650.48</ele>
        <time>2021-05-30T09:00:53Z</time>
      </trkpt>
      <trkpt lat="45.670965649187565" lon="8.033553119748831">
        <ele>1650.5799999999999</ele>
        <time>2021-05-30T09:01:19Z</time>
      </trkpt>
      <trkpt lat="45.670956848189235" lon="8.033544067293406">
        <ele>1650.74</ele>
        <time>2021-05-30T09:01:20Z</time>
      </trkpt>
      <trkpt lat="45.670965062454343" lon="8.033546162769198">
        <ele>1650.5899999999999</ele>
        <time>2021-05-30T09:01:31Z</time>
      </trkpt>
      <trkpt lat="45.670965230092406" lon="8.03354674950242">
        <ele>1650.6400000000001</ele>
        <time>2021-05-30T09:01:49Z</time>
      </trkpt>
      <trkpt lat="45.670963805168867" lon="8.033554628491402">
        <ele>1650.6300000000001</ele>
        <time>2021-05-30T09:02:24Z</time>
      </trkpt>
      <trkpt lat="45.670958273112774" lon="8.033538702875376">
        <ele>1650.75</ele>
        <time>2021-05-30T09:02:38Z</time>
      </trkpt>
      <trkpt lat="45.670998673886061" lon="8.033458990976214">
        <ele>1649.73</ele>
        <time>2021-05-30T09:02:58Z</time>
      </trkpt>
      <trkpt lat="45.671015689149499" lon="8.03341037593782">
        <ele>1649.1600000000001</ele>
        <time>2021-05-30T09:03:02Z</time>
      </trkpt>
      <trkpt lat="45.671053156256676" lon="8.033368214964867">
        <ele>1648.3299999999999</ele>
        <time>2021-05-30T09:03:07Z</time>
      </trkpt>
      <trkpt lat="45.6710812356323" lon="8.033318091183901">
        <ele>1648.3099999999999</ele>
        <time>2021-05-30T09:03:11Z</time>
      </trkpt>
      <trkpt lat="45.671141920611262" lon="8.033138131722808">
        <ele>1649.8099999999999</ele>
        <time>2021-05-30T09:03:27Z</time>
      </trkpt>
      <trkpt lat="45.671219704672694" lon="8.032977618277073">
        <ele>1651.6099999999999</ele>
        <time>2021-05-30T09:03:43Z</time>
      </trkpt>
      <trkpt lat="45.671243006363511" lon="8.032927829772234">
        <ele>1652.6700000000001</ele>
        <time>2021-05-30T09:03:48Z</time>
      </trkpt>
      <trkpt lat="45.671254405751824" lon="8.032872173935175">
        <ele>1654.4300000000001</ele>
        <time>2021-05-30T09:03:55Z</time>
      </trkpt>
      <trkpt lat="45.671291453763843" lon="8.032747451215982">
        <ele>1657.4400000000001</ele>
        <time>2021-05-30T09:04:09Z</time>
      </trkpt>
      <trkpt lat="45.671318862587214" lon="8.032645275816321">
        <ele>1659.73</ele>
        <time>2021-05-30T09:04:22Z</time>
      </trkpt>
      <trkpt lat="45.6713299266994" lon="8.032614095136523">
        <ele>1659.8599999999999</ele>
        <time>2021-05-30T09:04:25Z</time>
      </trkpt>
      <trkpt lat="45.671366974711418" lon="8.03259146399796">
        <ele>1661.4400000000001</ele>
        <time>2021-05-30T09:04:34Z</time>
      </trkpt>
      <trkpt lat="45.671390360221267" lon="8.032558020204306">
        <ele>1662.5899999999999</ele>
        <time>2021-05-30T09:04:45Z</time>
      </trkpt>
      <trkpt lat="45.671418523415923" lon="8.032523402944207">
        <ele>1664.0699999999999</ele>
        <time>2021-05-30T09:04:54Z</time>
      </trkpt>
      <trkpt lat="45.671451464295387" lon="8.032477553933859">
        <ele>1665.6500000000001</ele>
        <time>2021-05-30T09:05:07Z</time>
      </trkpt>
      <trkpt lat="45.671481303870678" lon="8.032344281673431">
        <ele>1667.4100000000001</ele>
        <time>2021-05-30T09:05:22Z</time>
      </trkpt>
      <trkpt lat="45.671549113467336" lon="8.032241016626358">
        <ele>1668.49</ele>
        <time>2021-05-30T09:05:38Z</time>
      </trkpt>
      <trkpt lat="45.671628909185529" lon="8.032174212858081">
        <ele>1667.29</ele>
        <time>2021-05-30T09:05:53Z</time>
      </trkpt>
      <trkpt lat="45.671708453446627" lon="8.032150827348232">
        <ele>1664.4000000000001</ele>
        <time>2021-05-30T09:06:10Z</time>
      </trkpt>
      <trkpt lat="45.67177165299654" lon="8.032147139310837">
        <ele>1661.96</ele>
        <time>2021-05-30T09:06:25Z</time>
      </trkpt>
      <trkpt lat="45.671819010749459" lon="8.032076898962259">
        <ele>1660.25</ele>
        <time>2021-05-30T09:06:39Z</time>
      </trkpt>
      <trkpt lat="45.671841558068991" lon="8.032039431855083">
        <ele>1659.76</ele>
        <time>2021-05-30T09:06:46Z</time>
      </trkpt>
      <trkpt lat="45.671860501170158" lon="8.031997941434383">
        <ele>1659.6900000000001</ele>
        <time>2021-05-30T09:07:00Z</time>
      </trkpt>
      <trkpt lat="45.671908278018236" lon="8.031975394114852">
        <ele>1657.1400000000001</ele>
        <time>2021-05-30T09:07:12Z</time>
      </trkpt>
      <trkpt lat="45.671955803409219" lon="8.031882522627711">
        <ele>1653.95</ele>
        <time>2021-05-30T09:07:28Z</time>
      </trkpt>
      <trkpt lat="45.67200617864728" lon="8.031792584806681">
        <ele>1652.99</ele>
        <time>2021-05-30T09:07:43Z</time>
      </trkpt>
      <trkpt lat="45.672011878341436" lon="8.031668365001679">
        <ele>1652.4100000000001</ele>
        <time>2021-05-30T09:07:57Z</time>
      </trkpt>
      <trkpt lat="45.672050267457962" lon="8.031625868752599">
        <ele>1651.0899999999999</ele>
        <time>2021-05-30T09:08:13Z</time>
      </trkpt>
      <trkpt lat="45.672058230265975" lon="8.031624192371965">
        <ele>1650.8900000000001</ele>
        <time>2021-05-30T09:08:14Z</time>
      </trkpt>
      <trkpt lat="45.672127213329077" lon="8.031473821029067">
        <ele>1650.8199999999999</ele>
        <time>2021-05-30T09:08:30Z</time>
      </trkpt>
      <trkpt lat="45.67213567905128" lon="8.031443813815713">
        <ele>1651.1500000000001</ele>
        <time>2021-05-30T09:08:33Z</time>
      </trkpt>
      <trkpt lat="45.672156969085336" lon="8.031366616487503">
        <ele>1651.46</ele>
        <time>2021-05-30T09:08:39Z</time>
      </trkpt>
      <trkpt lat="45.672161746770144" lon="8.031341470777988">
        <ele>1651.28</ele>
        <time>2021-05-30T09:08:41Z</time>
      </trkpt>
      <trkpt lat="45.672234753146768" lon="8.031227644532919">
        <ele>1652.9200000000001</ele>
        <time>2021-05-30T09:08:56Z</time>
      </trkpt>
      <trkpt lat="45.672284876927733" lon="8.031168719753623">
        <ele>1653.6500000000001</ele>
        <time>2021-05-30T09:09:10Z</time>
      </trkpt>
      <trkpt lat="45.672310693189502" lon="8.031097473576665">
        <ele>1652.3199999999999</ele>
        <time>2021-05-30T09:09:19Z</time>
      </trkpt>
      <trkpt lat="45.672389483079314" lon="8.030968392267823">
        <ele>1653.2</ele>
        <time>2021-05-30T09:09:35Z</time>
      </trkpt>
      <trkpt lat="45.672410605475307" lon="8.030961686745286">
        <ele>1653.3599999999999</ele>
        <time>2021-05-30T09:09:38Z</time>
      </trkpt>
      <trkpt lat="45.672500124201179" lon="8.03087149746716">
        <ele>1653.9100000000001</ele>
        <time>2021-05-30T09:09:55Z</time>
      </trkpt>
      <trkpt lat="45.67255443893373" lon="8.03082313388586">
        <ele>1654.8599999999999</ele>
        <time>2021-05-30T09:10:08Z</time>
      </trkpt>
      <trkpt lat="45.672572292387486" lon="8.030772507190704">
        <ele>1656.0799999999999</ele>
        <time>2021-05-30T09:10:23Z</time>
      </trkpt>
      <trkpt lat="45.672591822221875" lon="8.030730932950974">
        <ele>1657.26</ele>
        <time>2021-05-30T09:10:40Z</time>
      </trkpt>
      <trkpt lat="45.672637922689319" lon="8.030627332627773">
        <ele>1659.8699999999999</ele>
        <time>2021-05-30T09:10:59Z</time>
      </trkpt>
      <trkpt lat="45.672676730901003" lon="8.030493054538965">
        <ele>1661.8699999999999</ele>
        <time>2021-05-30T09:11:16Z</time>
      </trkpt>
      <trkpt lat="45.672766165807843" lon="8.030362632125616">
        <ele>1663.4000000000001</ele>
        <time>2021-05-30T09:11:35Z</time>
      </trkpt>
      <trkpt lat="45.67278653383255" lon="8.030304713174701">
        <ele>1663.95</ele>
        <time>2021-05-30T09:11:49Z</time>
      </trkpt>
      <trkpt lat="45.672804387286305" lon="8.030252577736974">
        <ele>1664.49</ele>
        <time>2021-05-30T09:12:07Z</time>
      </trkpt>
      <trkpt lat="45.672817463055253" lon="8.0302201397717">
        <ele>1664.27</ele>
        <time>2021-05-30T09:12:18Z</time>
      </trkpt>
      <trkpt lat="45.67283296957612" lon="8.030191557481885">
        <ele>1664.51</ele>
        <time>2021-05-30T09:12:21Z</time>
      </trkpt>
      <trkpt lat="45.672847973182797" lon="8.030175799503923">
        <ele>1664.71</ele>
        <time>2021-05-30T09:12:23Z</time>
      </trkpt>
      <trkpt lat="45.672911508008838" lon="8.030103966593742">
        <ele>1664.6099999999999</ele>
        <time>2021-05-30T09:12:37Z</time>
      </trkpt>
      <trkpt lat="45.672937156632543" lon="8.030034396797419">
        <ele>1666.49</ele>
        <time>2021-05-30T09:12:52Z</time>
      </trkpt>
      <trkpt lat="45.672971019521356" lon="8.029997013509274">
        <ele>1666.1199999999999</ele>
        <time>2021-05-30T09:13:18Z</time>
      </trkpt>
      <trkpt lat="45.673026256263256" lon="8.029924929141998">
        <ele>1665.03</ele>
        <time>2021-05-30T09:13:33Z</time>
      </trkpt>
      <trkpt lat="45.673040002584457" lon="8.02990791387856">
        <ele>1664.21</ele>
        <time>2021-05-30T09:13:54Z</time>
      </trkpt>
      <trkpt lat="45.673045953735709" lon="8.029898693785071">
        <ele>1663.8800000000001</ele>
        <time>2021-05-30T09:14:11Z</time>
      </trkpt>
      <trkpt lat="45.673066154122353" lon="8.029871620237827">
        <ele>1662.9200000000001</ele>
        <time>2021-05-30T09:14:26Z</time>
      </trkpt>
      <trkpt lat="45.673090880736709" lon="8.029858460649848">
        <ele>1662.05</ele>
        <time>2021-05-30T09:14:41Z</time>
      </trkpt>
      <trkpt lat="45.673116696998477" lon="8.029852425679565">
        <ele>1660.9300000000001</ele>
        <time>2021-05-30T09:14:55Z</time>
      </trkpt>
      <trkpt lat="45.673144357278943" lon="8.029822334647179">
        <ele>1658.54</ele>
        <time>2021-05-30T09:15:11Z</time>
      </trkpt>
      <trkpt lat="45.673160701990128" lon="8.029763242229819">
        <ele>1656.1099999999999</ele>
        <time>2021-05-30T09:15:26Z</time>
      </trkpt>
      <trkpt lat="45.673203617334366" lon="8.029744969680905">
        <ele>1654.3599999999999</ele>
        <time>2021-05-30T09:15:41Z</time>
      </trkpt>
      <trkpt lat="45.673250304535031" lon="8.029720326885581">
        <ele>1652.02</ele>
        <time>2021-05-30T09:15:54Z</time>
      </trkpt>
      <trkpt lat="45.673272851854563" lon="8.029666598886251">
        <ele>1650.6300000000001</ele>
        <time>2021-05-30T09:16:08Z</time>
      </trkpt>
      <trkpt lat="45.673323813825846" lon="8.029631981626153">
        <ele>1649.02</ele>
        <time>2021-05-30T09:16:24Z</time>
      </trkpt>
      <trkpt lat="45.673369076102972" lon="8.029591161757708">
        <ele>1647.5999999999999</ele>
        <time>2021-05-30T09:16:37Z</time>
      </trkpt>
      <trkpt lat="45.673364466056228" lon="8.029599208384752">
        <ele>1647.46</ele>
        <time>2021-05-30T09:16:58Z</time>
      </trkpt>
      <trkpt lat="45.673393467441201" lon="8.02952678874135">
        <ele>1645.8399999999999</ele>
        <time>2021-05-30T09:17:12Z</time>
      </trkpt>
      <trkpt lat="45.673400172963738" lon="8.02952092140913">
        <ele>1645.73</ele>
        <time>2021-05-30T09:17:13Z</time>
      </trkpt>
      <trkpt lat="45.673490026965737" lon="8.029468031600118">
        <ele>1645.3800000000001</ele>
        <time>2021-05-30T09:17:28Z</time>
      </trkpt>
      <trkpt lat="45.67351508885622" lon="8.029438108205795">
        <ele>1645.1700000000001</ele>
        <time>2021-05-30T09:17:32Z</time>
      </trkpt>
      <trkpt lat="45.673607205972075" lon="8.029334507882595">
        <ele>1643.73</ele>
        <time>2021-05-30T09:17:49Z</time>
      </trkpt>
      <trkpt lat="45.673667890951037" lon="8.029262255877256">
        <ele>1644.04</ele>
        <time>2021-05-30T09:18:06Z</time>
      </trkpt>
      <trkpt lat="45.673741484060884" lon="8.029201738536358">
        <ele>1644.21</ele>
        <time>2021-05-30T09:18:23Z</time>
      </trkpt>
      <trkpt lat="45.673759756609797" lon="8.029161589220166">
        <ele>1644.1900000000001</ele>
        <time>2021-05-30T09:18:37Z</time>
      </trkpt>
      <trkpt lat="45.673825219273567" lon="8.029124038293958">
        <ele>1644.71</ele>
        <time>2021-05-30T09:18:51Z</time>
      </trkpt>
      <trkpt lat="45.673852041363716" lon="8.029031250625849">
        <ele>1645.8900000000001</ele>
        <time>2021-05-30T09:19:06Z</time>
      </trkpt>
      <trkpt lat="45.673882383853197" lon="8.028915161266923">
        <ele>1648.24</ele>
        <time>2021-05-30T09:19:23Z</time>
      </trkpt>
      <trkpt lat="45.673974249511957" lon="8.028801251202822">
        <ele>1650.29</ele>
        <time>2021-05-30T09:19:42Z</time>
      </trkpt>
      <trkpt lat="45.674031749367714" lon="8.028718270361424">
        <ele>1651.8499999999999</ele>
        <time>2021-05-30T09:19:57Z</time>
      </trkpt>
      <trkpt lat="45.674117412418127" lon="8.028587345033884">
        <ele>1653.6400000000001</ele>
        <time>2021-05-30T09:20:15Z</time>
      </trkpt>
      <trkpt lat="45.674147419631481" lon="8.028498664498329">
        <ele>1654.9000000000001</ele>
        <time>2021-05-30T09:20:31Z</time>
      </trkpt>
      <trkpt lat="45.674215899780393" lon="8.028434291481972">
        <ele>1656.8299999999999</ele>
        <time>2021-05-30T09:20:45Z</time>
      </trkpt>
      <trkpt lat="45.674303658306599" lon="8.028268916532397">
        <ele>1659.97</ele>
        <time>2021-05-30T09:21:05Z</time>
      </trkpt>
      <trkpt lat="45.674352943897247" lon="8.028164394199848">
        <ele>1661.1300000000001</ele>
        <time>2021-05-30T09:21:21Z</time>
      </trkpt>
      <trkpt lat="45.674361912533641" lon="8.028154419735074">
        <ele>1661.3900000000001</ele>
        <time>2021-05-30T09:21:36Z</time>
      </trkpt>
      <trkpt lat="45.674390662461519" lon="8.028093064203858">
        <ele>1661.54</ele>
        <time>2021-05-30T09:21:42Z</time>
      </trkpt>
      <trkpt lat="45.674455538392067" lon="8.028045957908034">
        <ele>1661.8699999999999</ele>
        <time>2021-05-30T09:21:49Z</time>
      </trkpt>
      <trkpt lat="45.674549667164683" lon="8.027854766696692">
        <ele>1662.8900000000001</ele>
        <time>2021-05-30T09:22:06Z</time>
      </trkpt>
      <trkpt lat="45.674640778452158" lon="8.027699450030923">
        <ele>1663.72</ele>
        <time>2021-05-30T09:22:24Z</time>
      </trkpt>
      <trkpt lat="45.674695679917932" lon="8.027622001245618">
        <ele>1663.51</ele>
        <time>2021-05-30T09:22:39Z</time>
      </trkpt>
      <trkpt lat="45.674772877246141" lon="8.02756005898118">
        <ele>1663.27</ele>
        <time>2021-05-30T09:22:57Z</time>
      </trkpt>
      <trkpt lat="45.674793412908912" lon="8.027535583823919">
        <ele>1662.9200000000001</ele>
        <time>2021-05-30T09:23:00Z</time>
      </trkpt>
      <trkpt lat="45.674885530024767" lon="8.027432402595878">
        <ele>1662.3800000000001</ele>
        <time>2021-05-30T09:23:17Z</time>
      </trkpt>
      <trkpt lat="45.674880919978023" lon="8.027426199987531">
        <ele>1662.4100000000001</ele>
        <time>2021-05-30T09:23:31Z</time>
      </trkpt>
      <trkpt lat="45.674904389306903" lon="8.027406251057982">
        <ele>1662.5699999999999</ele>
        <time>2021-05-30T09:23:44Z</time>
      </trkpt>
      <trkpt lat="45.674963900819421" lon="8.027326706796885">
        <ele>1663.54</ele>
        <time>2021-05-30T09:24:00Z</time>
      </trkpt>
      <trkpt lat="45.674978233873844" lon="8.027256801724434">
        <ele>1664.8599999999999</ele>
        <time>2021-05-30T09:24:15Z</time>
      </trkpt>
      <trkpt lat="45.674988543614745" lon="8.027194272726774">
        <ele>1666.24</ele>
        <time>2021-05-30T09:24:30Z</time>
      </trkpt>
      <trkpt lat="45.675007151439786" lon="8.027153871953487">
        <ele>1667.54</ele>
        <time>2021-05-30T09:24:44Z</time>
      </trkpt>
      <trkpt lat="45.675022322684526" lon="8.027087403461337">
        <ele>1669.45</ele>
        <time>2021-05-30T09:24:59Z</time>
      </trkpt>
      <trkpt lat="45.675049228593707" lon="8.027023617178202">
        <ele>1670.5599999999999</ele>
        <time>2021-05-30T09:25:13Z</time>
      </trkpt>
      <trkpt lat="45.675084181129932" lon="8.026968548074365">
        <ele>1672.1600000000001</ele>
        <time>2021-05-30T09:25:27Z</time>
      </trkpt>
      <trkpt lat="45.675154589116573" lon="8.026912808418274">
        <ele>1674.3</ele>
        <time>2021-05-30T09:25:45Z</time>
      </trkpt>
      <trkpt lat="45.675202868878841" lon="8.026842651888728">
        <ele>1675.1900000000001</ele>
        <time>2021-05-30T09:25:59Z</time>
      </trkpt>
      <trkpt lat="45.67524871788919" lon="8.026786828413606">
        <ele>1676.8800000000001</ele>
        <time>2021-05-30T09:26:12Z</time>
      </trkpt>
      <trkpt lat="45.67528149113059" lon="8.02674257196486">
        <ele>1677.6199999999999</ele>
        <time>2021-05-30T09:26:27Z</time>
      </trkpt>
      <trkpt lat="45.67530931904912" lon="8.026719857007265">
        <ele>1678.3099999999999</ele>
        <time>2021-05-30T09:26:32Z</time>
      </trkpt>
      <trkpt lat="45.675382409244776" lon="8.026681551709771">
        <ele>1678.75</ele>
        <time>2021-05-30T09:26:45Z</time>
      </trkpt>
      <trkpt lat="45.675424402579665" lon="8.026606366038322">
        <ele>1680.72</ele>
        <time>2021-05-30T09:27:02Z</time>
      </trkpt>
      <trkpt lat="45.675485087558627" lon="8.026552805677056">
        <ele>1681.1400000000001</ele>
        <time>2021-05-30T09:27:16Z</time>
      </trkpt>
      <trkpt lat="45.675512831658125" lon="8.02647527307272">
        <ele>1682.0599999999999</ele>
        <time>2021-05-30T09:27:30Z</time>
      </trkpt>
      <trkpt lat="45.67554971203208" lon="8.026383323594928">
        <ele>1683.5599999999999</ele>
        <time>2021-05-30T09:27:46Z</time>
      </trkpt>
      <trkpt lat="45.675594052299857" lon="8.02632967941463">
        <ele>1685.0999999999999</ele>
        <time>2021-05-30T09:28:02Z</time>
      </trkpt>
      <trkpt lat="45.675605367869139" lon="8.026275532320142">
        <ele>1686.54</ele>
        <time>2021-05-30T09:28:17Z</time>
      </trkpt>
      <trkpt lat="45.675641996785998" lon="8.02619238384068">
        <ele>1688.9200000000001</ele>
        <time>2021-05-30T09:28:34Z</time>
      </trkpt>
      <trkpt lat="45.675706369802356" lon="8.02613471634686">
        <ele>1689.8299999999999</ele>
        <time>2021-05-30T09:28:57Z</time>
      </trkpt>
      <trkpt lat="45.675757750868797" lon="8.026078892871738">
        <ele>1691.51</ele>
        <time>2021-05-30T09:29:12Z</time>
      </trkpt>
      <trkpt lat="45.675788093358278" lon="8.026036648079753">
        <ele>1692.6300000000001</ele>
        <time>2021-05-30T09:29:26Z</time>
      </trkpt>
      <trkpt lat="45.675797313451767" lon="8.025977807119489">
        <ele>1693.8299999999999</ele>
        <time>2021-05-30T09:29:44Z</time>
      </trkpt>
      <trkpt lat="45.675809299573302" lon="8.02597344852984">
        <ele>1694.0599999999999</ele>
        <time>2021-05-30T09:30:12Z</time>
      </trkpt>
      <trkpt lat="45.675810556858778" lon="8.025965401902795">
        <ele>1694.1300000000001</ele>
        <time>2021-05-30T09:30:32Z</time>
      </trkpt>
      <trkpt lat="45.675817932933569" lon="8.025965904816985">
        <ele>1694.1500000000001</ele>
        <time>2021-05-30T09:30:55Z</time>
      </trkpt>
      <trkpt lat="45.675830841064453" lon="8.025969592854381">
        <ele>1693.73</ele>
        <time>2021-05-30T09:31:14Z</time>
      </trkpt>
      <trkpt lat="45.675836373120546" lon="8.025929443538189">
        <ele>1694.9300000000001</ele>
        <time>2021-05-30T09:31:40Z</time>
      </trkpt>
      <trkpt lat="45.675868475809693" lon="8.025872949510813">
        <ele>1697.5799999999999</ele>
        <time>2021-05-30T09:31:56Z</time>
      </trkpt>
      <trkpt lat="45.675852550193667" lon="8.025846043601632">
        <ele>1698.75</ele>
        <time>2021-05-30T09:32:12Z</time>
      </trkpt>
      <trkpt lat="45.675842240452766" lon="8.025826513767242">
        <ele>1699</ele>
        <time>2021-05-30T09:32:29Z</time>
      </trkpt>
      <trkpt lat="45.675837714225054" lon="8.02580438554287">
        <ele>1700.6500000000001</ele>
        <time>2021-05-30T09:32:51Z</time>
      </trkpt>
      <trkpt lat="45.675846850499511" lon="8.025794494897127">
        <ele>1702.3299999999999</ele>
        <time>2021-05-30T09:33:06Z</time>
      </trkpt>
      <trkpt lat="45.675861183553934" lon="8.025790639221668">
        <ele>1703.3800000000001</ele>
        <time>2021-05-30T09:33:24Z</time>
      </trkpt>
      <trkpt lat="45.675905020907521" lon="8.025760129094124">
        <ele>1704.1099999999999</ele>
        <time>2021-05-30T09:33:44Z</time>
      </trkpt>
      <trkpt lat="45.675918767228723" lon="8.02568469196558">
        <ele>1707.48</ele>
        <time>2021-05-30T09:33:56Z</time>
      </trkpt>
      <trkpt lat="45.675918683409691" lon="8.025675974786282">
        <ele>1707.28</ele>
        <time>2021-05-30T09:34:21Z</time>
      </trkpt>
      <trkpt lat="45.675927149131894" lon="8.025666838511825">
        <ele>1707.9400000000001</ele>
        <time>2021-05-30T09:34:42Z</time>
      </trkpt>
      <trkpt lat="45.675945673137903" lon="8.025652505457401">
        <ele>1708.04</ele>
        <time>2021-05-30T09:35:03Z</time>
      </trkpt>
      <trkpt lat="45.675994120538235" lon="8.025641357526183">
        <ele>1710.1500000000001</ele>
        <time>2021-05-30T09:35:19Z</time>
      </trkpt>
      <trkpt lat="45.675981966778636" lon="8.025639094412327">
        <ele>1709.8099999999999</ele>
        <time>2021-05-30T09:35:42Z</time>
      </trkpt>
      <trkpt lat="45.675984732806683" lon="8.025560304522514">
        <ele>1710.8699999999999</ele>
        <time>2021-05-30T09:35:54Z</time>
      </trkpt>
      <trkpt lat="45.676019266247749" lon="8.025523843243718">
        <ele>1712.4300000000001</ele>
        <time>2021-05-30T09:36:13Z</time>
      </trkpt>
      <trkpt lat="45.67604960873723" lon="8.025497691705823">
        <ele>1713.1400000000001</ele>
        <time>2021-05-30T09:36:27Z</time>
      </trkpt>
      <trkpt lat="45.676065618172288" lon="8.025470869615674">
        <ele>1713.6700000000001</ele>
        <time>2021-05-30T09:36:45Z</time>
      </trkpt>
      <trkpt lat="45.676067797467113" lon="8.025461900979281">
        <ele>1713.8</ele>
        <time>2021-05-30T09:37:18Z</time>
      </trkpt>
      <trkpt lat="45.676087746396661" lon="8.025382272899151">
        <ele>1716.9000000000001</ele>
        <time>2021-05-30T09:37:37Z</time>
      </trkpt>
      <trkpt lat="45.676103755831718" lon="8.025311445817351">
        <ele>1720</ele>
        <time>2021-05-30T09:37:49Z</time>
      </trkpt>
      <trkpt lat="45.676122782751918" lon="8.025257466360927">
        <ele>1723.0999999999999</ele>
        <time>2021-05-30T09:38:06Z</time>
      </trkpt>
      <trkpt lat="45.676143066957593" lon="8.025258220732212">
        <ele>1723.8199999999999</ele>
        <time>2021-05-30T09:38:26Z</time>
      </trkpt>
      <trkpt lat="45.676158908754587" lon="8.025221256539226">
        <ele>1725.1600000000001</ele>
        <time>2021-05-30T09:38:42Z</time>
      </trkpt>
      <trkpt lat="45.676176175475121" lon="8.025184040889144">
        <ele>1725.54</ele>
        <time>2021-05-30T09:38:46Z</time>
      </trkpt>
      <trkpt lat="45.676235435530543" lon="8.025044817477465">
        <ele>1727.5899999999999</ele>
        <time>2021-05-30T09:39:02Z</time>
      </trkpt>
      <trkpt lat="45.676254630088806" lon="8.025050852447748">
        <ele>1728.53</ele>
        <time>2021-05-30T09:39:16Z</time>
      </trkpt>
      <trkpt lat="45.676265778020024" lon="8.02504506893456">
        <ele>1728.5799999999999</ele>
        <time>2021-05-30T09:39:29Z</time>
      </trkpt>
      <trkpt lat="45.67625873722136" lon="8.025056216865778">
        <ele>1729</ele>
        <time>2021-05-30T09:39:47Z</time>
      </trkpt>
      <trkpt lat="45.676255133002996" lon="8.025055965408683">
        <ele>1729</ele>
        <time>2021-05-30T09:40:10Z</time>
      </trkpt>
      <trkpt lat="45.676251025870442" lon="8.025055797770619">
        <ele>1729.0599999999999</ele>
        <time>2021-05-30T09:40:28Z</time>
      </trkpt>
      <trkpt lat="45.676282541826367" lon="8.025026964023709">
        <ele>1729.04</ele>
        <time>2021-05-30T09:40:54Z</time>
      </trkpt>
      <trkpt lat="45.676322439685464" lon="8.024936271831393">
        <ele>1731.1199999999999</ele>
        <time>2021-05-30T09:41:10Z</time>
      </trkpt>
      <trkpt lat="45.676365774124861" lon="8.024874581024051">
        <ele>1732.6900000000001</ele>
        <time>2021-05-30T09:41:25Z</time>
      </trkpt>
      <trkpt lat="45.676391506567597" lon="8.024753294885159">
        <ele>1731.45</ele>
        <time>2021-05-30T09:41:41Z</time>
      </trkpt>
      <trkpt lat="45.676353285089135" lon="8.024585656821728">
        <ele>1733.1199999999999</ele>
        <time>2021-05-30T09:41:57Z</time>
      </trkpt>
      <trkpt lat="45.676346160471439" lon="8.024469902738929">
        <ele>1733.98</ele>
        <time>2021-05-30T09:42:10Z</time>
      </trkpt>
      <trkpt lat="45.676386896520853" lon="8.024322045966983">
        <ele>1735.1600000000001</ele>
        <time>2021-05-30T09:42:26Z</time>
      </trkpt>
      <trkpt lat="45.676400559023023" lon="8.024303438141942">
        <ele>1735.01</ele>
        <time>2021-05-30T09:42:28Z</time>
      </trkpt>
      <trkpt lat="45.676391338929534" lon="8.024146109819412">
        <ele>1736.6099999999999</ele>
        <time>2021-05-30T09:42:43Z</time>
      </trkpt>
      <trkpt lat="45.676367282867432" lon="8.024063212797046">
        <ele>1737.1099999999999</ele>
        <time>2021-05-30T09:42:50Z</time>
      </trkpt>
      <trkpt lat="45.67638480104506" lon="8.023910326883197">
        <ele>1739.54</ele>
        <time>2021-05-30T09:43:03Z</time>
      </trkpt>
      <trkpt lat="45.676383459940553" lon="8.023840170353651">
        <ele>1741.02</ele>
        <time>2021-05-30T09:43:19Z</time>
      </trkpt>
      <trkpt lat="45.676344903185964" lon="8.023764900863171">
        <ele>1743.3399999999999</ele>
        <time>2021-05-30T09:43:36Z</time>
      </trkpt>
      <trkpt lat="45.676355548202991" lon="8.023716872557998">
        <ele>1745</ele>
        <time>2021-05-30T09:43:54Z</time>
      </trkpt>
      <trkpt lat="45.676360325887799" lon="8.023683009669185">
        <ele>1745.26</ele>
        <time>2021-05-30T09:44:11Z</time>
      </trkpt>
      <trkpt lat="45.676348004490137" lon="8.023669263347983">
        <ele>1745.9100000000001</ele>
        <time>2021-05-30T09:44:30Z</time>
      </trkpt>
      <trkpt lat="45.676328390836716" lon="8.023645710200071">
        <ele>1747.1400000000001</ele>
        <time>2021-05-30T09:44:48Z</time>
      </trkpt>
      <trkpt lat="45.676311207935214" lon="8.023643111810088">
        <ele>1748.8499999999999</ele>
        <time>2021-05-30T09:45:08Z</time>
      </trkpt>
      <trkpt lat="45.676324618980289" lon="8.023610925301909">
        <ele>1748.76</ele>
        <time>2021-05-30T09:45:27Z</time>
      </trkpt>
      <trkpt lat="45.676330989226699" lon="8.023572033271194">
        <ele>1750.1500000000001</ele>
        <time>2021-05-30T09:45:44Z</time>
      </trkpt>
      <trkpt lat="45.676330653950572" lon="8.023535404354334">
        <ele>1751.3099999999999</ele>
        <time>2021-05-30T09:46:03Z</time>
      </trkpt>
      <trkpt lat="45.676316237077117" lon="8.02345166914165">
        <ele>1753.71</ele>
        <time>2021-05-30T09:46:18Z</time>
      </trkpt>
      <trkpt lat="45.676346495747566" lon="8.02331579849124">
        <ele>1753.96</ele>
        <time>2021-05-30T09:46:34Z</time>
      </trkpt>
      <trkpt lat="45.676350435242057" lon="8.023279421031475">
        <ele>1753.51</ele>
        <time>2021-05-30T09:46:37Z</time>
      </trkpt>
      <trkpt lat="45.676377424970269" lon="8.023140365257859">
        <ele>1754.6500000000001</ele>
        <time>2021-05-30T09:46:52Z</time>
      </trkpt>
      <trkpt lat="45.676379688084126" lon="8.022989155724645">
        <ele>1755.0599999999999</ele>
        <time>2021-05-30T09:47:08Z</time>
      </trkpt>
      <trkpt lat="45.676383962854743" lon="8.022835934534669">
        <ele>1756.1400000000001</ele>
        <time>2021-05-30T09:47:25Z</time>
      </trkpt>
      <trkpt lat="45.676428722217679" lon="8.022689335048199">
        <ele>1757.3199999999999</ele>
        <time>2021-05-30T09:47:42Z</time>
      </trkpt>
      <trkpt lat="45.676468536257744" lon="8.022537371143699">
        <ele>1758.25</ele>
        <time>2021-05-30T09:47:58Z</time>
      </trkpt>
      <trkpt lat="45.676464010030031" lon="8.022376019507647">
        <ele>1760.47</ele>
        <time>2021-05-30T09:48:16Z</time>
      </trkpt>
      <trkpt lat="45.67648789845407" lon="8.022236209362745">
        <ele>1763.1300000000001</ele>
        <time>2021-05-30T09:48:34Z</time>
      </trkpt>
      <trkpt lat="45.676484042778611" lon="8.022127328440547">
        <ele>1764.8199999999999</ele>
        <time>2021-05-30T09:48:50Z</time>
      </trkpt>
      <trkpt lat="45.676465854048729" lon="8.021996906027198">
        <ele>1766.8299999999999</ele>
        <time>2021-05-30T09:49:07Z</time>
      </trkpt>
      <trkpt lat="45.676498292014003" lon="8.021835722029209">
        <ele>1768.28</ele>
        <time>2021-05-30T09:49:25Z</time>
      </trkpt>
      <trkpt lat="45.67650156095624" lon="8.021715609356761">
        <ele>1769.9400000000001</ele>
        <time>2021-05-30T09:49:42Z</time>
      </trkpt>
      <trkpt lat="45.676501141861081" lon="8.021613014861941">
        <ele>1772.3499999999999</ele>
        <time>2021-05-30T09:50:00Z</time>
      </trkpt>
      <trkpt lat="45.676493933424354" lon="8.021551156416535">
        <ele>1773.77</ele>
        <time>2021-05-30T09:50:16Z</time>
      </trkpt>
      <trkpt lat="45.676498375833035" lon="8.021479155868292">
        <ele>1775.53</ele>
        <time>2021-05-30T09:50:31Z</time>
      </trkpt>
      <trkpt lat="45.676511200144887" lon="8.021400114521384">
        <ele>1777.3800000000001</ele>
        <time>2021-05-30T09:50:47Z</time>
      </trkpt>
      <trkpt lat="45.676506254822016" lon="8.021334568038583">
        <ele>1779.6099999999999</ele>
        <time>2021-05-30T09:51:02Z</time>
      </trkpt>
      <trkpt lat="45.676495442166924" lon="8.021316882222891">
        <ele>1780.24</ele>
        <time>2021-05-30T09:51:20Z</time>
      </trkpt>
      <trkpt lat="45.676478426903486" lon="8.021237757056952">
        <ele>1782.5699999999999</ele>
        <time>2021-05-30T09:51:33Z</time>
      </trkpt>
      <trkpt lat="45.67648789845407" lon="8.021176904439926">
        <ele>1783.74</ele>
        <time>2021-05-30T09:51:50Z</time>
      </trkpt>
      <trkpt lat="45.676497537642717" lon="8.021082608029246">
        <ele>1785.5999999999999</ele>
        <time>2021-05-30T09:52:05Z</time>
      </trkpt>
      <trkpt lat="45.676489993929863" lon="8.020933996886015">
        <ele>1787.5</ele>
        <time>2021-05-30T09:52:21Z</time>
      </trkpt>
      <trkpt lat="45.676486473530531" lon="8.020793264731765">
        <ele>1790.6700000000001</ele>
        <time>2021-05-30T09:52:38Z</time>
      </trkpt>
      <trkpt lat="45.676477756351233" lon="8.020719839259982">
        <ele>1791.73</ele>
        <time>2021-05-30T09:52:54Z</time>
      </trkpt>
      <trkpt lat="45.676496364176273" lon="8.020646246150136">
        <ele>1793.8900000000001</ele>
        <time>2021-05-30T09:53:11Z</time>
      </trkpt>
      <trkpt lat="45.676505165174603" lon="8.020658232271671">
        <ele>1792.3</ele>
        <time>2021-05-30T09:53:25Z</time>
      </trkpt>
      <trkpt lat="45.676514888182282" lon="8.020662590861321">
        <ele>1792.9100000000001</ele>
        <time>2021-05-30T09:54:02Z</time>
      </trkpt>
      <trkpt lat="45.676520923152566" lon="8.020665775984526">
        <ele>1792.9300000000001</ele>
        <time>2021-05-30T09:54:43Z</time>
      </trkpt>
      <trkpt lat="45.67652553319931" lon="8.020657813176513">
        <ele>1792.8099999999999</ele>
        <time>2021-05-30T09:55:37Z</time>
      </trkpt>
      <trkpt lat="45.676526539027691" lon="8.020656974986196">
        <ele>1793.4400000000001</ele>
        <time>2021-05-30T09:55:42Z</time>
      </trkpt>
      <trkpt lat="45.676529305055737" lon="8.020663177594543">
        <ele>1793.6900000000001</ele>
        <time>2021-05-30T09:56:06Z</time>
      </trkpt>
      <trkpt lat="45.676528299227357" lon="8.020667703822255">
        <ele>1793.6500000000001</ele>
        <time>2021-05-30T09:56:50Z</time>
      </trkpt>
      <trkpt lat="45.676530478522182" lon="8.020668122917414">
        <ele>1793.0699999999999</ele>
        <time>2021-05-30T09:57:13Z</time>
      </trkpt>
      <trkpt lat="45.676528718322515" lon="8.020667871460319">
        <ele>1793.51</ele>
        <time>2021-05-30T09:57:49Z</time>
      </trkpt>
      <trkpt lat="45.676530646160245" lon="8.020668542012572">
        <ele>1792.8900000000001</ele>
        <time>2021-05-30T09:58:27Z</time>
      </trkpt>
      <trkpt lat="45.676524024456739" lon="8.020663429051638">
        <ele>1793.4000000000001</ele>
        <time>2021-05-30T09:58:41Z</time>
      </trkpt>
      <trkpt lat="45.676531819626689" lon="8.020587489008904">
        <ele>1795.05</ele>
        <time>2021-05-30T09:58:57Z</time>
      </trkpt>
      <trkpt lat="45.676547912880778" lon="8.02045438438654">
        <ele>1796.51</ele>
        <time>2021-05-30T09:59:14Z</time>
      </trkpt>
      <trkpt lat="45.676540117710829" lon="8.020353801548481">
        <ele>1799.4000000000001</ele>
        <time>2021-05-30T09:59:30Z</time>
      </trkpt>
      <trkpt lat="45.676567275077105" lon="8.020219942554832">
        <ele>1802.1199999999999</ele>
        <time>2021-05-30T09:59:46Z</time>
      </trkpt>
      <trkpt lat="45.676592420786619" lon="8.020038390532136">
        <ele>1803.8599999999999</ele>
        <time>2021-05-30T10:00:05Z</time>
      </trkpt>
      <trkpt lat="45.676602898165584" lon="8.019935376942158">
        <ele>1805.48</ele>
        <time>2021-05-30T10:00:21Z</time>
      </trkpt>
      <trkpt lat="45.67664572969079" lon="8.019803529605269">
        <ele>1807.5</ele>
        <time>2021-05-30T10:00:42Z</time>
      </trkpt>
      <trkpt lat="45.676733069121838" lon="8.019646285101771">
        <ele>1809.99</ele>
        <time>2021-05-30T10:01:00Z</time>
      </trkpt>
      <trkpt lat="45.676767099648714" lon="8.019598424434662">
        <ele>1810.0899999999999</ele>
        <time>2021-05-30T10:01:05Z</time>
      </trkpt>
      <trkpt lat="45.676890145987272" lon="8.019396588206291">
        <ele>1811.3299999999999</ele>
        <time>2021-05-30T10:01:23Z</time>
      </trkpt>
      <trkpt lat="45.676974048838019" lon="8.019253592938185">
        <ele>1812.1300000000001</ele>
        <time>2021-05-30T10:01:41Z</time>
      </trkpt>
      <trkpt lat="45.677016461268067" lon="8.019181760028005">
        <ele>1812.6800000000001</ele>
        <time>2021-05-30T10:01:52Z</time>
      </trkpt>
      <trkpt lat="45.67706398665905" lon="8.019096683710814">
        <ele>1813.27</ele>
        <time>2021-05-30T10:02:08Z</time>
      </trkpt>
      <trkpt lat="45.677106231451035" lon="8.019033651798964">
        <ele>1814.0599999999999</ele>
        <time>2021-05-30T10:02:26Z</time>
      </trkpt>
      <trkpt lat="45.677169011905789" lon="8.018960226327181">
        <ele>1816.1700000000001</ele>
        <time>2021-05-30T10:02:42Z</time>
      </trkpt>
      <trkpt lat="45.677193319424987" lon="8.018913706764579">
        <ele>1816.1099999999999</ele>
        <time>2021-05-30T10:02:47Z</time>
      </trkpt>
      <trkpt lat="45.677264062687755" lon="8.018798707053065">
        <ele>1817.21</ele>
        <time>2021-05-30T10:03:05Z</time>
      </trkpt>
      <trkpt lat="45.677299601957202" lon="8.018738860264421">
        <ele>1818.4000000000001</ele>
        <time>2021-05-30T10:03:20Z</time>
      </trkpt>
      <trkpt lat="45.677328770980239" lon="8.018705081194639">
        <ele>1819.72</ele>
        <time>2021-05-30T10:03:35Z</time>
      </trkpt>
      <trkpt lat="45.677412757650018" lon="8.018614975735545">
        <ele>1821.0999999999999</ele>
        <time>2021-05-30T10:03:51Z</time>
      </trkpt>
      <trkpt lat="45.677516860887408" lon="8.018561750650406">
        <ele>1821.04</ele>
        <time>2021-05-30T10:04:06Z</time>
      </trkpt>
      <trkpt lat="45.67765474319458" lon="8.018425377085805">
        <ele>1823.3599999999999</ele>
        <time>2021-05-30T10:04:26Z</time>
      </trkpt>
      <trkpt lat="45.677739819511771" lon="8.018349520862103">
        <ele>1823.5699999999999</ele>
        <time>2021-05-30T10:04:41Z</time>
      </trkpt>
      <trkpt lat="45.677791703492403" lon="8.018270060420036">
        <ele>1824.1900000000001</ele>
        <time>2021-05-30T10:04:56Z</time>
      </trkpt>
      <trkpt lat="45.677863201126456" lon="8.018215326592326">
        <ele>1825.24</ele>
        <time>2021-05-30T10:05:11Z</time>
      </trkpt>
      <trkpt lat="45.677925311028957" lon="8.018110049888492">
        <ele>1826.8099999999999</ele>
        <time>2021-05-30T10:05:26Z</time>
      </trkpt>
      <trkpt lat="45.677996641024947" lon="8.018024554476142">
        <ele>1828.03</ele>
        <time>2021-05-30T10:05:44Z</time>
      </trkpt>
      <trkpt lat="45.678057326003909" lon="8.017979711294174">
        <ele>1829.5899999999999</ele>
        <time>2021-05-30T10:06:01Z</time>
      </trkpt>
      <trkpt lat="45.678112730383873" lon="8.01788566634059">
        <ele>1831.5999999999999</ele>
        <time>2021-05-30T10:06:17Z</time>
      </trkpt>
      <trkpt lat="45.678190346807241" lon="8.017798662185669">
        <ele>1833.55</ele>
        <time>2021-05-30T10:06:37Z</time>
      </trkpt>
      <trkpt lat="45.678236363455653" lon="8.017771169543266">
        <ele>1834.79</ele>
        <time>2021-05-30T10:06:53Z</time>
      </trkpt>
      <trkpt lat="45.678266705945134" lon="8.017708137631416">
        <ele>1836.5899999999999</ele>
        <time>2021-05-30T10:07:09Z</time>
      </trkpt>
      <trkpt lat="45.67830266430974" lon="8.017669580876827">
        <ele>1838.55</ele>
        <time>2021-05-30T10:07:26Z</time>
      </trkpt>
      <trkpt lat="45.67833736538887" lon="8.017670335248113">
        <ele>1839.78</ele>
        <time>2021-05-30T10:07:42Z</time>
      </trkpt>
      <trkpt lat="45.678329654037952" lon="8.017653152346611">
        <ele>1839.6099999999999</ele>
        <time>2021-05-30T10:08:06Z</time>
      </trkpt>
      <trkpt lat="45.678366115316749" lon="8.017600765451789">
        <ele>1841.73</ele>
        <time>2021-05-30T10:08:25Z</time>
      </trkpt>
      <trkpt lat="45.678396709263325" lon="8.017541589215398">
        <ele>1844.1700000000001</ele>
        <time>2021-05-30T10:08:39Z</time>
      </trkpt>
      <trkpt lat="45.67843652330339" lon="8.01752851344645">
        <ele>1845.8499999999999</ele>
        <time>2021-05-30T10:08:53Z</time>
      </trkpt>
      <trkpt lat="45.678463345393538" lon="8.017490459606051">
        <ele>1847.5599999999999</ele>
        <time>2021-05-30T10:09:07Z</time>
      </trkpt>
      <trkpt lat="45.678503327071667" lon="8.01743564195931">
        <ele>1849.51</ele>
        <time>2021-05-30T10:09:21Z</time>
      </trkpt>
      <trkpt lat="45.678538111969829" lon="8.017402617260814">
        <ele>1850.98</ele>
        <time>2021-05-30T10:09:35Z</time>
      </trkpt>
      <trkpt lat="45.67856652662158" lon="8.017390379682183">
        <ele>1851.3399999999999</ele>
        <time>2021-05-30T10:09:56Z</time>
      </trkpt>
      <trkpt lat="45.678585050627589" lon="8.017331203445792">
        <ele>1854.25</ele>
        <time>2021-05-30T10:10:11Z</time>
      </trkpt>
      <trkpt lat="45.678617991507053" lon="8.017306141555309">
        <ele>1856.0799999999999</ele>
        <time>2021-05-30T10:10:25Z</time>
      </trkpt>
      <trkpt lat="45.678653866052628" lon="8.017262388020754">
        <ele>1857</ele>
        <time>2021-05-30T10:10:43Z</time>
      </trkpt>
      <trkpt lat="45.678682196885347" lon="8.017249144613743">
        <ele>1857.78</ele>
        <time>2021-05-30T10:10:58Z</time>
      </trkpt>
      <trkpt lat="45.678720837458968" lon="8.017187202349305">
        <ele>1860.04</ele>
        <time>2021-05-30T10:11:15Z</time>
      </trkpt>
      <trkpt lat="45.678747994825244" lon="8.017131630331278">
        <ele>1862.1500000000001</ele>
        <time>2021-05-30T10:11:32Z</time>
      </trkpt>
      <trkpt lat="45.678762160241604" lon="8.017115201801062">
        <ele>1862.8800000000001</ele>
        <time>2021-05-30T10:11:48Z</time>
      </trkpt>
      <trkpt lat="45.678802141919732" lon="8.017075806856155">
        <ele>1864.9000000000001</ele>
        <time>2021-05-30T10:12:04Z</time>
      </trkpt>
      <trkpt lat="45.678831059485674" lon="8.017040183767676">
        <ele>1866.01</ele>
        <time>2021-05-30T10:12:22Z</time>
      </trkpt>
      <trkpt lat="45.678840195760131" lon="8.017019731923938">
        <ele>1866.8699999999999</ele>
        <time>2021-05-30T10:12:39Z</time>
      </trkpt>
      <trkpt lat="45.678837681189179" lon="8.016980336979032">
        <ele>1869.3900000000001</ele>
        <time>2021-05-30T10:12:57Z</time>
      </trkpt>
      <trkpt lat="45.67882502451539" lon="8.016938930377364">
        <ele>1871.3399999999999</ele>
        <time>2021-05-30T10:13:12Z</time>
      </trkpt>
      <trkpt lat="45.678827790543437" lon="8.016887633129954">
        <ele>1872.8499999999999</ele>
        <time>2021-05-30T10:13:27Z</time>
      </trkpt>
      <trkpt lat="45.678842458873987" lon="8.016860391944647">
        <ele>1874.1800000000001</ele>
        <time>2021-05-30T10:13:41Z</time>
      </trkpt>
      <trkpt lat="45.678841453045607" lon="8.016810100525618">
        <ele>1875.8499999999999</ele>
        <time>2021-05-30T10:13:56Z</time>
      </trkpt>
      <trkpt lat="45.678842291235924" lon="8.016778249293566">
        <ele>1877.1400000000001</ele>
        <time>2021-05-30T10:14:13Z</time>
      </trkpt>
      <trkpt lat="45.67883332259953" lon="8.016740446910262">
        <ele>1878.51</ele>
        <time>2021-05-30T10:14:26Z</time>
      </trkpt>
      <trkpt lat="45.678840698674321" lon="8.016745476052165">
        <ele>1878.24</ele>
        <time>2021-05-30T10:14:41Z</time>
      </trkpt>
      <trkpt lat="45.678858049213886" lon="8.016749834641814">
        <ele>1878.1600000000001</ele>
        <time>2021-05-30T10:14:55Z</time>
      </trkpt>
      <trkpt lat="45.678858049213886" lon="8.016741201281548">
        <ele>1878.4300000000001</ele>
        <time>2021-05-30T10:15:19Z</time>
      </trkpt>
      <trkpt lat="45.678871963173151" lon="8.016732484102249">
        <ele>1878.3299999999999</ele>
        <time>2021-05-30T10:16:24Z</time>
      </trkpt>
      <trkpt lat="45.678871711716056" lon="8.016732232645154">
        <ele>1878.3900000000001</ele>
        <time>2021-05-30T10:17:26Z</time>
      </trkpt>
      <trkpt lat="45.678858468309045" lon="8.016745056957007">
        <ele>1879.51</ele>
        <time>2021-05-30T10:17:50Z</time>
      </trkpt>
      <trkpt lat="45.678852265700698" lon="8.016735753044486">
        <ele>1879.4100000000001</ele>
        <time>2021-05-30T10:18:13Z</time>
      </trkpt>
      <trkpt lat="45.678877746686339" lon="8.016695352271199">
        <ele>1881.1300000000001</ele>
        <time>2021-05-30T10:18:27Z</time>
      </trkpt>
      <trkpt lat="45.678881434723735" lon="8.016665261238813">
        <ele>1881.6500000000001</ele>
        <time>2021-05-30T10:18:50Z</time>
      </trkpt>
      <trkpt lat="45.678882524371147" lon="8.016670625656843">
        <ele>1881.9000000000001</ele>
        <time>2021-05-30T10:19:14Z</time>
      </trkpt>
      <trkpt lat="45.678877495229244" lon="8.016682779416442">
        <ele>1881.2</ele>
        <time>2021-05-30T10:19:36Z</time>
      </trkpt>
      <trkpt lat="45.678889900445938" lon="8.016684707254171">
        <ele>1881.6199999999999</ele>
        <time>2021-05-30T10:19:55Z</time>
      </trkpt>
      <trkpt lat="45.678881937637925" lon="8.016676157712936">
        <ele>1881.3099999999999</ele>
        <time>2021-05-30T10:20:23Z</time>
      </trkpt>
      <trkpt lat="45.678886044770479" lon="8.016671128571034">
        <ele>1881.77</ele>
        <time>2021-05-30T10:20:51Z</time>
      </trkpt>
      <trkpt lat="45.678891073912382" lon="8.016668697819114">
        <ele>1881.9000000000001</ele>
        <time>2021-05-30T10:21:38Z</time>
      </trkpt>
      <trkpt lat="45.678892582654953" lon="8.016665177419782">
        <ele>1881.97</ele>
        <time>2021-05-30T10:22:16Z</time>
      </trkpt>
      <trkpt lat="45.678895013406873" lon="8.016663668677211">
        <ele>1881.1500000000001</ele>
        <time>2021-05-30T10:22:50Z</time>
      </trkpt>
      <trkpt lat="45.67889291793108" lon="8.016674900427461">
        <ele>1881.77</ele>
        <time>2021-05-30T10:23:09Z</time>
      </trkpt>
      <trkpt lat="45.678975312039256" lon="8.016642043367028">
        <ele>1882.72</ele>
        <time>2021-05-30T10:23:32Z</time>
      </trkpt>
      <trkpt lat="45.679016718640924" lon="8.016677666455507">
        <ele>1881.1300000000001</ele>
        <time>2021-05-30T10:23:44Z</time>
      </trkpt>
      <trkpt lat="45.679046642035246" lon="8.016719156876206">
        <ele>1878.77</ele>
        <time>2021-05-30T10:24:01Z</time>
      </trkpt>
      <trkpt lat="45.679076900705695" lon="8.016746900975704">
        <ele>1876.6400000000001</ele>
        <time>2021-05-30T10:24:14Z</time>
      </trkpt>
      <trkpt lat="45.679112272337079" lon="8.016767352819443">
        <ele>1874.78</ele>
        <time>2021-05-30T10:24:30Z</time>
      </trkpt>
      <trkpt lat="45.679142698645592" lon="8.016787469387054">
        <ele>1873.25</ele>
        <time>2021-05-30T10:24:48Z</time>
      </trkpt>
      <trkpt lat="45.679190307855606" lon="8.016792079433799">
        <ele>1871.5899999999999</ele>
        <time>2021-05-30T10:25:04Z</time>
      </trkpt>
      <trkpt lat="45.679251411929727" lon="8.016786966472864">
        <ele>1868.8800000000001</ele>
        <time>2021-05-30T10:25:20Z</time>
      </trkpt>
      <trkpt lat="45.679277395829558" lon="8.016815800219774">
        <ele>1867.9200000000001</ele>
        <time>2021-05-30T10:25:39Z</time>
      </trkpt>
      <trkpt lat="45.679299524053931" lon="8.01683709025383">
        <ele>1866.76</ele>
        <time>2021-05-30T10:25:55Z</time>
      </trkpt>
      <trkpt lat="45.679327854886651" lon="8.016871958971024">
        <ele>1864.6900000000001</ele>
        <time>2021-05-30T10:26:09Z</time>
      </trkpt>
      <trkpt lat="45.679387534037232" lon="8.016907833516598">
        <ele>1861.5699999999999</ele>
        <time>2021-05-30T10:26:20Z</time>
      </trkpt>
      <trkpt lat="45.679412595927715" lon="8.016912024468184">
        <ele>1861.4200000000001</ele>
        <time>2021-05-30T10:26:41Z</time>
      </trkpt>
      <trkpt lat="45.679445955902338" lon="8.016937840729952">
        <ele>1860.3199999999999</ele>
        <time>2021-05-30T10:26:54Z</time>
      </trkpt>
      <trkpt lat="45.679466240108013" lon="8.016952089965344">
        <ele>1859.96</ele>
        <time>2021-05-30T10:26:56Z</time>
      </trkpt>
      <trkpt lat="45.679563386365771" lon="8.016965249553323">
        <ele>1859.1900000000001</ele>
        <time>2021-05-30T10:27:10Z</time>
      </trkpt>
      <trkpt lat="45.679593393579125" lon="8.01697782240808">
        <ele>1859.22</ele>
        <time>2021-05-30T10:27:27Z</time>
      </trkpt>
      <trkpt lat="45.679607558995485" lon="8.016987042501569">
        <ele>1859.3299999999999</ele>
        <time>2021-05-30T10:27:54Z</time>
      </trkpt>
      <trkpt lat="45.67965374328196" lon="8.016979498788714">
        <ele>1859.21</ele>
        <time>2021-05-30T10:28:11Z</time>
      </trkpt>
      <trkpt lat="45.679700179025531" lon="8.016985785216093">
        <ele>1857.77</ele>
        <time>2021-05-30T10:28:27Z</time>
      </trkpt>
      <trkpt lat="45.679708477109671" lon="8.016982180997729">
        <ele>1857.6700000000001</ele>
        <time>2021-05-30T10:28:57Z</time>
      </trkpt>
      <trkpt lat="45.679719876497984" lon="8.017009757459164">
        <ele>1856.25</ele>
        <time>2021-05-30T10:29:17Z</time>
      </trkpt>
      <trkpt lat="45.679731108248234" lon="8.017025431618094">
        <ele>1854.6400000000001</ele>
        <time>2021-05-30T10:29:26Z</time>
      </trkpt>
      <trkpt lat="45.679768826812506" lon="8.017039345577359">
        <ele>1853.3399999999999</ele>
        <time>2021-05-30T10:29:44Z</time>
      </trkpt>
      <trkpt lat="45.679788189008832" lon="8.017049739137292">
        <ele>1852.5699999999999</ele>
        <time>2021-05-30T10:30:01Z</time>
      </trkpt>
      <trkpt lat="45.679820794612169" lon="8.017047978937626">
        <ele>1851.46</ele>
        <time>2021-05-30T10:30:19Z</time>
      </trkpt>
      <trkpt lat="45.679878210648894" lon="8.017129953950644">
        <ele>1848.4200000000001</ele>
        <time>2021-05-30T10:30:33Z</time>
      </trkpt>
      <trkpt lat="45.679887346923351" lon="8.017140263691545">
        <ele>1848.22</ele>
        <time>2021-05-30T10:30:34Z</time>
      </trkpt>
      <trkpt lat="45.679975105449557" lon="8.017192985862494">
        <ele>1845.9100000000001</ele>
        <time>2021-05-30T10:30:49Z</time>
      </trkpt>
      <trkpt lat="45.67999430000782" lon="8.017199691385031">
        <ele>1845.5799999999999</ele>
        <time>2021-05-30T10:30:51Z</time>
      </trkpt>
      <trkpt lat="45.68006219342351" lon="8.017260292544961">
        <ele>1844.1300000000001</ele>
        <time>2021-05-30T10:30:58Z</time>
      </trkpt>
      <trkpt lat="45.68019269965589" lon="8.01732131280005">
        <ele>1843.03</ele>
        <time>2021-05-30T10:31:12Z</time>
      </trkpt>
      <trkpt lat="45.680258497595787" lon="8.017378812655807">
        <ele>1841.5699999999999</ele>
        <time>2021-05-30T10:31:27Z</time>
      </trkpt>
      <trkpt lat="45.68036176264286" lon="8.017430948093534">
        <ele>1840.49</ele>
        <time>2021-05-30T10:31:43Z</time>
      </trkpt>
      <trkpt lat="45.680371653288603" lon="8.017437988892198">
        <ele>1840.21</ele>
        <time>2021-05-30T10:32:05Z</time>
      </trkpt>
      <trkpt lat="45.680389842018485" lon="8.017445951700211">
        <ele>1839.8800000000001</ele>
        <time>2021-05-30T10:32:23Z</time>
      </trkpt>
      <trkpt lat="45.680457148700953" lon="8.017452154308558">
        <ele>1838.0799999999999</ele>
        <time>2021-05-30T10:32:41Z</time>
      </trkpt>
      <trkpt lat="45.680551193654537" lon="8.017515605315566">
        <ele>1835.3900000000001</ele>
        <time>2021-05-30T10:32:56Z</time>
      </trkpt>
      <trkpt lat="45.680614057928324" lon="8.017545947805047">
        <ele>1833.79</ele>
        <time>2021-05-30T10:33:05Z</time>
      </trkpt>
      <trkpt lat="45.680640880018473" lon="8.017553994432092">
        <ele>1833</ele>
        <time>2021-05-30T10:33:08Z</time>
      </trkpt>
      <trkpt lat="45.680659068748355" lon="8.01755977794528">
        <ele>1832.9100000000001</ele>
        <time>2021-05-30T10:33:10Z</time>
      </trkpt>
      <trkpt lat="45.680810278281569" lon="8.01758274435997">
        <ele>1830.6700000000001</ele>
        <time>2021-05-30T10:33:25Z</time>
      </trkpt>
      <trkpt lat="45.680918321013451" lon="8.01757981069386">
        <ele>1830.25</ele>
        <time>2021-05-30T10:33:38Z</time>
      </trkpt>
      <trkpt lat="45.681015970185399" lon="8.017542595043778">
        <ele>1830.8399999999999</ele>
        <time>2021-05-30T10:33:55Z</time>
      </trkpt>
      <trkpt lat="45.681085372343659" lon="8.017508899793029">
        <ele>1830.3199999999999</ele>
        <time>2021-05-30T10:34:09Z</time>
      </trkpt>
      <trkpt lat="45.681160222738981" lon="8.017488028854132">
        <ele>1829.3099999999999</ele>
        <time>2021-05-30T10:34:25Z</time>
      </trkpt>
      <trkpt lat="45.681213364005089" lon="8.017458189278841">
        <ele>1829.28</ele>
        <time>2021-05-30T10:34:42Z</time>
      </trkpt>
      <trkpt lat="45.681239431723952" lon="8.017452321946621">
        <ele>1829.1400000000001</ele>
        <time>2021-05-30T10:34:50Z</time>
      </trkpt>
      <trkpt lat="45.681350491940975" lon="8.017440419644117">
        <ele>1829.4400000000001</ele>
        <time>2021-05-30T10:35:04Z</time>
      </trkpt>
      <trkpt lat="45.681401118636131" lon="8.017390044406056">
        <ele>1828.98</ele>
        <time>2021-05-30T10:35:22Z</time>
      </trkpt>
      <trkpt lat="45.681490134447813" lon="8.017354505136609">
        <ele>1829.1700000000001</ele>
        <time>2021-05-30T10:35:37Z</time>
      </trkpt>
      <trkpt lat="45.681517794728279" lon="8.017361965030432">
        <ele>1829.77</ele>
        <time>2021-05-30T10:35:50Z</time>
      </trkpt>
      <trkpt lat="45.68160773254931" lon="8.017312092706561">
        <ele>1829.9400000000001</ele>
        <time>2021-05-30T10:36:07Z</time>
      </trkpt>
      <trkpt lat="45.681688534095883" lon="8.017298765480518">
        <ele>1830.24</ele>
        <time>2021-05-30T10:36:21Z</time>
      </trkpt>
      <trkpt lat="45.681745698675513" lon="8.017290635034442">
        <ele>1831.3199999999999</ele>
        <time>2021-05-30T10:36:37Z</time>
      </trkpt>
      <trkpt lat="45.681801773607731" lon="8.017254760488868">
        <ele>1832.47</ele>
        <time>2021-05-30T10:36:53Z</time>
      </trkpt>
      <trkpt lat="45.681844186037779" lon="8.017238918691874">
        <ele>1833.29</ele>
        <time>2021-05-30T10:37:22Z</time>
      </trkpt>
      <trkpt lat="45.681934626773" lon="8.017204301431775">
        <ele>1835.76</ele>
        <time>2021-05-30T10:37:39Z</time>
      </trkpt>
      <trkpt lat="45.682058930397034" lon="8.017230117693543">
        <ele>1838.9300000000001</ele>
        <time>2021-05-30T10:37:59Z</time>
      </trkpt>
      <trkpt lat="45.682149035856128" lon="8.017251072451472">
        <ele>1839.6900000000001</ele>
        <time>2021-05-30T10:38:12Z</time>
      </trkpt>
      <trkpt lat="45.682262694463134" lon="8.017289629206061">
        <ele>1841.02</ele>
        <time>2021-05-30T10:38:28Z</time>
      </trkpt>
      <trkpt lat="45.682376604527235" lon="8.017321731895208">
        <ele>1841.55</ele>
        <time>2021-05-30T10:38:44Z</time>
      </trkpt>
      <trkpt lat="45.682433014735579" lon="8.017280157655478">
        <ele>1842.3499999999999</ele>
        <time>2021-05-30T10:39:00Z</time>
      </trkpt>
      <trkpt lat="45.682487245649099" lon="8.017284097149968">
        <ele>1841.9200000000001</ele>
        <time>2021-05-30T10:39:14Z</time>
      </trkpt>
      <trkpt lat="45.682493029162288" lon="8.017294239252806">
        <ele>1841.79</ele>
        <time>2021-05-30T10:39:36Z</time>
      </trkpt>
      <trkpt lat="45.682551870122552" lon="8.017270099371672">
        <ele>1842.23</ele>
        <time>2021-05-30T10:39:53Z</time>
      </trkpt>
      <trkpt lat="45.682621859014034" lon="8.017256520688534">
        <ele>1841.3199999999999</ele>
        <time>2021-05-30T10:40:07Z</time>
      </trkpt>
      <trkpt lat="45.682740798220038" lon="8.017215952277184">
        <ele>1840.3900000000001</ele>
        <time>2021-05-30T10:40:26Z</time>
      </trkpt>
      <trkpt lat="45.682809026911855" lon="8.017164319753647">
        <ele>1840.4200000000001</ele>
        <time>2021-05-30T10:40:42Z</time>
      </trkpt>
      <trkpt lat="45.682902233675122" lon="8.017110843211412">
        <ele>1839.52</ele>
        <time>2021-05-30T10:40:56Z</time>
      </trkpt>
      <trkpt lat="45.68297297693789" lon="8.017082009464502">
        <ele>1840.73</ele>
        <time>2021-05-30T10:41:13Z</time>
      </trkpt>
      <trkpt lat="45.682978676632047" lon="8.017062647268176">
        <ele>1841.5699999999999</ele>
        <time>2021-05-30T10:41:33Z</time>
      </trkpt>
      <trkpt lat="45.683057047426701" lon="8.017008919268847">
        <ele>1842.8299999999999</ele>
        <time>2021-05-30T10:41:54Z</time>
      </trkpt>
      <trkpt lat="45.683088898658752" lon="8.017002632841468">
        <ele>1842.9100000000001</ele>
        <time>2021-05-30T10:41:58Z</time>
      </trkpt>
      <trkpt lat="45.683196438476443" lon="8.016921328380704">
        <ele>1844.9000000000001</ele>
        <time>2021-05-30T10:42:17Z</time>
      </trkpt>
      <trkpt lat="45.683278329670429" lon="8.016858045011759">
        <ele>1846.5699999999999</ele>
        <time>2021-05-30T10:42:35Z</time>
      </trkpt>
      <trkpt lat="45.683392910286784" lon="8.016853099688888">
        <ele>1847.72</ele>
        <time>2021-05-30T10:42:54Z</time>
      </trkpt>
      <trkpt lat="45.683390228077769" lon="8.01684488542378">
        <ele>1847.6400000000001</ele>
        <time>2021-05-30T10:43:25Z</time>
      </trkpt>
      <trkpt lat="45.683459546416998" lon="8.01679752767086">
        <ele>1849.77</ele>
        <time>2021-05-30T10:43:39Z</time>
      </trkpt>
      <trkpt lat="45.683598937466741" lon="8.01675159484148">
        <ele>1852.0799999999999</ele>
        <time>2021-05-30T10:43:57Z</time>
      </trkpt>
      <trkpt lat="45.683697089552879" lon="8.01667389459908">
        <ele>1854.71</ele>
        <time>2021-05-30T10:44:14Z</time>
      </trkpt>
      <trkpt lat="45.683789039030671" lon="8.016638355329633">
        <ele>1855.9000000000001</ele>
        <time>2021-05-30T10:44:27Z</time>
      </trkpt>
      <trkpt lat="45.683947708457708" lon="8.016566187143326">
        <ele>1858.3</ele>
        <time>2021-05-30T10:44:47Z</time>
      </trkpt>
      <trkpt lat="45.684041082859039" lon="8.016580101102591">
        <ele>1860.5899999999999</ele>
        <time>2021-05-30T10:45:06Z</time>
      </trkpt>
      <trkpt lat="45.684050470590591" lon="8.01658152602613">
        <ele>1857.27</ele>
        <time>2021-05-30T10:45:20Z</time>
      </trkpt>
      <trkpt lat="45.684050638228655" lon="8.016581106930971">
        <ele>1862.4300000000001</ele>
        <time>2021-05-30T10:45:22Z</time>
      </trkpt>
      <trkpt lat="45.684056421741843" lon="8.016580436378717">
        <ele>1861.1300000000001</ele>
        <time>2021-05-30T10:45:23Z</time>
      </trkpt>
      <trkpt lat="45.684074945747852" lon="8.016578759998083">
        <ele>1860.21</ele>
        <time>2021-05-30T10:45:25Z</time>
      </trkpt>
      <trkpt lat="45.684169577434659" lon="8.016583872959018">
        <ele>1862.8399999999999</ele>
        <time>2021-05-30T10:45:40Z</time>
      </trkpt>
      <trkpt lat="45.684241242706776" lon="8.016572473570705">
        <ele>1864.9100000000001</ele>
        <time>2021-05-30T10:45:57Z</time>
      </trkpt>
      <trkpt lat="45.68424878641963" lon="8.016579849645495">
        <ele>1864.8900000000001</ele>
        <time>2021-05-30T10:46:16Z</time>
      </trkpt>
      <trkpt lat="45.684259347617626" lon="8.016565600410104">
        <ele>1865.5999999999999</ele>
        <time>2021-05-30T10:46:24Z</time>
      </trkpt>
      <trkpt lat="45.684305028989911" lon="8.016507178544998">
        <ele>1866.3800000000001</ele>
        <time>2021-05-30T10:46:40Z</time>
      </trkpt>
      <trkpt lat="45.684372168034315" lon="8.016535341739655">
        <ele>1868.9400000000001</ele>
        <time>2021-05-30T10:46:55Z</time>
      </trkpt>
      <trkpt lat="45.684458753094077" lon="8.016544478014112">
        <ele>1870.75</ele>
        <time>2021-05-30T10:47:11Z</time>
      </trkpt>
      <trkpt lat="45.684599569067359" lon="8.016558894887567">
        <ele>1872.77</ele>
        <time>2021-05-30T10:47:31Z</time>
      </trkpt>
      <trkpt lat="45.684773745015264" lon="8.016558224335313">
        <ele>1873.8399999999999</ele>
        <time>2021-05-30T10:47:51Z</time>
      </trkpt>
      <trkpt lat="45.684792269021273" lon="8.016559984534979">
        <ele>1873.46</ele>
        <time>2021-05-30T10:47:53Z</time>
      </trkpt>
      <trkpt lat="45.684945657849312" lon="8.016553111374378">
        <ele>1871.8599999999999</ele>
        <time>2021-05-30T10:48:10Z</time>
      </trkpt>
      <trkpt lat="45.685066524893045" lon="8.016633996739984">
        <ele>1870.49</ele>
        <time>2021-05-30T10:48:26Z</time>
      </trkpt>
      <trkpt lat="45.68520407192409" lon="8.016686635091901">
        <ele>1869.8199999999999</ele>
        <time>2021-05-30T10:48:43Z</time>
      </trkpt>
      <trkpt lat="45.685267942026258" lon="8.01669635809958">
        <ele>1869.9200000000001</ele>
        <time>2021-05-30T10:48:56Z</time>
      </trkpt>
      <trkpt lat="45.685352180153131" lon="8.01671396009624">
        <ele>1869.3199999999999</ele>
        <time>2021-05-30T10:49:13Z</time>
      </trkpt>
      <trkpt lat="45.68537749350071" lon="8.016731729730964">
        <ele>1868.8099999999999</ele>
        <time>2021-05-30T10:49:30Z</time>
      </trkpt>
      <trkpt lat="45.685451421886683" lon="8.01671982742846">
        <ele>1867.3800000000001</ele>
        <time>2021-05-30T10:49:50Z</time>
      </trkpt>
      <trkpt lat="45.685481848195195" lon="8.016718989238143">
        <ele>1867.05</ele>
        <time>2021-05-30T10:50:03Z</time>
      </trkpt>
      <trkpt lat="45.685484362766147" lon="8.016730220988393">
        <ele>1866.3199999999999</ele>
        <time>2021-05-30T10:50:18Z</time>
      </trkpt>
      <trkpt lat="45.685496600344777" lon="8.01673399284482">
        <ele>1866.3</ele>
        <time>2021-05-30T10:50:57Z</time>
      </trkpt>
      <trkpt lat="45.685490733012557" lon="8.016728460788727">
        <ele>1866.25</ele>
        <time>2021-05-30T10:51:26Z</time>
      </trkpt>
      <trkpt lat="45.685494421049953" lon="8.016725443303585">
        <ele>1866.1400000000001</ele>
        <time>2021-05-30T10:51:56Z</time>
      </trkpt>
      <trkpt lat="45.68549576215446" lon="8.016724102199078">
        <ele>1866.0799999999999</ele>
        <time>2021-05-30T10:52:26Z</time>
      </trkpt>
      <trkpt lat="45.685500456020236" lon="8.016729131340981">
        <ele>1866.1400000000001</ele>
        <time>2021-05-30T10:52:56Z</time>
      </trkpt>
      <trkpt lat="45.685489308089018" lon="8.016727119684219">
        <ele>1866.04</ele>
        <time>2021-05-30T10:53:27Z</time>
      </trkpt>
      <trkpt lat="45.685478243976831" lon="8.016719408333302">
        <ele>1866.04</ele>
        <time>2021-05-30T10:53:58Z</time>
      </trkpt>
      <trkpt lat="45.685479585081339" lon="8.016717731952667">
        <ele>1866.1600000000001</ele>
        <time>2021-05-30T10:54:28Z</time>
      </trkpt>
      <trkpt lat="45.685490816831589" lon="8.016723683103919">
        <ele>1866.25</ele>
        <time>2021-05-30T10:54:55Z</time>
      </trkpt>
      <trkpt lat="45.685499617829919" lon="8.016726616770029">
        <ele>1866.1700000000001</ele>
        <time>2021-05-30T10:55:39Z</time>
      </trkpt>
      <trkpt lat="45.685506071895361" lon="8.016734579578042">
        <ele>1866.1600000000001</ele>
        <time>2021-05-30T10:56:10Z</time>
      </trkpt>
      <trkpt lat="45.685508921742439" lon="8.016727706417441">
        <ele>1865.8699999999999</ele>
        <time>2021-05-30T10:56:49Z</time>
      </trkpt>
      <trkpt lat="45.68551529198885" lon="8.016731478273869">
        <ele>1865.71</ele>
        <time>2021-05-30T10:57:31Z</time>
      </trkpt>
      <trkpt lat="45.685496684163809" lon="8.016716809943318">
        <ele>1866.04</ele>
        <time>2021-05-30T10:58:01Z</time>
      </trkpt>
      <trkpt lat="45.685488637536764" lon="8.016718905419111">
        <ele>1865.97</ele>
        <time>2021-05-30T10:58:36Z</time>
      </trkpt>
      <trkpt lat="45.685482602566481" lon="8.016719408333302">
        <ele>1865.96</ele>
        <time>2021-05-30T10:59:05Z</time>
      </trkpt>
      <trkpt lat="45.685477489605546" lon="8.016713373363018">
        <ele>1865.9300000000001</ele>
        <time>2021-05-30T10:59:32Z</time>
      </trkpt>
      <trkpt lat="45.685475142672658" lon="8.016719575971365">
        <ele>1866.1400000000001</ele>
        <time>2021-05-30T11:00:06Z</time>
      </trkpt>
      <trkpt lat="45.68547623232007" lon="8.016712032258511">
        <ele>1866.0699999999999</ele>
        <time>2021-05-30T11:01:05Z</time>
      </trkpt>
      <trkpt lat="45.685478746891022" lon="8.016712116077542">
        <ele>1866.27</ele>
        <time>2021-05-30T11:02:12Z</time>
      </trkpt>
      <trkpt lat="45.685480507090688" lon="8.016714295372367">
        <ele>1866.1199999999999</ele>
        <time>2021-05-30T11:03:14Z</time>
      </trkpt>
      <trkpt lat="45.685482854023576" lon="8.016717480495572">
        <ele>1866.01</ele>
        <time>2021-05-30T11:04:25Z</time>
      </trkpt>
      <trkpt lat="45.685483692213893" lon="8.016715468838811">
        <ele>1865.99</ele>
        <time>2021-05-30T11:05:35Z</time>
      </trkpt>
      <trkpt lat="45.68548352457583" lon="8.016719492152333">
        <ele>1866.1099999999999</ele>
        <time>2021-05-30T11:06:36Z</time>
      </trkpt>
      <trkpt lat="45.685493415221572" lon="8.016721503809094">
        <ele>1866.27</ele>
        <time>2021-05-30T11:07:01Z</time>
      </trkpt>
      <trkpt lat="45.685492493212223" lon="8.016727203503251">
        <ele>1866.1199999999999</ele>
        <time>2021-05-30T11:07:36Z</time>
      </trkpt>
      <trkpt lat="45.685483021661639" lon="8.016728879883885">
        <ele>1866.24</ele>
        <time>2021-05-30T11:08:07Z</time>
      </trkpt>
      <trkpt lat="45.685473131015897" lon="8.016735585406423">
        <ele>1866.27</ele>
        <time>2021-05-30T11:09:23Z</time>
      </trkpt>
      <trkpt lat="45.685471957549453" lon="8.01673742942512">
        <ele>1866.6500000000001</ele>
        <time>2021-05-30T11:10:33Z</time>
      </trkpt>
      <trkpt lat="45.685472209006548" lon="8.016738016158342">
        <ele>1866.71</ele>
        <time>2021-05-30T11:11:42Z</time>
      </trkpt>
      <trkpt lat="45.685473382472992" lon="8.016737261787057">
        <ele>1866.77</ele>
        <time>2021-05-30T11:12:52Z</time>
      </trkpt>
      <trkpt lat="45.68547279573977" lon="8.016735753044486">
        <ele>1866.9100000000001</ele>
        <time>2021-05-30T11:14:00Z</time>
      </trkpt>
      <trkpt lat="45.685472209006548" lon="8.016735417768359">
        <ele>1867.03</ele>
        <time>2021-05-30T11:15:12Z</time>
      </trkpt>
      <trkpt lat="45.685477405786514" lon="8.016731897369027">
        <ele>1867.0999999999999</ele>
        <time>2021-05-30T11:16:24Z</time>
      </trkpt>
      <trkpt lat="45.685487631708384" lon="8.016734579578042">
        <ele>1868.28</ele>
        <time>2021-05-30T11:16:42Z</time>
      </trkpt>
      <trkpt lat="45.685491571202874" lon="8.016763664782047">
        <ele>1868.4400000000001</ele>
        <time>2021-05-30T11:16:50Z</time>
      </trkpt>
      <trkpt lat="45.685504814609885" lon="8.016932811588049">
        <ele>1866.8699999999999</ele>
        <time>2021-05-30T11:17:07Z</time>
      </trkpt>
      <trkpt lat="45.685520656406879" lon="8.016956029459834">
        <ele>1864.3599999999999</ele>
        <time>2021-05-30T11:17:20Z</time>
      </trkpt>
      <trkpt lat="45.685505485162139" lon="8.016951754689217">
        <ele>1864.0699999999999</ele>
        <time>2021-05-30T11:18:13Z</time>
      </trkpt>
      <trkpt lat="45.685512609779835" lon="8.016957873478532">
        <ele>1864.3900000000001</ele>
        <time>2021-05-30T11:18:46Z</time>
      </trkpt>
      <trkpt lat="45.685525601729751" lon="8.016933063045144">
        <ele>1863.8800000000001</ele>
        <time>2021-05-30T11:19:16Z</time>
      </trkpt>
      <trkpt lat="45.685523003339767" lon="8.016931805759668">
        <ele>1863.99</ele>
        <time>2021-05-30T11:19:43Z</time>
      </trkpt>
      <trkpt lat="45.685519315302372" lon="8.016940606757999">
        <ele>1863.8</ele>
        <time>2021-05-30T11:20:55Z</time>
      </trkpt>
      <trkpt lat="45.685515627264977" lon="8.016936834901571">
        <ele>1864.0699999999999</ele>
        <time>2021-05-30T11:22:08Z</time>
      </trkpt>
      <trkpt lat="45.685526104643941" lon="8.016930548474193">
        <ele>1864.23</ele>
        <time>2021-05-30T11:23:03Z</time>
      </trkpt>
      <trkpt lat="45.68552509881556" lon="8.016920909285545">
        <ele>1864.3900000000001</ele>
        <time>2021-05-30T11:23:58Z</time>
      </trkpt>
      <trkpt lat="45.685528451576829" lon="8.016913281753659">
        <ele>1864.4000000000001</ele>
        <time>2021-05-30T11:25:13Z</time>
      </trkpt>
      <trkpt lat="45.685528451576829" lon="8.016911605373025">
        <ele>1864.3199999999999</ele>
        <time>2021-05-30T11:26:23Z</time>
      </trkpt>
      <trkpt lat="45.685528200119734" lon="8.016915377229452">
        <ele>1864.1300000000001</ele>
        <time>2021-05-30T11:27:18Z</time>
      </trkpt>
      <trkpt lat="45.685522332787514" lon="8.016927279531956">
        <ele>1865.1600000000001</ele>
        <time>2021-05-30T11:27:52Z</time>
      </trkpt>
      <trkpt lat="45.685509005561471" lon="8.016938343644142">
        <ele>1864.9000000000001</ele>
        <time>2021-05-30T11:28:17Z</time>
      </trkpt>
      <trkpt lat="45.685503138229251" lon="8.01694362424314">
        <ele>1864.9100000000001</ele>
        <time>2021-05-30T11:28:38Z</time>
      </trkpt>
      <trkpt lat="45.685502383857965" lon="8.01694069057703">
        <ele>1865.3</ele>
        <time>2021-05-30T11:28:59Z</time>
      </trkpt>
      <trkpt lat="45.685507664456964" lon="8.01694362424314">
        <ele>1865.3</ele>
        <time>2021-05-30T11:29:20Z</time>
      </trkpt>
      <trkpt lat="45.685513280332088" lon="8.016942786052823">
        <ele>1865.1300000000001</ele>
        <time>2021-05-30T11:29:39Z</time>
      </trkpt>
      <trkpt lat="45.685516800731421" lon="8.016947312280536">
        <ele>1865.1199999999999</ele>
        <time>2021-05-30T11:30:00Z</time>
      </trkpt>
      <trkpt lat="45.685513950884342" lon="8.016955861821771">
        <ele>1864.8699999999999</ele>
        <time>2021-05-30T11:30:17Z</time>
      </trkpt>
      <trkpt lat="45.685507161542773" lon="8.016947479918599">
        <ele>1864.73</ele>
        <time>2021-05-30T11:30:45Z</time>
      </trkpt>
      <trkpt lat="45.685505820438266" lon="8.016952006146312">
        <ele>1864.8099999999999</ele>
        <time>2021-05-30T11:31:06Z</time>
      </trkpt>
      <trkpt lat="45.685504646971822" lon="8.016952760517597">
        <ele>1864.8399999999999</ele>
        <time>2021-05-30T11:31:23Z</time>
      </trkpt>
      <trkpt lat="45.685502300038934" lon="8.016947647556663">
        <ele>1864.72</ele>
        <time>2021-05-30T11:31:39Z</time>
      </trkpt>
      <trkpt lat="45.685500372201204" lon="8.01694949157536">
        <ele>1864.71</ele>
        <time>2021-05-30T11:31:59Z</time>
      </trkpt>
      <trkpt lat="45.685503976419568" lon="8.016952509060502">
        <ele>1864.54</ele>
        <time>2021-05-30T11:32:23Z</time>
      </trkpt>
      <trkpt lat="45.68551529198885" lon="8.016936080530286">
        <ele>1865.0999999999999</ele>
        <time>2021-05-30T11:32:44Z</time>
      </trkpt>
      <trkpt lat="45.685541946440935" lon="8.016961226239801">
        <ele>1864.27</ele>
        <time>2021-05-30T11:33:20Z</time>
      </trkpt>
      <trkpt lat="45.685553513467312" lon="8.016977570950985">
        <ele>1864.1199999999999</ele>
        <time>2021-05-30T11:33:22Z</time>
      </trkpt>
      <trkpt lat="45.685604056343436" lon="8.017020151019096">
        <ele>1863.28</ele>
        <time>2021-05-30T11:33:27Z</time>
      </trkpt>
      <trkpt lat="45.685695754364133" lon="8.017086619511247">
        <ele>1861.6099999999999</ele>
        <time>2021-05-30T11:33:38Z</time>
      </trkpt>
      <trkpt lat="45.685804719105363" lon="8.017131797969341">
        <ele>1860.0999999999999</ele>
        <time>2021-05-30T11:33:54Z</time>
      </trkpt>
      <trkpt lat="45.685848305001855" lon="8.017223076894879">
        <ele>1857.76</ele>
        <time>2021-05-30T11:34:05Z</time>
      </trkpt>
      <trkpt lat="45.685935225337744" lon="8.017329527065158">
        <ele>1856.26</ele>
        <time>2021-05-30T11:34:19Z</time>
      </trkpt>
      <trkpt lat="45.685984175652266" lon="8.017403120175004">
        <ele>1854.8599999999999</ele>
        <time>2021-05-30T11:34:26Z</time>
      </trkpt>
      <trkpt lat="45.685918545350432" lon="8.017427260056138">
        <ele>1852.01</ele>
        <time>2021-05-30T11:34:37Z</time>
      </trkpt>
      <trkpt lat="45.685866661369801" lon="8.017476461827755">
        <ele>1849.4200000000001</ele>
        <time>2021-05-30T11:34:52Z</time>
      </trkpt>
      <trkpt lat="45.685916533693671" lon="8.017549384385347">
        <ele>1847.9100000000001</ele>
        <time>2021-05-30T11:35:00Z</time>
      </trkpt>
      <trkpt lat="45.685989875346422" lon="8.017653068527579">
        <ele>1845.8599999999999</ele>
        <time>2021-05-30T11:35:16Z</time>
      </trkpt>
      <trkpt lat="45.686070173978806" lon="8.017746610566974">
        <ele>1844.3299999999999</ele>
        <time>2021-05-30T11:35:33Z</time>
      </trkpt>
      <trkpt lat="45.686088278889656" lon="8.017836716026068">
        <ele>1842.1900000000001</ele>
        <time>2021-05-30T11:35:48Z</time>
      </trkpt>
      <trkpt lat="45.686105042695999" lon="8.017887007445097">
        <ele>1841.6500000000001</ele>
        <time>2021-05-30T11:35:52Z</time>
      </trkpt>
      <trkpt lat="45.686166901141405" lon="8.017974682152271">
        <ele>1840.74</ele>
        <time>2021-05-30T11:36:01Z</time>
      </trkpt>
      <trkpt lat="45.686214091256261" lon="8.018083730712533">
        <ele>1839.46</ele>
        <time>2021-05-30T11:36:15Z</time>
      </trkpt>
      <trkpt lat="45.686240494251251" lon="8.018222954124212">
        <ele>1836.52</ele>
        <time>2021-05-30T11:36:31Z</time>
      </trkpt>
      <trkpt lat="45.686265472322702" lon="8.018356980755925">
        <ele>1834.3199999999999</ele>
        <time>2021-05-30T11:36:46Z</time>
      </trkpt>
      <trkpt lat="45.686249462887645" lon="8.018469298258424">
        <ele>1831.24</ele>
        <time>2021-05-30T11:37:02Z</time>
      </trkpt>
      <trkpt lat="45.686167068779469" lon="8.018382210284472">
        <ele>1829.0899999999999</ele>
        <time>2021-05-30T11:37:16Z</time>
      </trkpt>
      <trkpt lat="45.686137899756432" lon="8.018418839201331">
        <ele>1827.27</ele>
        <time>2021-05-30T11:37:33Z</time>
      </trkpt>
      <trkpt lat="45.686170421540737" lon="8.018548674881458">
        <ele>1824.73</ele>
        <time>2021-05-30T11:37:48Z</time>
      </trkpt>
      <trkpt lat="45.686191963031888" lon="8.018671302124858">
        <ele>1822.05</ele>
        <time>2021-05-30T11:38:04Z</time>
      </trkpt>
      <trkpt lat="45.686223646625876" lon="8.018797785043716">
        <ele>1819.9400000000001</ele>
        <time>2021-05-30T11:38:23Z</time>
      </trkpt>
      <trkpt lat="45.686221634969115" lon="8.018834162503481">
        <ele>1819.24</ele>
        <time>2021-05-30T11:38:26Z</time>
      </trkpt>
      <trkpt lat="45.686268657445908" lon="8.019024096429348">
        <ele>1816.53</ele>
        <time>2021-05-30T11:38:42Z</time>
      </trkpt>
      <trkpt lat="45.686205206438899" lon="8.019003560766578">
        <ele>1814.4400000000001</ele>
        <time>2021-05-30T11:38:54Z</time>
      </trkpt>
      <trkpt lat="45.686129098758101" lon="8.018989311531186">
        <ele>1811.51</ele>
        <time>2021-05-30T11:39:10Z</time>
      </trkpt>
      <trkpt lat="45.686175115406513" lon="8.019147226586938">
        <ele>1808.74</ele>
        <time>2021-05-30T11:39:27Z</time>
      </trkpt>
      <trkpt lat="45.686197327449918" lon="8.019275972619653">
        <ele>1806.1700000000001</ele>
        <time>2021-05-30T11:39:42Z</time>
      </trkpt>
      <trkpt lat="45.686214845627546" lon="8.019376387819648">
        <ele>1804.47</ele>
        <time>2021-05-30T11:39:58Z</time>
      </trkpt>
      <trkpt lat="45.686222976073623" lon="8.019498512148857">
        <ele>1801.3699999999999</ele>
        <time>2021-05-30T11:40:13Z</time>
      </trkpt>
      <trkpt lat="45.686240494251251" lon="8.019628012552857">
        <ele>1798.28</ele>
        <time>2021-05-30T11:40:26Z</time>
      </trkpt>
      <trkpt lat="45.686279218643904" lon="8.019784586504102">
        <ele>1795.77</ele>
        <time>2021-05-30T11:40:42Z</time>
      </trkpt>
      <trkpt lat="45.686309058219194" lon="8.019909476861358">
        <ele>1793.1400000000001</ele>
        <time>2021-05-30T11:40:56Z</time>
      </trkpt>
      <trkpt lat="45.686308220028877" lon="8.02004249766469">
        <ele>1791.0899999999999</ele>
        <time>2021-05-30T11:41:09Z</time>
      </trkpt>
      <trkpt lat="45.68630101159215" lon="8.020264450460672">
        <ele>1788.25</ele>
        <time>2021-05-30T11:41:27Z</time>
      </trkpt>
      <trkpt lat="45.686281817033887" lon="8.020382132381201">
        <ele>1786.0999999999999</ele>
        <time>2021-05-30T11:41:43Z</time>
      </trkpt>
      <trkpt lat="45.686273686587811" lon="8.020382132381201">
        <ele>1786.24</ele>
        <time>2021-05-30T11:42:10Z</time>
      </trkpt>
      <trkpt lat="45.686262119561434" lon="8.020434016361833">
        <ele>1785.8699999999999</ele>
        <time>2021-05-30T11:42:14Z</time>
      </trkpt>
      <trkpt lat="45.686247115954757" lon="8.020484894514084">
        <ele>1785.0799999999999</ele>
        <time>2021-05-30T11:42:17Z</time>
      </trkpt>
      <trkpt lat="45.686242338269949" lon="8.02055211737752">
        <ele>1783.78</ele>
        <time>2021-05-30T11:42:22Z</time>
      </trkpt>
      <trkpt lat="45.686215935274959" lon="8.020581286400557">
        <ele>1782.4400000000001</ele>
        <time>2021-05-30T11:42:26Z</time>
      </trkpt>
      <trkpt lat="45.686151729896665" lon="8.020378360524774">
        <ele>1779.3399999999999</ele>
        <time>2021-05-30T11:42:42Z</time>
      </trkpt>
      <trkpt lat="45.686129434034228" lon="8.020351203158498">
        <ele>1778.3800000000001</ele>
        <time>2021-05-30T11:42:45Z</time>
      </trkpt>
      <trkpt lat="45.686040334403515" lon="8.020202927291393">
        <ele>1774.9200000000001</ele>
        <time>2021-05-30T11:43:00Z</time>
      </trkpt>
      <trkpt lat="45.686036227270961" lon="8.020178368315101">
        <ele>1774.6199999999999</ele>
        <time>2021-05-30T11:43:12Z</time>
      </trkpt>
      <trkpt lat="45.686042094603181" lon="8.020190354436636">
        <ele>1774.6600000000001</ele>
        <time>2021-05-30T11:43:53Z</time>
      </trkpt>
      <trkpt lat="45.686024408787489" lon="8.020253973081708">
        <ele>1773.4400000000001</ele>
        <time>2021-05-30T11:44:07Z</time>
      </trkpt>
      <trkpt lat="45.686004711315036" lon="8.020317256450653">
        <ele>1771.3</ele>
        <time>2021-05-30T11:44:11Z</time>
      </trkpt>
      <trkpt lat="45.685979397967458" lon="8.020407529547811">
        <ele>1769.47</ele>
        <time>2021-05-30T11:44:16Z</time>
      </trkpt>
      <trkpt lat="45.685971351340413" lon="8.02048078738153">
        <ele>1768.3399999999999</ele>
        <time>2021-05-30T11:44:20Z</time>
      </trkpt>
      <trkpt lat="45.68589398637414" lon="8.020564690232277">
        <ele>1765.0599999999999</ele>
        <time>2021-05-30T11:44:33Z</time>
      </trkpt>
      <trkpt lat="45.685866745188832" lon="8.02055018953979">
        <ele>1763.52</ele>
        <time>2021-05-30T11:44:37Z</time>
      </trkpt>
      <trkpt lat="45.685821818187833" lon="8.020578771829605">
        <ele>1761.5699999999999</ele>
        <time>2021-05-30T11:44:44Z</time>
      </trkpt>
      <trkpt lat="45.685768257826567" lon="8.020516242831945">
        <ele>1758.3800000000001</ele>
        <time>2021-05-30T11:44:57Z</time>
      </trkpt>
      <trkpt lat="45.685734562575817" lon="8.020433345809579">
        <ele>1756.01</ele>
        <time>2021-05-30T11:45:08Z</time>
      </trkpt>
      <trkpt lat="45.685684606432915" lon="8.020480200648308">
        <ele>1752.54</ele>
        <time>2021-05-30T11:45:21Z</time>
      </trkpt>
      <trkpt lat="45.685662562027574" lon="8.020545747131109">
        <ele>1751</ele>
        <time>2021-05-30T11:45:34Z</time>
      </trkpt>
      <trkpt lat="45.685643199831247" lon="8.020628811791539">
        <ele>1749.47</ele>
        <time>2021-05-30T11:45:49Z</time>
      </trkpt>
      <trkpt lat="45.685589388012886" lon="8.020643312484026">
        <ele>1747.1300000000001</ele>
        <time>2021-05-30T11:46:03Z</time>
      </trkpt>
      <trkpt lat="45.68557539023459" lon="8.020614143460989">
        <ele>1746.1500000000001</ele>
        <time>2021-05-30T11:46:07Z</time>
      </trkpt>
      <trkpt lat="45.685556614771485" lon="8.020551614463329">
        <ele>1745.26</ele>
        <time>2021-05-30T11:46:12Z</time>
      </trkpt>
      <trkpt lat="45.685484865680337" lon="8.020387329161167">
        <ele>1742.6900000000001</ele>
        <time>2021-05-30T11:46:32Z</time>
      </trkpt>
      <trkpt lat="45.685435496270657" lon="8.020317424088717">
        <ele>1740.4200000000001</ele>
        <time>2021-05-30T11:46:47Z</time>
      </trkpt>
      <trkpt lat="45.685379169881344" lon="8.020325219258666">
        <ele>1737.3399999999999</ele>
        <time>2021-05-30T11:47:03Z</time>
      </trkpt>
      <trkpt lat="45.685360729694366" lon="8.020470812916756">
        <ele>1734.3299999999999</ele>
        <time>2021-05-30T11:47:18Z</time>
      </trkpt>
      <trkpt lat="45.685311947017908" lon="8.020628057420254">
        <ele>1731.6199999999999</ele>
        <time>2021-05-30T11:47:35Z</time>
      </trkpt>
      <trkpt lat="45.685301637277007" lon="8.020604336634278">
        <ele>1731.1099999999999</ele>
        <time>2021-05-30T11:47:40Z</time>
      </trkpt>
      <trkpt lat="45.68522309884429" lon="8.020414737984538">
        <ele>1728.51</ele>
        <time>2021-05-30T11:48:00Z</time>
      </trkpt>
      <trkpt lat="45.685200719162822" lon="8.020537281408906">
        <ele>1726.1500000000001</ele>
        <time>2021-05-30T11:48:14Z</time>
      </trkpt>
      <trkpt lat="45.685177333652973" lon="8.020625710487366">
        <ele>1724.4300000000001</ele>
        <time>2021-05-30T11:48:30Z</time>
      </trkpt>
      <trkpt lat="45.685136681422591" lon="8.020677762106061">
        <ele>1722.72</ele>
        <time>2021-05-30T11:48:45Z</time>
      </trkpt>
      <trkpt lat="45.685096615925431" lon="8.020532503724098">
        <ele>1721.1199999999999</ele>
        <time>2021-05-30T11:49:00Z</time>
      </trkpt>
      <trkpt lat="45.685028387233615" lon="8.020467208698392">
        <ele>1718.3</ele>
        <time>2021-05-30T11:49:16Z</time>
      </trkpt>
      <trkpt lat="45.684998799115419" lon="8.02058681845665">
        <ele>1715.22</ele>
        <time>2021-05-30T11:49:29Z</time>
      </trkpt>
      <trkpt lat="45.684981364756823" lon="8.020680779591203">
        <ele>1713.74</ele>
        <time>2021-05-30T11:49:45Z</time>
      </trkpt>
      <trkpt lat="45.684934677556157" lon="8.020778261125088">
        <ele>1711.99</ele>
        <time>2021-05-30T11:50:00Z</time>
      </trkpt>
      <trkpt lat="45.684867789968848" lon="8.020877251401544">
        <ele>1708.72</ele>
        <time>2021-05-30T11:50:12Z</time>
      </trkpt>
      <trkpt lat="45.684821018949151" lon="8.021010020747781">
        <ele>1707.73</ele>
        <time>2021-05-30T11:50:30Z</time>
      </trkpt>
      <trkpt lat="45.684810793027282" lon="8.021010523661971">
        <ele>1708.02</ele>
        <time>2021-05-30T11:50:35Z</time>
      </trkpt>
      <trkpt lat="45.684786066412926" lon="8.021025862544775">
        <ele>1707.02</ele>
        <time>2021-05-30T11:50:56Z</time>
      </trkpt>
      <trkpt lat="45.684742145240307" lon="8.021056959405541">
        <ele>1704.49</ele>
        <time>2021-05-30T11:51:02Z</time>
      </trkpt>
      <trkpt lat="45.684714484959841" lon="8.021108424291015">
        <ele>1702.8900000000001</ele>
        <time>2021-05-30T11:51:07Z</time>
      </trkpt>
      <trkpt lat="45.684682382270694" lon="8.021154273301363">
        <ele>1701.29</ele>
        <time>2021-05-30T11:51:14Z</time>
      </trkpt>
      <trkpt lat="45.684612141922116" lon="8.02132417447865">
        <ele>1698.4100000000001</ele>
        <time>2021-05-30T11:51:33Z</time>
      </trkpt>
      <trkpt lat="45.684577943757176" lon="8.021380919963121">
        <ele>1697.0999999999999</ele>
        <time>2021-05-30T11:51:50Z</time>
      </trkpt>
      <trkpt lat="45.684572998434305" lon="8.021391900256276">
        <ele>1697.01</ele>
        <time>2021-05-30T11:51:51Z</time>
      </trkpt>
      <trkpt lat="45.684517007321119" lon="8.021631706506014">
        <ele>1694.8299999999999</ele>
        <time>2021-05-30T11:52:10Z</time>
      </trkpt>
      <trkpt lat="45.684475768357515" lon="8.021825747564435">
        <ele>1692.8</ele>
        <time>2021-05-30T11:52:27Z</time>
      </trkpt>
      <trkpt lat="45.68445498123765" lon="8.022018447518349">
        <ele>1691.6400000000001</ele>
        <time>2021-05-30T11:52:42Z</time>
      </trkpt>
      <trkpt lat="45.684450874105096" lon="8.022067565470934">
        <ele>1691.04</ele>
        <time>2021-05-30T11:52:55Z</time>
      </trkpt>
      <trkpt lat="45.684439642354846" lon="8.022157922387123">
        <ele>1689.4300000000001</ele>
        <time>2021-05-30T11:53:19Z</time>
      </trkpt>
      <trkpt lat="45.684424052014947" lon="8.022243836894631">
        <ele>1687.1900000000001</ele>
        <time>2021-05-30T11:53:34Z</time>
      </trkpt>
      <trkpt lat="45.684405360370874" lon="8.022289937362075">
        <ele>1685.24</ele>
        <time>2021-05-30T11:53:51Z</time>
      </trkpt>
      <trkpt lat="45.68434065207839" lon="8.022259343415499">
        <ele>1682.01</ele>
        <time>2021-05-30T11:54:04Z</time>
      </trkpt>
      <trkpt lat="45.684310644865036" lon="8.022282393649221">
        <ele>1680.75</ele>
        <time>2021-05-30T11:54:10Z</time>
      </trkpt>
      <trkpt lat="45.684306118637323" lon="8.022356741130352">
        <ele>1680.01</ele>
        <time>2021-05-30T11:54:15Z</time>
      </trkpt>
      <trkpt lat="45.684327408671379" lon="8.022506106644869">
        <ele>1679.77</ele>
        <time>2021-05-30T11:54:31Z</time>
      </trkpt>
      <trkpt lat="45.684326319023967" lon="8.022502502426505">
        <ele>1680.1199999999999</ele>
        <time>2021-05-30T11:54:53Z</time>
      </trkpt>
      <trkpt lat="45.684343669563532" lon="8.022537203505635">
        <ele>1680.27</ele>
        <time>2021-05-30T11:55:00Z</time>
      </trkpt>
      <trkpt lat="45.68435188382864" lon="8.022598559036851">
        <ele>1679.71</ele>
        <time>2021-05-30T11:55:04Z</time>
      </trkpt>
      <trkpt lat="45.684315338730812" lon="8.022780530154705">
        <ele>1676.6199999999999</ele>
        <time>2021-05-30T11:55:21Z</time>
      </trkpt>
      <trkpt lat="45.684313494712114" lon="8.022795533761382">
        <ele>1676.78</ele>
        <time>2021-05-30T11:55:23Z</time>
      </trkpt>
      <trkpt lat="45.68430008366704" lon="8.022913802415133">
        <ele>1675.6400000000001</ele>
        <time>2021-05-30T11:55:32Z</time>
      </trkpt>
      <trkpt lat="45.684251803904772" lon="8.023153441026807">
        <ele>1672.3</ele>
        <time>2021-05-30T11:55:51Z</time>
      </trkpt>
      <trkpt lat="45.684195561334491" lon="8.023219238966703">
        <ele>1669.9000000000001</ele>
        <time>2021-05-30T11:56:07Z</time>
      </trkpt>
      <trkpt lat="45.684155663475394" lon="8.023261735215783">
        <ele>1667.55</ele>
        <time>2021-05-30T11:56:21Z</time>
      </trkpt>
      <trkpt lat="45.684114592149854" lon="8.023221418261528">
        <ele>1666.3900000000001</ele>
        <time>2021-05-30T11:56:37Z</time>
      </trkpt>
      <trkpt lat="45.684066396206617" lon="8.023210102692246">
        <ele>1664.3199999999999</ele>
        <time>2021-05-30T11:56:52Z</time>
      </trkpt>
      <trkpt lat="45.684026246890426" lon="8.023157464340329">
        <ele>1661.6300000000001</ele>
        <time>2021-05-30T11:57:08Z</time>
      </trkpt>
      <trkpt lat="45.684013841673732" lon="8.023155704140663">
        <ele>1660.71</ele>
        <time>2021-05-30T11:57:14Z</time>
      </trkpt>
      <trkpt lat="45.683980314061046" lon="8.023114884272218">
        <ele>1659.1600000000001</ele>
        <time>2021-05-30T11:57:18Z</time>
      </trkpt>
      <trkpt lat="45.683975871652365" lon="8.023079428821802">
        <ele>1658.45</ele>
        <time>2021-05-30T11:57:20Z</time>
      </trkpt>
      <trkpt lat="45.683969585224986" lon="8.022975828498602">
        <ele>1657.8699999999999</ele>
        <time>2021-05-30T11:57:28Z</time>
      </trkpt>
      <trkpt lat="45.683942008763552" lon="8.022781116887927">
        <ele>1655.55</ele>
        <time>2021-05-30T11:57:44Z</time>
      </trkpt>
      <trkpt lat="45.683933878317475" lon="8.022764436900616">
        <ele>1654.8800000000001</ele>
        <time>2021-05-30T11:57:46Z</time>
      </trkpt>
      <trkpt lat="45.683885598555207" lon="8.022569725289941">
        <ele>1652.6700000000001</ele>
        <time>2021-05-30T11:58:04Z</time>
      </trkpt>
      <trkpt lat="45.683878809213638" lon="8.022495796903968">
        <ele>1652.8399999999999</ele>
        <time>2021-05-30T11:58:19Z</time>
      </trkpt>
      <trkpt lat="45.683879228308797" lon="8.022404434159398">
        <ele>1652.5899999999999</ele>
        <time>2021-05-30T11:58:37Z</time>
      </trkpt>
      <trkpt lat="45.683859949931502" lon="8.022348694503307">
        <ele>1651.8399999999999</ele>
        <time>2021-05-30T11:58:54Z</time>
      </trkpt>
      <trkpt lat="45.683842934668064" lon="8.022285494953394">
        <ele>1650.6500000000001</ele>
        <time>2021-05-30T11:59:09Z</time>
      </trkpt>
      <trkpt lat="45.68383052945137" lon="8.022208549082279">
        <ele>1649.5</ele>
        <time>2021-05-30T11:59:22Z</time>
      </trkpt>
      <trkpt lat="45.683794487267733" lon="8.022131016477943">
        <ele>1647.47</ele>
        <time>2021-05-30T11:59:35Z</time>
      </trkpt>
      <trkpt lat="45.683758025988936" lon="8.022038312628865">
        <ele>1645.8900000000001</ele>
        <time>2021-05-30T11:59:49Z</time>
      </trkpt>
      <trkpt lat="45.683707231655717" lon="8.021961618214846">
        <ele>1643.5</ele>
        <time>2021-05-30T12:00:04Z</time>
      </trkpt>
      <trkpt lat="45.68366683088243" lon="8.021793980151415">
        <ele>1640.3</ele>
        <time>2021-05-30T12:00:23Z</time>
      </trkpt>
      <trkpt lat="45.683651408180594" lon="8.021752238273621">
        <ele>1640.5699999999999</ele>
        <time>2021-05-30T12:00:29Z</time>
      </trkpt>
      <trkpt lat="45.683626597747207" lon="8.021690379828215">
        <ele>1638.6300000000001</ele>
        <time>2021-05-30T12:00:46Z</time>
      </trkpt>
      <trkpt lat="45.683596841990948" lon="8.021708065643907">
        <ele>1636.4200000000001</ele>
        <time>2021-05-30T12:00:59Z</time>
      </trkpt>
      <trkpt lat="45.683498019352555" lon="8.021685853600502">
        <ele>1633.3499999999999</ele>
        <time>2021-05-30T12:01:14Z</time>
      </trkpt>
      <trkpt lat="45.683411601930857" lon="8.021643776446581">
        <ele>1631.6199999999999</ele>
        <time>2021-05-30T12:01:30Z</time>
      </trkpt>
      <trkpt lat="45.683434652164578" lon="8.021734552457929">
        <ele>1629.75</ele>
        <time>2021-05-30T12:01:45Z</time>
      </trkpt>
      <trkpt lat="45.683415625244379" lon="8.021801523864269">
        <ele>1627.9200000000001</ele>
        <time>2021-05-30T12:01:59Z</time>
      </trkpt>
      <trkpt lat="45.683351000770926" lon="8.021804206073284">
        <ele>1625.71</ele>
        <time>2021-05-30T12:02:13Z</time>
      </trkpt>
      <trkpt lat="45.683365920558572" lon="8.021957343444228">
        <ele>1622.52</ele>
        <time>2021-05-30T12:02:29Z</time>
      </trkpt>
      <trkpt lat="45.683382768183947" lon="8.02210059016943">
        <ele>1619.9100000000001</ele>
        <time>2021-05-30T12:02:47Z</time>
      </trkpt>
      <trkpt lat="45.683327279984951" lon="8.022108385339379">
        <ele>1617.8699999999999</ele>
        <time>2021-05-30T12:03:00Z</time>
      </trkpt>
      <trkpt lat="45.683262571692467" lon="8.022030768916011">
        <ele>1616.71</ele>
        <time>2021-05-30T12:03:14Z</time>
      </trkpt>
      <trkpt lat="45.683242371305823" lon="8.022094136103988">
        <ele>1615.5799999999999</ele>
        <time>2021-05-30T12:03:28Z</time>
      </trkpt>
      <trkpt lat="45.683228708803654" lon="8.022141996771097">
        <ele>1613.7</ele>
        <time>2021-05-30T12:03:42Z</time>
      </trkpt>
      <trkpt lat="45.683234995231032" lon="8.022225229069591">
        <ele>1612.23</ele>
        <time>2021-05-30T12:03:55Z</time>
      </trkpt>
      <trkpt lat="45.683184787631035" lon="8.022239478304982">
        <ele>1610.1300000000001</ele>
        <time>2021-05-30T12:04:09Z</time>
      </trkpt>
      <trkpt lat="45.683213034644723" lon="8.022371493279934">
        <ele>1607.72</ele>
        <time>2021-05-30T12:04:25Z</time>
      </trkpt>
      <trkpt lat="45.683169197291136" lon="8.02241625264287">
        <ele>1605.6199999999999</ele>
        <time>2021-05-30T12:04:38Z</time>
      </trkpt>
      <trkpt lat="45.683084120973945" lon="8.02238498814404">
        <ele>1603.8499999999999</ele>
        <time>2021-05-30T12:04:57Z</time>
      </trkpt>
      <trkpt lat="45.683101387694478" lon="8.022469393908978">
        <ele>1601.6700000000001</ele>
        <time>2021-05-30T12:05:12Z</time>
      </trkpt>
      <trkpt lat="45.683028800413013" lon="8.022456066682935">
        <ele>1600.26</ele>
        <time>2021-05-30T12:05:27Z</time>
      </trkpt>
      <trkpt lat="45.682996613904834" lon="8.022479871287942">
        <ele>1598.77</ele>
        <time>2021-05-30T12:05:43Z</time>
      </trkpt>
      <trkpt lat="45.683025028556585" lon="8.022592104971409">
        <ele>1596.8299999999999</ele>
        <time>2021-05-30T12:05:59Z</time>
      </trkpt>
      <trkpt lat="45.683029219508171" lon="8.022674163803458">
        <ele>1595.6600000000001</ele>
        <time>2021-05-30T12:06:14Z</time>
      </trkpt>
      <trkpt lat="45.6830467376858" lon="8.022684222087264">
        <ele>1595.5699999999999</ele>
        <time>2021-05-30T12:06:27Z</time>
      </trkpt>
      <trkpt lat="45.683042714372277" lon="8.022686569020152">
        <ele>1594.3399999999999</ele>
        <time>2021-05-30T12:06:37Z</time>
      </trkpt>
      <trkpt lat="45.683029470965266" lon="8.022691765800118">
        <ele>1594.72</ele>
        <time>2021-05-30T12:07:06Z</time>
      </trkpt>
      <trkpt lat="45.683035673573613" lon="8.022686652839184">
        <ele>1595.8099999999999</ele>
        <time>2021-05-30T12:07:19Z</time>
      </trkpt>
      <trkpt lat="45.683035422116518" lon="8.022689083591104">
        <ele>1595.3199999999999</ele>
        <time>2021-05-30T12:07:44Z</time>
      </trkpt>
      <trkpt lat="45.683030895888805" lon="8.022695370018482">
        <ele>1595.53</ele>
        <time>2021-05-30T12:08:08Z</time>
      </trkpt>
      <trkpt lat="45.683026788756251" lon="8.022711211815476">
        <ele>1595.3599999999999</ele>
        <time>2021-05-30T12:08:42Z</time>
      </trkpt>
      <trkpt lat="45.683016562834382" lon="8.022797126322985">
        <ele>1594.1500000000001</ele>
        <time>2021-05-30T12:09:11Z</time>
      </trkpt>
      <trkpt lat="45.683009438216686" lon="8.022827720269561">
        <ele>1593.6199999999999</ele>
        <time>2021-05-30T12:09:14Z</time>
      </trkpt>
      <trkpt lat="45.68299057893455" lon="8.022942133247852">
        <ele>1592.3099999999999</ele>
        <time>2021-05-30T12:09:24Z</time>
      </trkpt>
      <trkpt lat="45.682923942804337" lon="8.023081608116627">
        <ele>1589.6500000000001</ele>
        <time>2021-05-30T12:09:42Z</time>
      </trkpt>
      <trkpt lat="45.682881278917193" lon="8.023238517343998">
        <ele>1587.1600000000001</ele>
        <time>2021-05-30T12:09:58Z</time>
      </trkpt>
      <trkpt lat="45.682839034125209" lon="8.023463822901249">
        <ele>1584.54</ele>
        <time>2021-05-30T12:10:17Z</time>
      </trkpt>
      <trkpt lat="45.68280290812254" lon="8.023636490106583">
        <ele>1581.4200000000001</ele>
        <time>2021-05-30T12:10:33Z</time>
      </trkpt>
      <trkpt lat="45.682769464328885" lon="8.023754004389048">
        <ele>1578.4100000000001</ele>
        <time>2021-05-30T12:10:47Z</time>
      </trkpt>
      <trkpt lat="45.682752868160605" lon="8.023925079032779">
        <ele>1575.22</ele>
        <time>2021-05-30T12:11:02Z</time>
      </trkpt>
      <trkpt lat="45.682744234800339" lon="8.024129513651133">
        <ele>1571.9100000000001</ele>
        <time>2021-05-30T12:11:20Z</time>
      </trkpt>
      <trkpt lat="45.682728141546249" lon="8.024328080937266">
        <ele>1568.79</ele>
        <time>2021-05-30T12:11:36Z</time>
      </trkpt>
      <trkpt lat="45.682704001665115" lon="8.024474009871483">
        <ele>1565.6700000000001</ele>
        <time>2021-05-30T12:11:49Z</time>
      </trkpt>
      <trkpt lat="45.682679861783981" lon="8.024600995704532">
        <ele>1562.6700000000001</ele>
        <time>2021-05-30T12:12:02Z</time>
      </trkpt>
      <trkpt lat="45.682669216766953" lon="8.024779530242086">
        <ele>1559.5699999999999</ele>
        <time>2021-05-30T12:12:19Z</time>
      </trkpt>
      <trkpt lat="45.68265538662672" lon="8.0249791033566">
        <ele>1556.3800000000001</ele>
        <time>2021-05-30T12:12:34Z</time>
      </trkpt>
      <trkpt lat="45.682633928954601" lon="8.025147244334221">
        <ele>1553.3399999999999</ele>
        <time>2021-05-30T12:12:48Z</time>
      </trkpt>
      <trkpt lat="45.682596042752266" lon="8.025287473574281">
        <ele>1550.25</ele>
        <time>2021-05-30T12:13:02Z</time>
      </trkpt>
      <trkpt lat="45.68253125064075" lon="8.025262746959925">
        <ele>1547.98</ele>
        <time>2021-05-30T12:13:17Z</time>
      </trkpt>
      <trkpt lat="45.682456819340587" lon="8.025140119716525">
        <ele>1544.96</ele>
        <time>2021-05-30T12:13:32Z</time>
      </trkpt>
      <trkpt lat="45.682450113818049" lon="8.025117991492152">
        <ele>1544.6800000000001</ele>
        <time>2021-05-30T12:13:34Z</time>
      </trkpt>
      <trkpt lat="45.682413065806031" lon="8.025130145251751">
        <ele>1543.01</ele>
        <time>2021-05-30T12:13:44Z</time>
      </trkpt>
      <trkpt lat="45.682374844327569" lon="8.025265848264098">
        <ele>1539.8399999999999</ele>
        <time>2021-05-30T12:13:58Z</time>
      </trkpt>
      <trkpt lat="45.682310974225402" lon="8.025167779996991">
        <ele>1537.96</ele>
        <time>2021-05-30T12:14:12Z</time>
      </trkpt>
      <trkpt lat="45.682242829352617" lon="8.025163169950247">
        <ele>1535.9400000000001</ele>
        <time>2021-05-30T12:14:28Z</time>
      </trkpt>
      <trkpt lat="45.682237800210714" lon="8.025174820795655">
        <ele>1535.6500000000001</ele>
        <time>2021-05-30T12:14:46Z</time>
      </trkpt>
      <trkpt lat="45.682240482419729" lon="8.02516920492053">
        <ele>1535.4100000000001</ele>
        <time>2021-05-30T12:15:14Z</time>
      </trkpt>
      <trkpt lat="45.682243835180998" lon="8.025175910443068">
        <ele>1535.46</ele>
        <time>2021-05-30T12:15:51Z</time>
      </trkpt>
      <trkpt lat="45.682248277589679" lon="8.025175658985972">
        <ele>1535.3599999999999</ele>
        <time>2021-05-30T12:16:14Z</time>
      </trkpt>
      <trkpt lat="45.682239225134254" lon="8.025257801637054">
        <ele>1534.9100000000001</ele>
        <time>2021-05-30T12:16:37Z</time>
      </trkpt>
      <trkpt lat="45.682213408872485" lon="8.025402892380953">
        <ele>1533.7</ele>
        <time>2021-05-30T12:16:54Z</time>
      </trkpt>
      <trkpt lat="45.682219695299864" lon="8.025522753596306">
        <ele>1532.3900000000001</ele>
        <time>2021-05-30T12:17:12Z</time>
      </trkpt>
      <trkpt lat="45.682171583175659" lon="8.025633478537202">
        <ele>1530.2</ele>
        <time>2021-05-30T12:17:28Z</time>
      </trkpt>
      <trkpt lat="45.682198153808713" lon="8.025669101625681">
        <ele>1529.6300000000001</ele>
        <time>2021-05-30T12:17:35Z</time>
      </trkpt>
      <trkpt lat="45.682249870151281" lon="8.025814946740866">
        <ele>1526.4200000000001</ele>
        <time>2021-05-30T12:17:52Z</time>
      </trkpt>
      <trkpt lat="45.682232519611716" lon="8.025938160717487">
        <ele>1523.29</ele>
        <time>2021-05-30T12:18:06Z</time>
      </trkpt>
      <trkpt lat="45.68222145549953" lon="8.026050059124827">
        <ele>1520.3800000000001</ele>
        <time>2021-05-30T12:18:24Z</time>
      </trkpt>
      <trkpt lat="45.682276021689177" lon="8.026162795722485">
        <ele>1517.9100000000001</ele>
        <time>2021-05-30T12:18:41Z</time>
      </trkpt>
      <trkpt lat="45.682252049446106" lon="8.026271341368556">
        <ele>1515.0599999999999</ele>
        <time>2021-05-30T12:18:57Z</time>
      </trkpt>
      <trkpt lat="45.682331761345267" lon="8.026366643607616">
        <ele>1512.4000000000001</ele>
        <time>2021-05-30T12:19:14Z</time>
      </trkpt>
      <trkpt lat="45.682398397475481" lon="8.026479631662369">
        <ele>1509.5799999999999</ele>
        <time>2021-05-30T12:19:32Z</time>
      </trkpt>
      <trkpt lat="45.682459585368633" lon="8.026589183136821">
        <ele>1506.6600000000001</ele>
        <time>2021-05-30T12:19:48Z</time>
      </trkpt>
      <trkpt lat="45.68251708522439" lon="8.026666631922126">
        <ele>1504.0899999999999</ele>
        <time>2021-05-30T12:20:05Z</time>
      </trkpt>
      <trkpt lat="45.682536866515875" lon="8.02677190862596">
        <ele>1501.0699999999999</ele>
        <time>2021-05-30T12:20:19Z</time>
      </trkpt>
      <trkpt lat="45.682460088282824" lon="8.026881460100412">
        <ele>1498.72</ele>
        <time>2021-05-30T12:20:37Z</time>
      </trkpt>
      <trkpt lat="45.68247458897531" lon="8.026963351294398">
        <ele>1496.04</ele>
        <time>2021-05-30T12:20:53Z</time>
      </trkpt>
      <trkpt lat="45.682421196252108" lon="8.02702403627336">
        <ele>1494.1900000000001</ele>
        <time>2021-05-30T12:21:06Z</time>
      </trkpt>
      <trkpt lat="45.682416167110205" lon="8.027103580534458">
        <ele>1491.0599999999999</ele>
        <time>2021-05-30T12:21:22Z</time>
      </trkpt>
      <trkpt lat="45.682516079396009" lon="8.027167618274689">
        <ele>1487.9200000000001</ele>
        <time>2021-05-30T12:21:40Z</time>
      </trkpt>
      <trkpt lat="45.682589169591665" lon="8.027160242199898">
        <ele>1486.9400000000001</ele>
        <time>2021-05-30T12:21:50Z</time>
      </trkpt>
      <trkpt lat="45.682720262557268" lon="8.027171138674021">
        <ele>1485.0799999999999</ele>
        <time>2021-05-30T12:22:08Z</time>
      </trkpt>
      <trkpt lat="45.682867784053087" lon="8.027224615216255">
        <ele>1482.24</ele>
        <time>2021-05-30T12:22:26Z</time>
      </trkpt>
      <trkpt lat="45.683000972494483" lon="8.02728982642293">
        <ele>1480.29</ele>
        <time>2021-05-30T12:22:44Z</time>
      </trkpt>
      <trkpt lat="45.68303651176393" lon="8.027327209711075">
        <ele>1479.8</ele>
        <time>2021-05-30T12:22:50Z</time>
      </trkpt>
      <trkpt lat="45.683104824274778" lon="8.027593418955803">
        <ele>1477.9100000000001</ele>
        <time>2021-05-30T12:23:11Z</time>
      </trkpt>
      <trkpt lat="45.683087892830372" lon="8.027807325124741">
        <ele>1476.27</ele>
        <time>2021-05-30T12:23:30Z</time>
      </trkpt>
      <trkpt lat="45.683083282783628" lon="8.027881924062967">
        <ele>1475.46</ele>
        <time>2021-05-30T12:23:36Z</time>
      </trkpt>
      <trkpt lat="45.683060567826033" lon="8.028123574331403">
        <ele>1472.5</ele>
        <time>2021-05-30T12:23:56Z</time>
      </trkpt>
      <trkpt lat="45.683085126802325" lon="8.028265312314034">
        <ele>1470.1900000000001</ele>
        <time>2021-05-30T12:24:13Z</time>
      </trkpt>
      <trkpt lat="45.683005750179291" lon="8.028350220993161">
        <ele>1467.51</ele>
        <time>2021-05-30T12:24:29Z</time>
      </trkpt>
      <trkpt lat="45.682920170947909" lon="8.028361452743411">
        <ele>1464.49</ele>
        <time>2021-05-30T12:24:44Z</time>
      </trkpt>
      <trkpt lat="45.682924529537559" lon="8.028505789116025">
        <ele>1461.9100000000001</ele>
        <time>2021-05-30T12:25:00Z</time>
      </trkpt>
      <trkpt lat="45.682849176228046" lon="8.02858080714941">
        <ele>1458.8399999999999</ele>
        <time>2021-05-30T12:25:16Z</time>
      </trkpt>
      <trkpt lat="45.682838531211019" lon="8.028708212077618">
        <ele>1455.8</ele>
        <time>2021-05-30T12:25:32Z</time>
      </trkpt>
      <trkpt lat="45.682827550917864" lon="8.028862439095974">
        <ele>1452.8900000000001</ele>
        <time>2021-05-30T12:25:50Z</time>
      </trkpt>
      <trkpt lat="45.682885553687811" lon="8.028978612273932">
        <ele>1449.8499999999999</ele>
        <time>2021-05-30T12:26:05Z</time>
      </trkpt>
      <trkpt lat="45.682800058275461" lon="8.029040386900306">
        <ele>1447.48</ele>
        <time>2021-05-30T12:26:20Z</time>
      </trkpt>
      <trkpt lat="45.682715820148587" lon="8.029007948935032">
        <ele>1445.3699999999999</ele>
        <time>2021-05-30T12:26:38Z</time>
      </trkpt>
      <trkpt lat="45.682614566758275" lon="8.028946341946721">
        <ele>1442.3399999999999</ele>
        <time>2021-05-30T12:26:54Z</time>
      </trkpt>
      <trkpt lat="45.682539045810699" lon="8.028897056356072">
        <ele>1438.47</ele>
        <time>2021-05-30T12:27:07Z</time>
      </trkpt>
      <trkpt lat="45.682460926473141" lon="8.028851794078946">
        <ele>1437.1300000000001</ele>
        <time>2021-05-30T12:27:22Z</time>
      </trkpt>
      <trkpt lat="45.682494454085827" lon="8.028981545940042">
        <ele>1434.77</ele>
        <time>2021-05-30T12:27:38Z</time>
      </trkpt>
      <trkpt lat="45.682520857080817" lon="8.029146082699299">
        <ele>1432.3499999999999</ele>
        <time>2021-05-30T12:27:53Z</time>
      </trkpt>
      <trkpt lat="45.682576345279813" lon="8.029360827058554">
        <ele>1429.23</ele>
        <time>2021-05-30T12:28:14Z</time>
      </trkpt>
      <trkpt lat="45.682595958933234" lon="8.029470043256879">
        <ele>1426.1800000000001</ele>
        <time>2021-05-30T12:28:28Z</time>
      </trkpt>
      <trkpt lat="45.6826426461339" lon="8.029502900317311">
        <ele>1424.0999999999999</ele>
        <time>2021-05-30T12:28:45Z</time>
      </trkpt>
      <trkpt lat="45.682634180411696" lon="8.029502565041184">
        <ele>1423.77</ele>
        <time>2021-05-30T12:29:05Z</time>
      </trkpt>
      <trkpt lat="45.682628648355603" lon="8.029506420716643">
        <ele>1422.73</ele>
        <time>2021-05-30T12:29:21Z</time>
      </trkpt>
      <trkpt lat="45.682637114077806" lon="8.029508851468563">
        <ele>1422.9000000000001</ele>
        <time>2021-05-30T12:29:49Z</time>
      </trkpt>
      <trkpt lat="45.682631749659777" lon="8.02950432524085">
        <ele>1423.0799999999999</ele>
        <time>2021-05-30T12:30:55Z</time>
      </trkpt>
      <trkpt lat="45.682624038308859" lon="8.029506839811802">
        <ele>1422.3800000000001</ele>
        <time>2021-05-30T12:31:15Z</time>
      </trkpt>
      <trkpt lat="45.682616159319878" lon="8.029503403231502">
        <ele>1423.21</ele>
        <time>2021-05-30T12:32:12Z</time>
      </trkpt>
      <trkpt lat="45.682611046358943" lon="8.029509857296944">
        <ele>1423.4100000000001</ele>
        <time>2021-05-30T12:32:52Z</time>
      </trkpt>
      <trkpt lat="45.682614985853434" lon="8.029513712972403">
        <ele>1423.4100000000001</ele>
        <time>2021-05-30T12:33:28Z</time>
      </trkpt>
      <trkpt lat="45.682622864842415" lon="8.029514132067561">
        <ele>1423.1800000000001</ele>
        <time>2021-05-30T12:34:00Z</time>
      </trkpt>
      <trkpt lat="45.682633174583316" lon="8.029510276392102">
        <ele>1423.0599999999999</ele>
        <time>2021-05-30T12:35:03Z</time>
      </trkpt>
      <trkpt lat="45.682634264230728" lon="8.029517652466893">
        <ele>1424.1700000000001</ele>
        <time>2021-05-30T12:35:26Z</time>
      </trkpt>
      <trkpt lat="45.682649351656437" lon="8.029517903923988">
        <ele>1424.1700000000001</ele>
        <time>2021-05-30T12:35:44Z</time>
      </trkpt>
      <trkpt lat="45.682648597285151" lon="8.02951849065721">
        <ele>1424.8499999999999</ele>
        <time>2021-05-30T12:35:48Z</time>
      </trkpt>
      <trkpt lat="45.682618003338575" lon="8.029563250020146">
        <ele>1423.4200000000001</ele>
        <time>2021-05-30T12:36:07Z</time>
      </trkpt>
      <trkpt lat="45.682490346953273" lon="8.029484124854207">
        <ele>1421.3199999999999</ele>
        <time>2021-05-30T12:36:26Z</time>
      </trkpt>
      <trkpt lat="45.682388171553612" lon="8.029402317479253">
        <ele>1420.1900000000001</ele>
        <time>2021-05-30T12:36:42Z</time>
      </trkpt>
      <trkpt lat="45.682357577607036" lon="8.029384883120656">
        <ele>1419.99</ele>
        <time>2021-05-30T12:36:46Z</time>
      </trkpt>
      <trkpt lat="45.682180300354958" lon="8.029392678290606">
        <ele>1418.3599999999999</ele>
        <time>2021-05-30T12:37:06Z</time>
      </trkpt>
      <trkpt lat="45.682201171293855" lon="8.029525363817811">
        <ele>1415.8499999999999</ele>
        <time>2021-05-30T12:37:23Z</time>
      </trkpt>
      <trkpt lat="45.682216761633754" lon="8.029528213664889">
        <ele>1415.5799999999999</ele>
        <time>2021-05-30T12:37:25Z</time>
      </trkpt>
      <trkpt lat="45.68233679048717" lon="8.029561322182417">
        <ele>1414.9200000000001</ele>
        <time>2021-05-30T12:37:42Z</time>
      </trkpt>
      <trkpt lat="45.682390099391341" lon="8.02962452173233">
        <ele>1414.47</ele>
        <time>2021-05-30T12:37:50Z</time>
      </trkpt>
      <trkpt lat="45.682439804077148" lon="8.029768103733659">
        <ele>1412.23</ele>
        <time>2021-05-30T12:38:06Z</time>
      </trkpt>
      <trkpt lat="45.682502081617713" lon="8.029935574159026">
        <ele>1409.1199999999999</ele>
        <time>2021-05-30T12:38:24Z</time>
      </trkpt>
      <trkpt lat="45.682493112981319" lon="8.030190719291568">
        <ele>1407.22</ele>
        <time>2021-05-30T12:38:45Z</time>
      </trkpt>
      <trkpt lat="45.682502584531903" lon="8.030332205817103">
        <ele>1405.3699999999999</ele>
        <time>2021-05-30T12:39:01Z</time>
      </trkpt>
      <trkpt lat="45.682466290891171" lon="8.030512081459165">
        <ele>1403.26</ele>
        <time>2021-05-30T12:39:20Z</time>
      </trkpt>
      <trkpt lat="45.68246578797698" lon="8.030642839148641">
        <ele>1401.24</ele>
        <time>2021-05-30T12:39:33Z</time>
      </trkpt>
      <trkpt lat="45.682509206235409" lon="8.030873844400048">
        <ele>1398.1199999999999</ele>
        <time>2021-05-30T12:39:53Z</time>
      </trkpt>
      <trkpt lat="45.682552373036742" lon="8.031068304553628">
        <ele>1396.27</ele>
        <time>2021-05-30T12:40:09Z</time>
      </trkpt>
      <trkpt lat="45.682595456019044" lon="8.031252874061465">
        <ele>1394.0599999999999</ele>
        <time>2021-05-30T12:40:25Z</time>
      </trkpt>
      <trkpt lat="45.68263971246779" lon="8.031502738595009">
        <ele>1391.29</ele>
        <time>2021-05-30T12:40:44Z</time>
      </trkpt>
      <trkpt lat="45.682624457404017" lon="8.031656630337238">
        <ele>1389.5899999999999</ele>
        <time>2021-05-30T12:40:59Z</time>
      </trkpt>
      <trkpt lat="45.682625044137239" lon="8.031754614785314">
        <ele>1388.5599999999999</ele>
        <time>2021-05-30T12:41:11Z</time>
      </trkpt>
      <trkpt lat="45.682669887319207" lon="8.031899118795991">
        <ele>1386.3800000000001</ele>
        <time>2021-05-30T12:41:28Z</time>
      </trkpt>
      <trkpt lat="45.682682460173965" lon="8.031927449628711">
        <ele>1386.6700000000001</ele>
        <time>2021-05-30T12:41:42Z</time>
      </trkpt>
      <trkpt lat="45.682679107412696" lon="8.031923091039062">
        <ele>1386.21</ele>
        <time>2021-05-30T12:41:50Z</time>
      </trkpt>
      <trkpt lat="45.682674832642078" lon="8.031932478770614">
        <ele>1385.78</ele>
        <time>2021-05-30T12:42:10Z</time>
      </trkpt>
      <trkpt lat="45.682656560093164" lon="8.031926359981298">
        <ele>1385.8299999999999</ele>
        <time>2021-05-30T12:43:04Z</time>
      </trkpt>
      <trkpt lat="45.682651279494166" lon="8.031931053847075">
        <ele>1385.27</ele>
        <time>2021-05-30T12:43:35Z</time>
      </trkpt>
      <trkpt lat="45.682655135169625" lon="8.031935999169946">
        <ele>1385.1500000000001</ele>
        <time>2021-05-30T12:44:05Z</time>
      </trkpt>
      <trkpt lat="45.682663517072797" lon="8.031936166808009">
        <ele>1385.6300000000001</ele>
        <time>2021-05-30T12:45:05Z</time>
      </trkpt>
      <trkpt lat="45.68267391063273" lon="8.03194404579699">
        <ele>1385.6099999999999</ele>
        <time>2021-05-30T12:46:21Z</time>
      </trkpt>
      <trkpt lat="45.682672653347254" lon="8.0319401063025">
        <ele>1386.22</ele>
        <time>2021-05-30T12:47:00Z</time>
      </trkpt>
      <trkpt lat="45.682671312242746" lon="8.031932562589645">
        <ele>1386.54</ele>
        <time>2021-05-30T12:47:18Z</time>
      </trkpt>
      <trkpt lat="45.682653207331896" lon="8.031927198171616">
        <ele>1386.75</ele>
        <time>2021-05-30T12:47:39Z</time>
      </trkpt>
      <trkpt lat="45.682648345828056" lon="8.031926779076457">
        <ele>1386.45</ele>
        <time>2021-05-30T12:48:01Z</time>
      </trkpt>
      <trkpt lat="45.682608867064118" lon="8.031876152381301">
        <ele>1386.2</ele>
        <time>2021-05-30T12:48:13Z</time>
      </trkpt>
      <trkpt lat="45.682566286996007" lon="8.031727708876133">
        <ele>1388.21</ele>
        <time>2021-05-30T12:48:30Z</time>
      </trkpt>
      <trkpt lat="45.682564862072468" lon="8.031716141849756">
        <ele>1388.27</ele>
        <time>2021-05-30T12:48:31Z</time>
      </trkpt>
      <trkpt lat="45.682554049417377" lon="8.031641207635403">
        <ele>1388.8900000000001</ele>
        <time>2021-05-30T12:48:37Z</time>
      </trkpt>
      <trkpt lat="45.682475930079818" lon="8.031414980068803">
        <ele>1390.29</ele>
        <time>2021-05-30T12:48:57Z</time>
      </trkpt>
      <trkpt lat="45.682399738579988" lon="8.031197804957628">
        <ele>1392.3</ele>
        <time>2021-05-30T12:49:17Z</time>
      </trkpt>
      <trkpt lat="45.682355985045433" lon="8.03106545470655">
        <ele>1392.4000000000001</ele>
        <time>2021-05-30T12:49:34Z</time>
      </trkpt>
      <trkpt lat="45.682354224845767" lon="8.031071405857801">
        <ele>1393.01</ele>
        <time>2021-05-30T12:49:42Z</time>
      </trkpt>
      <trkpt lat="45.682328157126904" lon="8.03101809695363">
        <ele>1393.4300000000001</ele>
        <time>2021-05-30T12:49:47Z</time>
      </trkpt>
      <trkpt lat="45.682179378345609" lon="8.030808046460152">
        <ele>1393.8599999999999</ele>
        <time>2021-05-30T12:50:06Z</time>
      </trkpt>
      <trkpt lat="45.682052476331592" lon="8.030688017606735">
        <ele>1394.47</ele>
        <time>2021-05-30T12:50:20Z</time>
      </trkpt>
      <trkpt lat="45.68189263343811" lon="8.0306242313236">
        <ele>1395.3699999999999</ele>
        <time>2021-05-30T12:50:37Z</time>
      </trkpt>
      <trkpt lat="45.681861201301217" lon="8.030581651255488">
        <ele>1395.3599999999999</ele>
        <time>2021-05-30T12:50:51Z</time>
      </trkpt>
      <trkpt lat="45.681846868246794" lon="8.03057000041008">
        <ele>1394.48</ele>
        <time>2021-05-30T12:51:03Z</time>
      </trkpt>
      <trkpt lat="45.681855417788029" lon="8.030590871348977">
        <ele>1395.25</ele>
        <time>2021-05-30T12:51:11Z</time>
      </trkpt>
      <trkpt lat="45.681818705052137" lon="8.030627919360995">
        <ele>1395.24</ele>
        <time>2021-05-30T12:51:15Z</time>
      </trkpt>
      <trkpt lat="45.681617120280862" lon="8.030737051740289">
        <ele>1396.6099999999999</ele>
        <time>2021-05-30T12:51:35Z</time>
      </trkpt>
      <trkpt lat="45.68156473338604" lon="8.030739314854145">
        <ele>1396.0999999999999</ele>
        <time>2021-05-30T12:51:39Z</time>
      </trkpt>
      <trkpt lat="45.681406985968351" lon="8.030726993456483">
        <ele>1396.3800000000001</ele>
        <time>2021-05-30T12:51:52Z</time>
      </trkpt>
      <trkpt lat="45.681235743686557" lon="8.0307537317276">
        <ele>1398.98</ele>
        <time>2021-05-30T12:52:10Z</time>
      </trkpt>
      <trkpt lat="45.681213783100247" lon="8.030755408108234">
        <ele>1399</ele>
        <time>2021-05-30T12:52:22Z</time>
      </trkpt>
      <trkpt lat="45.681205401197076" lon="8.030780218541622">
        <ele>1398.98</ele>
        <time>2021-05-30T12:52:24Z</time>
      </trkpt>
      <trkpt lat="45.681183356791735" lon="8.030837718397379">
        <ele>1398.28</ele>
        <time>2021-05-30T12:52:28Z</time>
      </trkpt>
      <trkpt lat="45.68116600625217" lon="8.03087049163878">
        <ele>1397.9300000000001</ele>
        <time>2021-05-30T12:52:32Z</time>
      </trkpt>
      <trkpt lat="45.681127365678549" lon="8.030961351469159">
        <ele>1397.1500000000001</ele>
        <time>2021-05-30T12:52:39Z</time>
      </trkpt>
      <trkpt lat="45.681105656549335" lon="8.031012397259474">
        <ele>1396.75</ele>
        <time>2021-05-30T12:52:43Z</time>
      </trkpt>
      <trkpt lat="45.681057712063193" lon="8.031120942905545">
        <ele>1395.79</ele>
        <time>2021-05-30T12:52:55Z</time>
      </trkpt>
      <trkpt lat="45.681042373180389" lon="8.031141478568316">
        <ele>1395.53</ele>
        <time>2021-05-30T12:52:57Z</time>
      </trkpt>
      <trkpt lat="45.681019658222795" lon="8.031159332022071">
        <ele>1395.26</ele>
        <time>2021-05-30T12:53:01Z</time>
      </trkpt>
      <trkpt lat="45.68095444701612" lon="8.031291346997023">
        <ele>1394.3399999999999</ele>
        <time>2021-05-30T12:53:11Z</time>
      </trkpt>
      <trkpt lat="45.680856881663203" lon="8.031469462439418">
        <ele>1393.03</ele>
        <time>2021-05-30T12:53:26Z</time>
      </trkpt>
      <trkpt lat="45.680841039866209" lon="8.031497457996011">
        <ele>1392.6400000000001</ele>
        <time>2021-05-30T12:53:30Z</time>
      </trkpt>
      <trkpt lat="45.680671222507954" lon="8.03169971331954">
        <ele>1391.29</ele>
        <time>2021-05-30T12:53:49Z</time>
      </trkpt>
      <trkpt lat="45.680522359907627" lon="8.031992157921195">
        <ele>1389.53</ele>
        <time>2021-05-30T12:54:11Z</time>
      </trkpt>
      <trkpt lat="45.68051615729928" lon="8.032005652785301">
        <ele>1389.5599999999999</ele>
        <time>2021-05-30T12:54:13Z</time>
      </trkpt>
      <trkpt lat="45.68049319088459" lon="8.032034654170275">
        <ele>1389.4400000000001</ele>
        <time>2021-05-30T12:54:16Z</time>
      </trkpt>
      <trkpt lat="45.680434769019485" lon="8.032095842063427">
        <ele>1388.8699999999999</ele>
        <time>2021-05-30T12:54:27Z</time>
      </trkpt>
      <trkpt lat="45.680238045752048" lon="8.03227923810482">
        <ele>1387.8199999999999</ele>
        <time>2021-05-30T12:54:48Z</time>
      </trkpt>
      <trkpt lat="45.680038221180439" lon="8.032404128462076">
        <ele>1386.1400000000001</ele>
        <time>2021-05-30T12:55:07Z</time>
      </trkpt>
      <trkpt lat="45.679831607267261" lon="8.032419299706817">
        <ele>1385.3900000000001</ele>
        <time>2021-05-30T12:55:26Z</time>
      </trkpt>
      <trkpt lat="45.679617617279291" lon="8.032308574765921">
        <ele>1384.3199999999999</ele>
        <time>2021-05-30T12:55:46Z</time>
      </trkpt>
      <trkpt lat="45.67943137139082" lon="8.03220153786242">
        <ele>1383.27</ele>
        <time>2021-05-30T12:56:04Z</time>
      </trkpt>
      <trkpt lat="45.679205982014537" lon="8.032151916995645">
        <ele>1382.48</ele>
        <time>2021-05-30T12:56:25Z</time>
      </trkpt>
      <trkpt lat="45.678999619558454" lon="8.032128699123859">
        <ele>1381</ele>
        <time>2021-05-30T12:56:43Z</time>
      </trkpt>
      <trkpt lat="45.678754365071654" lon="8.032125933095813">
        <ele>1379.74</ele>
        <time>2021-05-30T12:57:05Z</time>
      </trkpt>
      <trkpt lat="45.678587565198541" lon="8.032215116545558">
        <ele>1379.0599999999999</ele>
        <time>2021-05-30T12:57:21Z</time>
      </trkpt>
      <trkpt lat="45.678365109488368" lon="8.032389041036367">
        <ele>1377.46</ele>
        <time>2021-05-30T12:57:43Z</time>
      </trkpt>
      <trkpt lat="45.678131505846977" lon="8.032372025772929">
        <ele>1377.3900000000001</ele>
        <time>2021-05-30T12:58:03Z</time>
      </trkpt>
      <trkpt lat="45.677980463951826" lon="8.032638402655721">
        <ele>1378.02</ele>
        <time>2021-05-30T12:58:25Z</time>
      </trkpt>
      <trkpt lat="45.677937129512429" lon="8.032727083191276">
        <ele>1378.26</ele>
        <time>2021-05-30T12:58:31Z</time>
      </trkpt>
      <trkpt lat="45.677929501980543" lon="8.032738398760557">
        <ele>1378</ele>
        <time>2021-05-30T12:58:32Z</time>
      </trkpt>
      <trkpt lat="45.677909385412931" lon="8.032759604975581">
        <ele>1378.6500000000001</ele>
        <time>2021-05-30T12:58:35Z</time>
      </trkpt>
      <trkpt lat="45.677714589983225" lon="8.03300779312849">
        <ele>1379.28</ele>
        <time>2021-05-30T12:58:58Z</time>
      </trkpt>
      <trkpt lat="45.677523650228977" lon="8.033256819471717">
        <ele>1379.3499999999999</ele>
        <time>2021-05-30T12:59:22Z</time>
      </trkpt>
      <trkpt lat="45.677444273605943" lon="8.033382380381227">
        <ele>1380.1900000000001</ele>
        <time>2021-05-30T12:59:32Z</time>
      </trkpt>
      <trkpt lat="45.677439495921135" lon="8.033375004306436">
        <ele>1380.21</ele>
        <time>2021-05-30T12:59:33Z</time>
      </trkpt>
      <trkpt lat="45.677429856732488" lon="8.033384559676051">
        <ele>1380.1400000000001</ele>
        <time>2021-05-30T12:59:34Z</time>
      </trkpt>
      <trkpt lat="45.677421055734158" lon="8.033394366502762">
        <ele>1380.05</ele>
        <time>2021-05-30T12:59:35Z</time>
      </trkpt>
      <trkpt lat="45.677411919459701" lon="8.033405346795917">
        <ele>1380.1099999999999</ele>
        <time>2021-05-30T12:59:36Z</time>
      </trkpt>
      <trkpt lat="45.67722961306572" lon="8.033544151112437">
        <ele>1381.1600000000001</ele>
        <time>2021-05-30T12:59:54Z</time>
      </trkpt>
      <trkpt lat="45.677032973617315" lon="8.03369184024632">
        <ele>1381.3499999999999</ele>
        <time>2021-05-30T13:00:14Z</time>
      </trkpt>
      <trkpt lat="45.676857037469745" lon="8.033818323165178">
        <ele>1382</ele>
        <time>2021-05-30T13:00:33Z</time>
      </trkpt>
      <trkpt lat="45.676660481840372" lon="8.034040108323097">
        <ele>1383.1500000000001</ele>
        <time>2021-05-30T13:00:57Z</time>
      </trkpt>
      <trkpt lat="45.676540452986956" lon="8.034231131896377">
        <ele>1384.1099999999999</ele>
        <time>2021-05-30T13:01:15Z</time>
      </trkpt>
      <trkpt lat="45.676409527659416" lon="8.034505723044276">
        <ele>1385.53</ele>
        <time>2021-05-30T13:01:38Z</time>
      </trkpt>
      <trkpt lat="45.676309447735548" lon="8.034720383584499">
        <ele>1386.04</ele>
        <time>2021-05-30T13:01:55Z</time>
      </trkpt>
      <trkpt lat="45.676160668954253" lon="8.034946024417877">
        <ele>1387.1900000000001</ele>
        <time>2021-05-30T13:02:15Z</time>
      </trkpt>
      <trkpt lat="45.675996048375964" lon="8.035112069919705">
        <ele>1388.9000000000001</ele>
        <time>2021-05-30T13:02:35Z</time>
      </trkpt>
      <trkpt lat="45.675917258486152" lon="8.035150794312358">
        <ele>1389.1099999999999</ele>
        <time>2021-05-30T13:02:51Z</time>
      </trkpt>
      <trkpt lat="45.675726402550936" lon="8.035267805680633">
        <ele>1388.3599999999999</ele>
        <time>2021-05-30T13:03:13Z</time>
      </trkpt>
      <trkpt lat="45.675595561042428" lon="8.035534350201488">
        <ele>1388.1500000000001</ele>
        <time>2021-05-30T13:03:35Z</time>
      </trkpt>
      <trkpt lat="45.675484081730247" lon="8.035800307989121">
        <ele>1388.0599999999999</ele>
        <time>2021-05-30T13:03:56Z</time>
      </trkpt>
      <trkpt lat="45.675469748675823" lon="8.03605729714036">
        <ele>1388.6900000000001</ele>
        <time>2021-05-30T13:04:16Z</time>
      </trkpt>
      <trkpt lat="45.675295991823077" lon="8.036303976550698">
        <ele>1389.9200000000001</ele>
        <time>2021-05-30T13:04:37Z</time>
      </trkpt>
      <trkpt lat="45.675134053453803" lon="8.036429788917303">
        <ele>1391.0899999999999</ele>
        <time>2021-05-30T13:04:55Z</time>
      </trkpt>
      <trkpt lat="45.67498778924346" lon="8.036614442244172">
        <ele>1391.6700000000001</ele>
        <time>2021-05-30T13:05:14Z</time>
      </trkpt>
      <trkpt lat="45.674967840313911" lon="8.036865396425128">
        <ele>1392.8</ele>
        <time>2021-05-30T13:05:32Z</time>
      </trkpt>
      <trkpt lat="45.675028776749969" lon="8.037062706425786">
        <ele>1393.6099999999999</ele>
        <time>2021-05-30T13:05:47Z</time>
      </trkpt>
      <trkpt lat="45.675121229141951" lon="8.037317264825106">
        <ele>1394.5899999999999</ele>
        <time>2021-05-30T13:06:07Z</time>
      </trkpt>
      <trkpt lat="45.675231451168656" lon="8.037568805739284">
        <ele>1395.9000000000001</ele>
        <time>2021-05-30T13:06:28Z</time>
      </trkpt>
      <trkpt lat="45.675340835005045" lon="8.037791261449456">
        <ele>1397.3499999999999</ele>
        <time>2021-05-30T13:06:47Z</time>
      </trkpt>
      <trkpt lat="45.675455499440432" lon="8.038054453209043">
        <ele>1398.4000000000001</ele>
        <time>2021-05-30T13:07:08Z</time>
      </trkpt>
      <trkpt lat="45.675538815557957" lon="8.038324350491166">
        <ele>1399.0599999999999</ele>
        <time>2021-05-30T13:07:28Z</time>
      </trkpt>
      <trkpt lat="45.675519956275821" lon="8.038656357675791">
        <ele>1400.0699999999999</ele>
        <time>2021-05-30T13:07:51Z</time>
      </trkpt>
      <trkpt lat="45.675445776432753" lon="8.038944778963924">
        <ele>1401.0599999999999</ele>
        <time>2021-05-30T13:08:12Z</time>
      </trkpt>
      <trkpt lat="45.675325160846114" lon="8.039206294342876">
        <ele>1402.1900000000001</ele>
        <time>2021-05-30T13:08:33Z</time>
      </trkpt>
      <trkpt lat="45.675166994333267" lon="8.039447609335184">
        <ele>1402.8900000000001</ele>
        <time>2021-05-30T13:08:55Z</time>
      </trkpt>
      <trkpt lat="45.674976976588368" lon="8.039683643728495">
        <ele>1402.0799999999999</ele>
        <time>2021-05-30T13:09:20Z</time>
      </trkpt>
      <trkpt lat="45.674819061532617" lon="8.03984516300261">
        <ele>1401.0799999999999</ele>
        <time>2021-05-30T13:09:38Z</time>
      </trkpt>
      <trkpt lat="45.674652932211757" lon="8.0400684569031">
        <ele>1400.0799999999999</ele>
        <time>2021-05-30T13:09:59Z</time>
      </trkpt>
      <trkpt lat="45.674515636637807" lon="8.040255373343825">
        <ele>1399.71</ele>
        <time>2021-05-30T13:10:16Z</time>
      </trkpt>
      <trkpt lat="45.674295611679554" lon="8.040425525978208">
        <ele>1398.8099999999999</ele>
        <time>2021-05-30T13:10:40Z</time>
      </trkpt>
      <trkpt lat="45.674120429903269" lon="8.040425525978208">
        <ele>1398.3199999999999</ele>
        <time>2021-05-30T13:10:59Z</time>
      </trkpt>
      <trkpt lat="45.673941224813461" lon="8.04037875495851">
        <ele>1398.6099999999999</ele>
        <time>2021-05-30T13:11:17Z</time>
      </trkpt>
      <trkpt lat="45.67377895116806" lon="8.040305832400918">
        <ele>1398.73</ele>
        <time>2021-05-30T13:11:34Z</time>
      </trkpt>
      <trkpt lat="45.673585999757051" lon="8.040259648114443">
        <ele>1398.75</ele>
        <time>2021-05-30T13:11:53Z</time>
      </trkpt>
      <trkpt lat="45.673396401107311" lon="8.040256379172206">
        <ele>1398.99</ele>
        <time>2021-05-30T13:12:12Z</time>
      </trkpt>
      <trkpt lat="45.673279641196132" lon="8.040259145200253">
        <ele>1399.3299999999999</ele>
        <time>2021-05-30T13:12:26Z</time>
      </trkpt>
      <trkpt lat="45.673250555992126" lon="8.040261827409267">
        <ele>1399.3900000000001</ele>
        <time>2021-05-30T13:12:29Z</time>
      </trkpt>
      <trkpt lat="45.673240162432194" lon="8.040261492133141">
        <ele>1399.4000000000001</ele>
        <time>2021-05-30T13:12:30Z</time>
      </trkpt>
      <trkpt lat="45.673059616237879" lon="8.040239028632641">
        <ele>1400.0999999999999</ele>
        <time>2021-05-30T13:12:50Z</time>
      </trkpt>
      <trkpt lat="45.672888206318021" lon="8.040172979235649">
        <ele>1401.1600000000001</ele>
        <time>2021-05-30T13:13:09Z</time>
      </trkpt>
      <trkpt lat="45.672869179397821" lon="8.040163088589907">
        <ele>1401.3699999999999</ele>
        <time>2021-05-30T13:13:11Z</time>
      </trkpt>
      <trkpt lat="45.672689219936728" lon="8.040101313963532">
        <ele>1401.49</ele>
        <time>2021-05-30T13:13:30Z</time>
      </trkpt>
      <trkpt lat="45.672476654872298" lon="8.040045574307442">
        <ele>1401.49</ele>
        <time>2021-05-30T13:13:51Z</time>
      </trkpt>
      <trkpt lat="45.672354698181152" lon="8.040100978687406">
        <ele>1402.0999999999999</ele>
        <time>2021-05-30T13:14:05Z</time>
      </trkpt>
      <trkpt lat="45.672234585508704" lon="8.040369702503085">
        <ele>1399.8800000000001</ele>
        <time>2021-05-30T13:14:28Z</time>
      </trkpt>
      <trkpt lat="45.67212151363492" lon="8.040679330006242">
        <ele>1400.0699999999999</ele>
        <time>2021-05-30T13:14:51Z</time>
      </trkpt>
      <trkpt lat="45.672081364318728" lon="8.040884267538786">
        <ele>1398.97</ele>
        <time>2021-05-30T13:15:06Z</time>
      </trkpt>
      <trkpt lat="45.672077173367143" lon="8.040927266702056">
        <ele>1398.5599999999999</ele>
        <time>2021-05-30T13:15:09Z</time>
      </trkpt>
      <trkpt lat="45.672075413167477" lon="8.040943024680018">
        <ele>1398.51</ele>
        <time>2021-05-30T13:15:10Z</time>
      </trkpt>
      <trkpt lat="45.672005591914058" lon="8.041179142892361">
        <ele>1396.5599999999999</ele>
        <time>2021-05-30T13:15:26Z</time>
      </trkpt>
      <trkpt lat="45.671891765668988" lon="8.041379973292351">
        <ele>1395.5599999999999</ele>
        <time>2021-05-30T13:15:44Z</time>
      </trkpt>
      <trkpt lat="45.671837199479342" lon="8.041497655212879">
        <ele>1395.1300000000001</ele>
        <time>2021-05-30T13:15:53Z</time>
      </trkpt>
      <trkpt lat="45.67179805599153" lon="8.041600082069635">
        <ele>1395.0699999999999</ele>
        <time>2021-05-30T13:16:02Z</time>
      </trkpt>
      <trkpt lat="45.671793278306723" lon="8.041616007685661">
        <ele>1395.01</ele>
        <time>2021-05-30T13:16:03Z</time>
      </trkpt>
      <trkpt lat="45.671786908060312" lon="8.041631933301687">
        <ele>1395</ele>
        <time>2021-05-30T13:16:04Z</time>
      </trkpt>
      <trkpt lat="45.671782298013568" lon="8.041648361831904">
        <ele>1395.1099999999999</ele>
        <time>2021-05-30T13:16:05Z</time>
      </trkpt>
      <trkpt lat="45.671778107061982" lon="8.041665544733405">
        <ele>1395.1700000000001</ele>
        <time>2021-05-30T13:16:06Z</time>
      </trkpt>
      <trkpt lat="45.67167442291975" lon="8.041966203600168">
        <ele>1395.3699999999999</ele>
        <time>2021-05-30T13:16:27Z</time>
      </trkpt>
      <trkpt lat="45.671710297465324" lon="8.042231407016516">
        <ele>1396.3699999999999</ele>
        <time>2021-05-30T13:16:46Z</time>
      </trkpt>
      <trkpt lat="45.671719433739781" lon="8.042464507743716">
        <ele>1398.0599999999999</ele>
        <time>2021-05-30T13:17:03Z</time>
      </trkpt>
      <trkpt lat="45.67171398550272" lon="8.04248764179647">
        <ele>1398.21</ele>
        <time>2021-05-30T13:17:05Z</time>
      </trkpt>
      <trkpt lat="45.671654809266329" lon="8.042708085849881">
        <ele>1399.6600000000001</ele>
        <time>2021-05-30T13:17:22Z</time>
      </trkpt>
      <trkpt lat="45.67161725834012" lon="8.042908664792776">
        <ele>1401.6300000000001</ele>
        <time>2021-05-30T13:17:37Z</time>
      </trkpt>
      <trkpt lat="45.671580880880356" lon="8.04305006749928">
        <ele>1403.6600000000001</ele>
        <time>2021-05-30T13:17:51Z</time>
      </trkpt>
      <trkpt lat="45.671571996062994" lon="8.043074710294604">
        <ele>1404.1400000000001</ele>
        <time>2021-05-30T13:18:05Z</time>
      </trkpt>
      <trkpt lat="45.671535786241293" lon="8.043215777724981">
        <ele>1405.3499999999999</ele>
        <time>2021-05-30T13:18:22Z</time>
      </trkpt>
      <trkpt lat="45.671469066292048" lon="8.043449884280562">
        <ele>1408.26</ele>
        <time>2021-05-30T13:18:42Z</time>
      </trkpt>
      <trkpt lat="45.671400334686041" lon="8.043646775186062">
        <ele>1410.24</ele>
        <time>2021-05-30T13:19:00Z</time>
      </trkpt>
      <trkpt lat="45.671365046873689" lon="8.043725900352001">
        <ele>1411.5</ele>
        <time>2021-05-30T13:19:08Z</time>
      </trkpt>
      <trkpt lat="45.671288603916764" lon="8.043918935582042">
        <ele>1411.1700000000001</ele>
        <time>2021-05-30T13:19:26Z</time>
      </trkpt>
      <trkpt lat="45.671266643330455" lon="8.043977944180369">
        <ele>1414.3399999999999</ele>
        <time>2021-05-30T13:19:32Z</time>
      </trkpt>
      <trkpt lat="45.671261698007584" lon="8.04399068467319">
        <ele>1414.6300000000001</ele>
        <time>2021-05-30T13:19:33Z</time>
      </trkpt>
      <trkpt lat="45.671252561733127" lon="8.04402245208621">
        <ele>1414.26</ele>
        <time>2021-05-30T13:19:36Z</time>
      </trkpt>
      <trkpt lat="45.671242671087384" lon="8.044046675786376">
        <ele>1414.52</ele>
        <time>2021-05-30T13:19:38Z</time>
      </trkpt>
      <trkpt lat="45.671176454052329" lon="8.044198807328939">
        <ele>1416.55</ele>
        <time>2021-05-30T13:19:54Z</time>
      </trkpt>
      <trkpt lat="45.671074781566858" lon="8.044444229453802">
        <ele>1418.48</ele>
        <time>2021-05-30T13:20:14Z</time>
      </trkpt>
      <trkpt lat="45.671026417985559" lon="8.044717479497194">
        <ele>1419.6400000000001</ele>
        <time>2021-05-30T13:20:32Z</time>
      </trkpt>
      <trkpt lat="45.670972187072039" lon="8.045001374557614">
        <ele>1420.6700000000001</ele>
        <time>2021-05-30T13:20:51Z</time>
      </trkpt>
      <trkpt lat="45.670932456851006" lon="8.045177478343248">
        <ele>1421.9400000000001</ele>
        <time>2021-05-30T13:21:09Z</time>
      </trkpt>
      <trkpt lat="45.670931031927466" lon="8.045190386474133">
        <ele>1421.9200000000001</ele>
        <time>2021-05-30T13:21:10Z</time>
      </trkpt>
      <trkpt lat="45.670902281999588" lon="8.045284012332559">
        <ele>1422.1500000000001</ele>
        <time>2021-05-30T13:21:18Z</time>
      </trkpt>
      <trkpt lat="45.670897588133812" lon="8.045297674834728">
        <ele>1421.99</ele>
        <time>2021-05-30T13:21:19Z</time>
      </trkpt>
      <trkpt lat="45.670815110206604" lon="8.045557262375951">
        <ele>1423.53</ele>
        <time>2021-05-30T13:21:38Z</time>
      </trkpt>
      <trkpt lat="45.670725842937827" lon="8.045689444988966">
        <ele>1424.5799999999999</ele>
        <time>2021-05-30T13:21:55Z</time>
      </trkpt>
      <trkpt lat="45.670713940635324" lon="8.045691540464759">
        <ele>1424.49</ele>
        <time>2021-05-30T13:22:15Z</time>
      </trkpt>
      <trkpt lat="45.670714527368546" lon="8.045695647597313">
        <ele>1424.8199999999999</ele>
        <time>2021-05-30T13:22:43Z</time>
      </trkpt>
      <trkpt lat="45.670709246769547" lon="8.045700760558248">
        <ele>1424.3499999999999</ele>
        <time>2021-05-30T13:23:02Z</time>
      </trkpt>
      <trkpt lat="45.670708073303103" lon="8.045683745294809">
        <ele>1424.27</ele>
        <time>2021-05-30T13:23:33Z</time>
      </trkpt>
      <trkpt lat="45.670704385265708" lon="8.045678967610002">
        <ele>1424.21</ele>
        <time>2021-05-30T13:23:56Z</time>
      </trkpt>
      <trkpt lat="45.670720059424639" lon="8.045703191310167">
        <ele>1424.24</ele>
        <time>2021-05-30T13:24:18Z</time>
      </trkpt>
      <trkpt lat="45.670720394700766" lon="8.045714171603322">
        <ele>1424.51</ele>
        <time>2021-05-30T13:24:32Z</time>
      </trkpt>
      <trkpt lat="45.670700278133154" lon="8.045668238773942">
        <ele>1424.8599999999999</ele>
        <time>2021-05-30T13:24:51Z</time>
      </trkpt>
      <trkpt lat="45.670703211799264" lon="8.045667819678783">
        <ele>1424.3599999999999</ele>
        <time>2021-05-30T13:25:05Z</time>
      </trkpt>
      <trkpt lat="45.670696841552854" lon="8.045650720596314">
        <ele>1424.52</ele>
        <time>2021-05-30T13:25:22Z</time>
      </trkpt>
      <trkpt lat="45.67069323733449" lon="8.045644517987967">
        <ele>1423.9200000000001</ele>
        <time>2021-05-30T13:25:42Z</time>
      </trkpt>
      <trkpt lat="45.6706927344203" lon="8.045645356178284">
        <ele>1423.52</ele>
        <time>2021-05-30T13:26:33Z</time>
      </trkpt>
      <trkpt lat="45.670662643387914" lon="8.045630771666765">
        <ele>1423.4400000000001</ele>
        <time>2021-05-30T13:26:57Z</time>
      </trkpt>
      <trkpt lat="45.670627858489752" lon="8.045647032558918">
        <ele>1423.48</ele>
        <time>2021-05-30T13:27:09Z</time>
      </trkpt>
      <trkpt lat="45.670626433566213" lon="8.045651391148567">
        <ele>1421.8099999999999</ele>
        <time>2021-05-30T13:27:46Z</time>
      </trkpt>
      <trkpt lat="45.670626182109118" lon="8.045649044215679">
        <ele>1425.28</ele>
        <time>2021-05-30T13:27:48Z</time>
      </trkpt>
      <trkpt lat="45.670625930652022" lon="8.045648625120521">
        <ele>1425.28</ele>
        <time>2021-05-30T13:27:49Z</time>
      </trkpt>
      <trkpt lat="45.670621069148183" lon="8.045642422512174">
        <ele>1423.27</ele>
        <time>2021-05-30T13:28:15Z</time>
      </trkpt>
      <trkpt lat="45.670628109946847" lon="8.045644098892808">
        <ele>1423.72</ele>
        <time>2021-05-30T13:28:57Z</time>
      </trkpt>
      <trkpt lat="45.670620650053024" lon="8.045650804415345">
        <ele>1423.7</ele>
        <time>2021-05-30T13:29:54Z</time>
      </trkpt>
      <trkpt lat="45.670619057491422" lon="8.045653905719519">
        <ele>1423.55</ele>
        <time>2021-05-30T13:31:08Z</time>
      </trkpt>
      <trkpt lat="45.670616794377565" lon="8.04565348662436">
        <ele>1423.46</ele>
        <time>2021-05-30T13:32:31Z</time>
      </trkpt>
      <trkpt lat="45.670611513778567" lon="8.045660778880119">
        <ele>1423.3199999999999</ele>
        <time>2021-05-30T13:33:51Z</time>
      </trkpt>
      <trkpt lat="45.670607574284077" lon="8.045663964003325">
        <ele>1423.21</ele>
        <time>2021-05-30T13:35:13Z</time>
      </trkpt>
      <trkpt lat="45.670606233179569" lon="8.045666562393308">
        <ele>1422.9200000000001</ele>
        <time>2021-05-30T13:36:38Z</time>
      </trkpt>
      <trkpt lat="45.670609083026648" lon="8.045669160783291">
        <ele>1422.8699999999999</ele>
        <time>2021-05-30T13:38:09Z</time>
      </trkpt>
      <trkpt lat="45.670605730265379" lon="8.045674106106162">
        <ele>1422.3699999999999</ele>
        <time>2021-05-30T13:39:41Z</time>
      </trkpt>
      <trkpt lat="45.67060673609376" lon="8.045675028115511">
        <ele>1422.9200000000001</ele>
        <time>2021-05-30T13:41:03Z</time>
      </trkpt>
      <trkpt lat="45.670607909560204" lon="8.045672178268433">
        <ele>1422.3800000000001</ele>
        <time>2021-05-30T13:42:22Z</time>
      </trkpt>
      <trkpt lat="45.670611346140504" lon="8.04567838087678">
        <ele>1422.22</ele>
        <time>2021-05-30T13:43:23Z</time>
      </trkpt>
      <trkpt lat="45.670606484636664" lon="8.045677794143558">
        <ele>1422.1900000000001</ele>
        <time>2021-05-30T13:44:37Z</time>
      </trkpt>
      <trkpt lat="45.670604640617967" lon="8.045680141076446">
        <ele>1422.03</ele>
        <time>2021-05-30T13:45:49Z</time>
      </trkpt>
      <trkpt lat="45.670606987550855" lon="8.045668406412005">
        <ele>1422.21</ele>
        <time>2021-05-30T13:46:55Z</time>
      </trkpt>
      <trkpt lat="45.670603383332491" lon="8.045674692839384">
        <ele>1421.5699999999999</ele>
        <time>2021-05-30T13:47:56Z</time>
      </trkpt>
      <trkpt lat="45.670608496293426" lon="8.045662958174944">
        <ele>1421.49</ele>
        <time>2021-05-30T13:49:03Z</time>
      </trkpt>
      <trkpt lat="45.670608999207616" lon="8.045657593756914">
        <ele>1421.4000000000001</ele>
        <time>2021-05-30T13:50:20Z</time>
      </trkpt>
      <trkpt lat="45.67060430534184" lon="8.045648876577616">
        <ele>1421.79</ele>
        <time>2021-05-30T13:51:09Z</time>
      </trkpt>
      <trkpt lat="45.670590810477734" lon="8.045648708939552">
        <ele>1421.6099999999999</ele>
        <time>2021-05-30T13:51:26Z</time>
      </trkpt>
      <trkpt lat="45.670604053884745" lon="8.045649798586965">
        <ele>1421.6900000000001</ele>
        <time>2021-05-30T13:51:38Z</time>
      </trkpt>
      <trkpt lat="45.670604389160872" lon="8.045645356178284">
        <ele>1421.6099999999999</ele>
        <time>2021-05-30T13:52:41Z</time>
      </trkpt>
      <trkpt lat="45.67061360925436" lon="8.045664886012673">
        <ele>1422.77</ele>
        <time>2021-05-30T13:53:00Z</time>
      </trkpt>
      <trkpt lat="45.670613860711455" lon="8.045661533251405">
        <ele>1422.96</ele>
        <time>2021-05-30T13:53:17Z</time>
      </trkpt>
      <trkpt lat="45.670638335868716" lon="8.045722804963589">
        <ele>1422.9200000000001</ele>
        <time>2021-05-30T13:53:31Z</time>
      </trkpt>
      <trkpt lat="45.670636491850019" lon="8.045722553506494">
        <ele>1422.3199999999999</ele>
        <time>2021-05-30T13:53:55Z</time>
      </trkpt>
      <trkpt lat="45.67062433809042" lon="8.045690031722188">
        <ele>1422.3900000000001</ele>
        <time>2021-05-30T13:54:15Z</time>
      </trkpt>
      <trkpt lat="45.670621236786246" lon="8.045677710324526">
        <ele>1422.4300000000001</ele>
        <time>2021-05-30T13:54:27Z</time>
      </trkpt>
      <trkpt lat="45.670599360018969" lon="8.045691289007664">
        <ele>1422.53</ele>
        <time>2021-05-30T13:54:42Z</time>
      </trkpt>
      <trkpt lat="45.670552337542176" lon="8.045686678960919">
        <ele>1422.6900000000001</ele>
        <time>2021-05-30T13:54:57Z</time>
      </trkpt>
      <trkpt lat="45.67053590901196" lon="8.04569254629314">
        <ele>1422.54</ele>
        <time>2021-05-30T13:55:11Z</time>
      </trkpt>
      <trkpt lat="45.670532640069723" lon="8.045655749738216">
        <ele>1422.9200000000001</ele>
        <time>2021-05-30T13:55:27Z</time>
      </trkpt>
      <trkpt lat="45.670536076650023" lon="8.045649211853743">
        <ele>1422.79</ele>
        <time>2021-05-30T13:55:47Z</time>
      </trkpt>
      <trkpt lat="45.670525515452027" lon="8.04565398953855">
        <ele>1422.6400000000001</ele>
        <time>2021-05-30T13:56:14Z</time>
      </trkpt>
      <trkpt lat="45.670525431632996" lon="8.045658515766263">
        <ele>1422.7</ele>
        <time>2021-05-30T13:56:34Z</time>
      </trkpt>
      <trkpt lat="45.67051587626338" lon="8.045659018680453">
        <ele>1422.8299999999999</ele>
        <time>2021-05-30T13:57:04Z</time>
      </trkpt>
      <trkpt lat="45.670511182397604" lon="8.045665053650737">
        <ele>1422.8900000000001</ele>
        <time>2021-05-30T13:57:22Z</time>
      </trkpt>
      <trkpt lat="45.670512020587921" lon="8.04566228762269">
        <ele>1422.8299999999999</ele>
        <time>2021-05-30T13:58:03Z</time>
      </trkpt>
      <trkpt lat="45.670515289530158" lon="8.045662455260754">
        <ele>1423.0699999999999</ele>
        <time>2021-05-30T13:58:32Z</time>
      </trkpt>
      <trkpt lat="45.670512858778238" lon="8.045662622898817">
        <ele>1422.6600000000001</ele>
        <time>2021-05-30T13:59:03Z</time>
      </trkpt>
      <trkpt lat="45.670508667826653" lon="8.045663964003325">
        <ele>1422.9400000000001</ele>
        <time>2021-05-30T13:59:31Z</time>
      </trkpt>
      <trkpt lat="45.670486874878407" lon="8.045684667304158">
        <ele>1422.75</ele>
        <time>2021-05-30T14:00:01Z</time>
      </trkpt>
      <trkpt lat="45.670397775247693" lon="8.045709393918514">
        <ele>1422.3499999999999</ele>
        <time>2021-05-30T14:00:15Z</time>
      </trkpt>
      <trkpt lat="45.670243129134178" lon="8.045793296769261">
        <ele>1420.8099999999999</ele>
        <time>2021-05-30T14:00:35Z</time>
      </trkpt>
      <trkpt lat="45.670136092230678" lon="8.045868063345552">
        <ele>1419.9000000000001</ele>
        <time>2021-05-30T14:00:51Z</time>
      </trkpt>
      <trkpt lat="45.670127207413316" lon="8.045876696705818">
        <ele>1419.71</ele>
        <time>2021-05-30T14:00:52Z</time>
      </trkpt>
      <trkpt lat="45.670013464987278" lon="8.045965628698468">
        <ele>1418.29</ele>
        <time>2021-05-30T14:01:05Z</time>
      </trkpt>
      <trkpt lat="45.669879941269755" lon="8.046011729165912">
        <ele>1417.3</ele>
        <time>2021-05-30T14:01:19Z</time>
      </trkpt>
      <trkpt lat="45.66987088881433" lon="8.046013740822673">
        <ele>1417.0599999999999</ele>
        <time>2021-05-30T14:01:20Z</time>
      </trkpt>
      <trkpt lat="45.669858735054731" lon="8.046017093583942">
        <ele>1416.9400000000001</ele>
        <time>2021-05-30T14:01:21Z</time>
      </trkpt>
      <trkpt lat="45.669800397008657" lon="8.046016674488783">
        <ele>1416.6400000000001</ele>
        <time>2021-05-30T14:01:27Z</time>
      </trkpt>
      <trkpt lat="45.669786985963583" lon="8.046019105240703">
        <ele>1416.49</ele>
        <time>2021-05-30T14:01:28Z</time>
      </trkpt>
      <trkpt lat="45.669670980423689" lon="8.046116502955556">
        <ele>1416.5699999999999</ele>
        <time>2021-05-30T14:01:39Z</time>
      </trkpt>
      <trkpt lat="45.669583808630705" lon="8.04642210714519">
        <ele>1416.5799999999999</ele>
        <time>2021-05-30T14:01:57Z</time>
      </trkpt>
      <trkpt lat="45.669565033167601" lon="8.046698458492756">
        <ele>1417.1600000000001</ele>
        <time>2021-05-30T14:02:15Z</time>
      </trkpt>
      <trkpt lat="45.669571235775948" lon="8.04708905518055">
        <ele>1417.24</ele>
        <time>2021-05-30T14:02:39Z</time>
      </trkpt>
      <trkpt lat="45.669539803639054" lon="8.047431958839297">
        <ele>1414.3900000000001</ele>
        <time>2021-05-30T14:03:01Z</time>
      </trkpt>
      <trkpt lat="45.669542737305164" lon="8.047565734013915">
        <ele>1413.6500000000001</ele>
        <time>2021-05-30T14:03:10Z</time>
      </trkpt>
      <trkpt lat="45.669504264369607" lon="8.047766480594873">
        <ele>1412.6500000000001</ele>
        <time>2021-05-30T14:03:23Z</time>
      </trkpt>
      <trkpt lat="45.669398484751582" lon="8.047988181933761">
        <ele>1411.8299999999999</ele>
        <time>2021-05-30T14:03:39Z</time>
      </trkpt>
      <trkpt lat="45.669372836127877" lon="8.048030007630587">
        <ele>1411.5699999999999</ele>
        <time>2021-05-30T14:03:43Z</time>
      </trkpt>
      <trkpt lat="45.66929966211319" lon="8.048109216615558">
        <ele>1411.27</ele>
        <time>2021-05-30T14:03:51Z</time>
      </trkpt>
      <trkpt lat="45.669155744835734" lon="8.048213236033917">
        <ele>1411.8</ele>
        <time>2021-05-30T14:04:06Z</time>
      </trkpt>
      <trkpt lat="45.669072680175304" lon="8.048238046467304">
        <ele>1411.97</ele>
        <time>2021-05-30T14:04:14Z</time>
      </trkpt>
      <trkpt lat="45.668956590816379" lon="8.048288756981492">
        <ele>1411.8199999999999</ele>
        <time>2021-05-30T14:04:25Z</time>
      </trkpt>
      <trkpt lat="45.668822061270475" lon="8.048372324556112">
        <ele>1411.6600000000001</ele>
        <time>2021-05-30T14:04:38Z</time>
      </trkpt>
      <trkpt lat="45.668668337166309" lon="8.048508111387491">
        <ele>1411.0999999999999</ele>
        <time>2021-05-30T14:04:53Z</time>
      </trkpt>
      <trkpt lat="45.668507236987352" lon="8.048634175211191">
        <ele>1411.1500000000001</ele>
        <time>2021-05-30T14:05:07Z</time>
      </trkpt>
      <trkpt lat="45.668482342734933" lon="8.048666696995497">
        <ele>1411.3</ele>
        <time>2021-05-30T14:05:09Z</time>
      </trkpt>
      <trkpt lat="45.66847245208919" lon="8.048678599298">
        <ele>1411.3800000000001</ele>
        <time>2021-05-30T14:05:10Z</time>
      </trkpt>
      <trkpt lat="45.668463399633765" lon="8.048687735572457">
        <ele>1411.25</ele>
        <time>2021-05-30T14:05:11Z</time>
      </trkpt>
      <trkpt lat="45.668450659140944" lon="8.048700978979468">
        <ele>1411.27</ele>
        <time>2021-05-30T14:05:12Z</time>
      </trkpt>
      <trkpt lat="45.668438505381346" lon="8.048714390024543">
        <ele>1411.1600000000001</ele>
        <time>2021-05-30T14:05:13Z</time>
      </trkpt>
      <trkpt lat="45.668426854535937" lon="8.048721766099334">
        <ele>1411.22</ele>
        <time>2021-05-30T14:05:14Z</time>
      </trkpt>
      <trkpt lat="45.668414114043117" lon="8.048723945394158">
        <ele>1411.3099999999999</ele>
        <time>2021-05-30T14:05:15Z</time>
      </trkpt>
      <trkpt lat="45.668405815958977" lon="8.048730315640569">
        <ele>1411.23</ele>
        <time>2021-05-30T14:05:16Z</time>
      </trkpt>
      <trkpt lat="45.668395003303885" lon="8.048742301762104">
        <ele>1411.3699999999999</ele>
        <time>2021-05-30T14:05:17Z</time>
      </trkpt>
      <trkpt lat="45.668382095173001" lon="8.048755126073957">
        <ele>1411.3499999999999</ele>
        <time>2021-05-30T14:05:18Z</time>
      </trkpt>
      <trkpt lat="45.668174978345633" lon="8.048969283699989">
        <ele>1411.71</ele>
        <time>2021-05-30T14:05:38Z</time>
      </trkpt>
      <trkpt lat="45.668189562857151" lon="8.049260638654232">
        <ele>1411.8199999999999</ele>
        <time>2021-05-30T14:05:56Z</time>
      </trkpt>
      <trkpt lat="45.668328450992703" lon="8.049573535099626">
        <ele>1412.6199999999999</ele>
        <time>2021-05-30T14:06:17Z</time>
      </trkpt>
      <trkpt lat="45.668351165950298" lon="8.049684008583427">
        <ele>1413.6099999999999</ele>
        <time>2021-05-30T14:06:25Z</time>
      </trkpt>
      <trkpt lat="45.668360721319914" lon="8.049723068252206">
        <ele>1413.8800000000001</ele>
        <time>2021-05-30T14:06:28Z</time>
      </trkpt>
      <trkpt lat="45.668393075466156" lon="8.049929346889257">
        <ele>1415.6300000000001</ele>
        <time>2021-05-30T14:06:43Z</time>
      </trkpt>
      <trkpt lat="45.668435906991363" lon="8.050120789557695">
        <ele>1417.51</ele>
        <time>2021-05-30T14:06:58Z</time>
      </trkpt>
      <trkpt lat="45.668450575321913" lon="8.050189688801765">
        <ele>1418.01</ele>
        <time>2021-05-30T14:07:03Z</time>
      </trkpt>
      <trkpt lat="45.668477984145284" lon="8.050381802022457">
        <ele>1419.6600000000001</ele>
        <time>2021-05-30T14:07:18Z</time>
      </trkpt>
      <trkpt lat="45.668491311371326" lon="8.05059352889657">
        <ele>1422.1099999999999</ele>
        <time>2021-05-30T14:07:33Z</time>
      </trkpt>
      <trkpt lat="45.668513691052794" lon="8.050798550248146">
        <ele>1424.1800000000001</ele>
        <time>2021-05-30T14:07:49Z</time>
      </trkpt>
      <trkpt lat="45.668595917522907" lon="8.051072722300887">
        <ele>1425.9100000000001</ele>
        <time>2021-05-30T14:08:10Z</time>
      </trkpt>
      <trkpt lat="45.668704714626074" lon="8.051291909068823">
        <ele>1427.6300000000001</ele>
        <time>2021-05-30T14:08:28Z</time>
      </trkpt>
      <trkpt lat="45.6688276771456" lon="8.051534229889512">
        <ele>1427.6900000000001</ele>
        <time>2021-05-30T14:08:47Z</time>
      </trkpt>
      <trkpt lat="45.668903701007366" lon="8.051829608157277">
        <ele>1426.54</ele>
        <time>2021-05-30T14:09:06Z</time>
      </trkpt>
      <trkpt lat="45.668880315497518" lon="8.05209849961102">
        <ele>1426.1199999999999</ele>
        <time>2021-05-30T14:09:23Z</time>
      </trkpt>
      <trkpt lat="45.668874448165298" lon="8.052110988646746">
        <ele>1425.8199999999999</ele>
        <time>2021-05-30T14:09:24Z</time>
      </trkpt>
      <trkpt lat="45.668865898624063" lon="8.052122220396996">
        <ele>1425.72</ele>
        <time>2021-05-30T14:09:25Z</time>
      </trkpt>
      <trkpt lat="45.668859276920557" lon="8.052133703604341">
        <ele>1425.6600000000001</ele>
        <time>2021-05-30T14:09:26Z</time>
      </trkpt>
      <trkpt lat="45.668852990493178" lon="8.052146695554256">
        <ele>1425.73</ele>
        <time>2021-05-30T14:09:27Z</time>
      </trkpt>
      <trkpt lat="45.668845949694514" lon="8.052160441875458">
        <ele>1425.71</ele>
        <time>2021-05-30T14:09:28Z</time>
      </trkpt>
      <trkpt lat="45.66883790306747" lon="8.052171841263771">
        <ele>1425.5599999999999</ele>
        <time>2021-05-30T14:09:29Z</time>
      </trkpt>
      <trkpt lat="45.668829688802361" lon="8.052181815728545">
        <ele>1425.49</ele>
        <time>2021-05-30T14:09:30Z</time>
      </trkpt>
      <trkpt lat="45.668821725994349" lon="8.052192376926541">
        <ele>1425.4400000000001</ele>
        <time>2021-05-30T14:09:31Z</time>
      </trkpt>
      <trkpt lat="45.668803537264466" lon="8.052210649475455">
        <ele>1425.4300000000001</ele>
        <time>2021-05-30T14:09:33Z</time>
      </trkpt>
      <trkpt lat="45.668792054057121" lon="8.052218612283468">
        <ele>1425.52</ele>
        <time>2021-05-30T14:09:34Z</time>
      </trkpt>
      <trkpt lat="45.66878174431622" lon="8.052226575091481">
        <ele>1425.53</ele>
        <time>2021-05-30T14:09:35Z</time>
      </trkpt>
      <trkpt lat="45.668771434575319" lon="8.05223529227078">
        <ele>1425.3599999999999</ele>
        <time>2021-05-30T14:09:36Z</time>
      </trkpt>
      <trkpt lat="45.668622488155961" lon="8.052360936999321">
        <ele>1424.4300000000001</ele>
        <time>2021-05-30T14:09:51Z</time>
      </trkpt>
      <trkpt lat="45.668455688282847" lon="8.052524551749229">
        <ele>1422.9000000000001</ele>
        <time>2021-05-30T14:10:08Z</time>
      </trkpt>
      <trkpt lat="45.668278243392706" lon="8.052686909213662">
        <ele>1422.24</ele>
        <time>2021-05-30T14:10:25Z</time>
      </trkpt>
      <trkpt lat="45.668257288634777" lon="8.0527004878968">
        <ele>1422.26</ele>
        <time>2021-05-30T14:10:27Z</time>
      </trkpt>
      <trkpt lat="45.668243877589703" lon="8.052702583372593">
        <ele>1422.1800000000001</ele>
        <time>2021-05-30T14:10:28Z</time>
      </trkpt>
      <trkpt lat="45.668232562020421" lon="8.052708199247718">
        <ele>1422.2</ele>
        <time>2021-05-30T14:10:29Z</time>
      </trkpt>
      <trkpt lat="45.668219653889537" lon="8.052712306380272">
        <ele>1422.0899999999999</ele>
        <time>2021-05-30T14:10:30Z</time>
      </trkpt>
      <trkpt lat="45.668208757415414" lon="8.052717503160238">
        <ele>1422.0699999999999</ele>
        <time>2021-05-30T14:10:31Z</time>
      </trkpt>
      <trkpt lat="45.668058637529612" lon="8.052793107926846">
        <ele>1421.2</ele>
        <time>2021-05-30T14:10:45Z</time>
      </trkpt>
      <trkpt lat="45.667849089950323" lon="8.052932666614652">
        <ele>1420.3599999999999</ele>
        <time>2021-05-30T14:11:03Z</time>
      </trkpt>
      <trkpt lat="45.66773216240108" lon="8.053068369626999">
        <ele>1419.78</ele>
        <time>2021-05-30T14:11:15Z</time>
      </trkpt>
      <trkpt lat="45.667723696678877" lon="8.053080271929503">
        <ele>1419.8299999999999</ele>
        <time>2021-05-30T14:11:16Z</time>
      </trkpt>
      <trkpt lat="45.66768815740943" lon="8.053126372396946">
        <ele>1419.72</ele>
        <time>2021-05-30T14:11:20Z</time>
      </trkpt>
      <trkpt lat="45.667680278420448" lon="8.053139029070735">
        <ele>1419.74</ele>
        <time>2021-05-30T14:11:21Z</time>
      </trkpt>
      <trkpt lat="45.667551532387733" lon="8.053323766216636">
        <ele>1418.8499999999999</ele>
        <time>2021-05-30T14:11:36Z</time>
      </trkpt>
      <trkpt lat="45.667543150484562" lon="8.053336506709456">
        <ele>1418.79</ele>
        <time>2021-05-30T14:11:37Z</time>
      </trkpt>
      <trkpt lat="45.667535606771708" lon="8.053350001573563">
        <ele>1418.71</ele>
        <time>2021-05-30T14:11:38Z</time>
      </trkpt>
      <trkpt lat="45.667494786903262" lon="8.053411776199937">
        <ele>1418.26</ele>
        <time>2021-05-30T14:11:43Z</time>
      </trkpt>
      <trkpt lat="45.667487159371376" lon="8.053423259407282">
        <ele>1418.27</ele>
        <time>2021-05-30T14:11:44Z</time>
      </trkpt>
      <trkpt lat="45.667352126911283" lon="8.053604308515787">
        <ele>1417.77</ele>
        <time>2021-05-30T14:11:59Z</time>
      </trkpt>
      <trkpt lat="45.667208628728986" lon="8.053760798648">
        <ele>1416.71</ele>
        <time>2021-05-30T14:12:14Z</time>
      </trkpt>
      <trkpt lat="45.667102849110961" lon="8.053869847208262">
        <ele>1416.21</ele>
        <time>2021-05-30T14:12:25Z</time>
      </trkpt>
      <trkpt lat="45.666858181357384" lon="8.054113676771522">
        <ele>1415.3599999999999</ele>
        <time>2021-05-30T14:12:48Z</time>
      </trkpt>
      <trkpt lat="45.666705463081598" lon="8.054495891556144">
        <ele>1413.6300000000001</ele>
        <time>2021-05-30T14:13:13Z</time>
      </trkpt>
      <trkpt lat="45.66667671315372" lon="8.054810129106045">
        <ele>1412.5999999999999</ele>
        <time>2021-05-30T14:13:33Z</time>
      </trkpt>
      <trkpt lat="45.666736057028174" lon="8.055083379149437">
        <ele>1411.95</ele>
        <time>2021-05-30T14:13:51Z</time>
      </trkpt>
      <trkpt lat="45.6667710095644" lon="8.05532444268465">
        <ele>1411.6099999999999</ele>
        <time>2021-05-30T14:14:07Z</time>
      </trkpt>
      <trkpt lat="45.666813170537353" lon="8.055573217570782">
        <ele>1411.1199999999999</ele>
        <time>2021-05-30T14:14:23Z</time>
      </trkpt>
      <trkpt lat="45.666823145002127" lon="8.055803468450904">
        <ele>1410.5</ele>
        <time>2021-05-30T14:14:38Z</time>
      </trkpt>
      <trkpt lat="45.666821887716651" lon="8.055849652737379">
        <ele>1410.3900000000001</ele>
        <time>2021-05-30T14:14:41Z</time>
      </trkpt>
      <trkpt lat="45.666818954050541" lon="8.055867003276944">
        <ele>1410.47</ele>
        <time>2021-05-30T14:14:42Z</time>
      </trkpt>
      <trkpt lat="45.666818618774414" lon="8.055883264169097">
        <ele>1410.4000000000001</ele>
        <time>2021-05-30T14:14:43Z</time>
      </trkpt>
      <trkpt lat="45.666822474449873" lon="8.055901033803821">
        <ele>1410.3299999999999</ele>
        <time>2021-05-30T14:14:44Z</time>
      </trkpt>
      <trkpt lat="45.666827000677586" lon="8.055917462334037">
        <ele>1410.1800000000001</ele>
        <time>2021-05-30T14:14:45Z</time>
      </trkpt>
      <trkpt lat="45.666883243247867" lon="8.056266820058227">
        <ele>1409.73</ele>
        <time>2021-05-30T14:15:05Z</time>
      </trkpt>
      <trkpt lat="45.666981060057878" lon="8.056574603542686">
        <ele>1408.79</ele>
        <time>2021-05-30T14:15:23Z</time>
      </trkpt>
      <trkpt lat="45.667085917666554" lon="8.056905856356025">
        <ele>1408.47</ele>
        <time>2021-05-30T14:15:43Z</time>
      </trkpt>
      <trkpt lat="45.667148362845182" lon="8.057367112487555">
        <ele>1407.3699999999999</ele>
        <time>2021-05-30T14:16:09Z</time>
      </trkpt>
      <trkpt lat="45.667172921821475" lon="8.057664921507239">
        <ele>1406.54</ele>
        <time>2021-05-30T14:16:26Z</time>
      </trkpt>
      <trkpt lat="45.66722983494401" lon="8.058052584528923">
        <ele>1405.54</ele>
        <time>2021-05-30T14:16:49Z</time>
      </trkpt>
      <trkpt lat="45.667242575436831" lon="8.058207649737597">
        <ele>1404.79</ele>
        <time>2021-05-30T14:16:58Z</time>
      </trkpt>
      <trkpt lat="45.667296471074224" lon="8.058251738548279">
        <ele>1404.4100000000001</ele>
        <time>2021-05-30T14:16:59Z</time>
      </trkpt>
      <trkpt lat="45.667303260415792" lon="8.058280739933252">
        <ele>1405.3699999999999</ele>
        <time>2021-05-30T14:17:00Z</time>
      </trkpt>
      <trkpt lat="45.667305774986744" lon="8.058301359415054">
        <ele>1404.5899999999999</ele>
        <time>2021-05-30T14:17:01Z</time>
      </trkpt>
      <trkpt lat="45.667306948453188" lon="8.058321140706539">
        <ele>1403.9400000000001</ele>
        <time>2021-05-30T14:17:02Z</time>
      </trkpt>
      <trkpt lat="45.667303092777729" lon="8.058333462104201">
        <ele>1405.3</ele>
        <time>2021-05-30T14:17:03Z</time>
      </trkpt>
      <trkpt lat="45.667079128324986" lon="8.0585459433496">
        <ele>1403.72</ele>
        <time>2021-05-30T14:17:23Z</time>
      </trkpt>
      <trkpt lat="45.666739828884602" lon="8.058549966663122">
        <ele>1400.72</ele>
        <time>2021-05-30T14:17:48Z</time>
      </trkpt>
      <trkpt lat="45.66648711450398" lon="8.05853521451354">
        <ele>1400.04</ele>
        <time>2021-05-30T14:18:07Z</time>
      </trkpt>
      <trkpt lat="45.666198525577784" lon="8.058464052155614">
        <ele>1399.5799999999999</ele>
        <time>2021-05-30T14:18:28Z</time>
      </trkpt>
      <trkpt lat="45.66596383228898" lon="8.058538064360619">
        <ele>1399.5799999999999</ele>
        <time>2021-05-30T14:18:45Z</time>
      </trkpt>
      <trkpt lat="45.665717823430896" lon="8.058749623596668">
        <ele>1399.0799999999999</ele>
        <time>2021-05-30T14:19:06Z</time>
      </trkpt>
      <trkpt lat="45.665443651378155" lon="8.058921033516526">
        <ele>1397.1700000000001</ele>
        <time>2021-05-30T14:19:28Z</time>
      </trkpt>
      <trkpt lat="45.665245335549116" lon="8.05901700630784">
        <ele>1395.8499999999999</ele>
        <time>2021-05-30T14:19:44Z</time>
      </trkpt>
      <trkpt lat="45.665069315582514" lon="8.059241054579616">
        <ele>1393.98</ele>
        <time>2021-05-30T14:20:01Z</time>
      </trkpt>
      <trkpt lat="45.665040481835604" lon="8.059510951861739">
        <ele>1392.24</ele>
        <time>2021-05-30T14:20:16Z</time>
      </trkpt>
      <trkpt lat="45.665128994733095" lon="8.059857543557882">
        <ele>1390.8</ele>
        <time>2021-05-30T14:20:35Z</time>
      </trkpt>
      <trkpt lat="45.665236199274659" lon="8.060139762237668">
        <ele>1389.1900000000001</ele>
        <time>2021-05-30T14:20:53Z</time>
      </trkpt>
      <trkpt lat="45.665330998599529" lon="8.060428267344832">
        <ele>1387.8099999999999</ele>
        <time>2021-05-30T14:21:10Z</time>
      </trkpt>
      <trkpt lat="45.665412889793515" lon="8.060679640620947">
        <ele>1386.1500000000001</ele>
        <time>2021-05-30T14:21:26Z</time>
      </trkpt>
      <trkpt lat="45.665441807359457" lon="8.060981724411249">
        <ele>1384.9200000000001</ele>
        <time>2021-05-30T14:21:43Z</time>
      </trkpt>
      <trkpt lat="45.665338793769479" lon="8.061152128502727">
        <ele>1383.5799999999999</ele>
        <time>2021-05-30T14:21:56Z</time>
      </trkpt>
      <trkpt lat="45.665163109079003" lon="8.061304846778512">
        <ele>1382.3299999999999</ele>
        <time>2021-05-30T14:22:12Z</time>
      </trkpt>
      <trkpt lat="45.664998404681683" lon="8.061493188142777">
        <ele>1381.1199999999999</ele>
        <time>2021-05-30T14:22:28Z</time>
      </trkpt>
      <trkpt lat="45.664804615080357" lon="8.061744645237923">
        <ele>1379.01</ele>
        <time>2021-05-30T14:22:49Z</time>
      </trkpt>
      <trkpt lat="45.664628427475691" lon="8.061971627175808">
        <ele>1377.1600000000001</ele>
        <time>2021-05-30T14:23:08Z</time>
      </trkpt>
      <trkpt lat="45.664460118860006" lon="8.062307154759765">
        <ele>1374.5899999999999</ele>
        <time>2021-05-30T14:23:32Z</time>
      </trkpt>
      <trkpt lat="45.664332797750831" lon="8.062547296285629">
        <ele>1372.76</ele>
        <time>2021-05-30T14:23:51Z</time>
      </trkpt>
      <trkpt lat="45.664297258481383" lon="8.062638826668263">
        <ele>1372.4200000000001</ele>
        <time>2021-05-30T14:24:10Z</time>
      </trkpt>
      <trkpt lat="45.664287200197577" lon="8.062666738405824">
        <ele>1372.4000000000001</ele>
        <time>2021-05-30T14:24:24Z</time>
      </trkpt>
      <trkpt lat="45.664262725040317" lon="8.062671516090632">
        <ele>1372.3499999999999</ele>
        <time>2021-05-30T14:24:43Z</time>
      </trkpt>
      <trkpt lat="45.664258198812604" lon="8.062677048146725">
        <ele>1372.1300000000001</ele>
        <time>2021-05-30T14:24:57Z</time>
      </trkpt>
      <trkpt lat="45.664255181327462" lon="8.062704289332032">
        <ele>1372.4200000000001</ele>
        <time>2021-05-30T14:25:11Z</time>
      </trkpt>
      <trkpt lat="45.664241099730134" lon="8.062779223546386">
        <ele>1372.3199999999999</ele>
        <time>2021-05-30T14:25:22Z</time>
      </trkpt>
      <trkpt lat="45.664232717826962" lon="8.06279162876308">
        <ele>1372.21</ele>
        <time>2021-05-30T14:25:23Z</time>
      </trkpt>
      <trkpt lat="45.664222911000252" lon="8.062799172475934">
        <ele>1372.26</ele>
        <time>2021-05-30T14:25:24Z</time>
      </trkpt>
      <trkpt lat="45.664034653455019" lon="8.062808141112328">
        <ele>1372.29</ele>
        <time>2021-05-30T14:25:42Z</time>
      </trkpt>
      <trkpt lat="45.663876486942172" lon="8.062782324850559">
        <ele>1372.4400000000001</ele>
        <time>2021-05-30T14:25:55Z</time>
      </trkpt>
      <trkpt lat="45.663855029270053" lon="8.062785509973764">
        <ele>1372.51</ele>
        <time>2021-05-30T14:26:12Z</time>
      </trkpt>
      <trkpt lat="45.66384949721396" lon="8.062774194404483">
        <ele>1372.55</ele>
        <time>2021-05-30T14:26:31Z</time>
      </trkpt>
      <trkpt lat="45.663740281015635" lon="8.062821719795466">
        <ele>1372.3199999999999</ele>
        <time>2021-05-30T14:26:47Z</time>
      </trkpt>
      <trkpt lat="45.66372393630445" lon="8.062823563814163">
        <ele>1370.4000000000001</ele>
        <time>2021-05-30T14:26:57Z</time>
      </trkpt>
      <trkpt lat="45.663734078407288" lon="8.062809817492962">
        <ele>1371.6300000000001</ele>
        <time>2021-05-30T14:27:16Z</time>
      </trkpt>
      <trkpt lat="45.6637317314744" lon="8.062824653461576">
        <ele>1371.98</ele>
        <time>2021-05-30T14:27:38Z</time>
      </trkpt>
    </trkseg>
  </trk>

</gpx>